GFSCGP_sfc_30mbdewp_003.txt.gz
Dewpoint
21 17 16 19 19 18 17 17 19 20 23 26 26 23 20 22 23 21 22 23 23 26 30 32 33 35 37 41 43 44 42 44 43 38 37 36 36 36 37 37 38 40 40 44
19 16 18 20 20 17 18 18 16 21 24 26 25 21 22 23 25 27 28 28 29 29 30 32 35 36 39 39 42 39 36 36 35 35 36 37 37 37 36 38 39 39 39 39
17 16 20 19 23 23 21 17 19 21 24 26 23 20 23 22 24 25 27 29 29 29 30 31 32 36 36 36 35 34 35 37 38 38 37 37 37 37 35 33 33 34 39 39
17 21 24 24 23 24 20 22 27 25 25 21 24 16 23 23 21 24 25 26 28 29 30 30 31 32 33 35 39 40 39 38 37 38 35 35 33 32 34 34 33 35 37 39
17 22 24 24 23 26 26 29 28 27 26 24 25 19 23 24 23 23 25 26 27 29 30 32 34 38 38 39 39 39 38 38 39 36 35 35 36 36 36 35 33 34 36 38
27 29 26 26 26 28 30 28 26 27 26 21 24 21 23 24 24 25 26 28 30 31 32 33 38 37 37 39 40 40 38 38 40 37 35 37 38 38 37 35 33 33 34 36
28 28 31 29 27 29 30 23 17 19 19 18 25 22 22 27 26 26 27 32 35 37 37 37 36 36 37 38 39 38 38 38 39 40 35 37 39 38 36 34 33 34 33 34
26 21 29 32 28 27 29 27 22 11 16 21 26 21 25 30 30 30 33 33 33 34 36 37 37 37 38 38 39 39 38 38 40 41 36 38 39 36 35 34 35 34 33 34
28 25 32 33 32 29 28 28 29 26 25 26 24 27 28 29 29 31 31 32 33 34 35 36 37 38 40 39 40 40 39 38 40 41 37 38 37 35 35 34 33 33 35 36
32 26 30 30 31 31 29 31 25 28 20 18 22 24 23 27 28 30 29 33 35 35 34 35 36 38 40 40 40 41 40 38 40 40 36 36 35 34 33 31 33 34 36 37
30 28 23 28 30 29 30 28 29 29 29 25 23 21 29 28 29 29 30 34 35 36 36 35 36 37 39 40 39 40 40 39 39 36 36 35 34 31 29 31 33 34 34 32
33 30 20 24 30 33 31 28 27 22 21 27 26 23 28 30 29 30 30 33 35 36 36 36 37 38 40 40 39 40 41 39 37 36 35 35 30 27 30 31 33 35 34 32
32 28 16 15 26 29 30 31 29 28 29 25 25 23 28 30 29 31 32 34 35 36 37 37 38 39 40 38 39 40 40 38 36 36 36 33 31 29 31 36 36 36 35 34
33 30 24 13 17 26 27 30 31 31 28 26 26 26 28 30 31 32 32 36 36 37 37 38 39 38 37 38 39 39 37 36 36 37 36 36 35 34 36 36 36 36 35 33
35 31 30 30 30 31 30 30 31 30 31 29 28 28 30 31 33 32 36 35 36 36 38 39 37 35 35 37 38 36 35 35 37 37 36 35 37 37 35 31 30 30 31 33
35 28 32 30 31 31 29 30 31 32 32 32 32 31 32 33 34 36 35 35 36 38 38 36 36 35 35 37 36 34 33 36 37 33 28 28 28 28 27 28 29 28 25 21
34 33 30 21 30 29 21 23 28 29 30 28 25 25 30 31 34 34 34 36 38 36 36 35 32 32 35 37 34 32 32 34 31 27 27 29 30 26 21 21 20 19 19 18
34 33 31 29 29 18 21 28 28 28 28 28 28 30 33 34 35 35 38 37 37 37 34 31 31 34 37 35 32 30 30 28 26 26 30 31 26 20 20 20 19 18 17 17
35 33 29 27 26 26 27 26 25 25 25 29 32 34 35 36 37 36 38 39 37 36 35 32 33 36 36 32 32 24 22 23 24 27 29 24 21 20 20 19 17 17 17 17
33 32 30 29 25 22 24 26 30 32 26 34 34 35 35 36 33 36 36 37 36 35 33 31 35 36 33 32 31 23 24 26 26 26 24 21 21 20 19 18 17 17 17 17
28 29 28 28 26 27 29 30 31 27 31 35 34 36 36 35 36 37 37 36 34 33 31 32 35 32 31 33 32 26 22 24 29 25 23 21 20 20 19 17 17 16 16 19
24 24 24 26 25 22 28 30 30 35 37 36 37 38 38 38 36 34 33 33 31 31 30 31 33 31 31 33 27 23 27 32 33 25 23 20 19 20 18 16 17 16 17 19
27 27 26 29 28 29 30 34 38 38 39 39 38 37 37 35 31 30 31 31 32 30 29 31 31 30 32 33 26 30 31 32 26 24 22 20 20 20 18 16 17 17 18 19
33 33 33 32 35 33 36 39 41 40 39 38 38 37 34 31 30 31 31 31 29 28 29 31 31 31 32 31 29 30 30 25 23 22 21 21 21 21 21 20 20 17 19 18
35 36 35 34 36 37 38 40 41 40 40 37 37 35 33 32 30 30 30 29 28 29 30 31 31 31 32 31 30 26 22 22 21 21 21 22 22 22 20 21 18 19 20 18
38 37 35 33 36 38 39 41 41 38 36 33 30 29 29 29 28 30 28 28 30 30 30 30 29 32 32 28 24 23 22 22 22 21 22 23 22 21 20 18 18 19 18 19

GFSCGP_sfc_30mbdewp_006.txt.gz
Dewpoint
22 15 16 19 20 18 16 14 14 15 23 26 25 19 20 23 23 24 24 23 26 32 34 34 35 37 42 49 49 46 45 42 40 37 36 35 36 36 37 38 40 41 40 40
16 17 19 23 22 18 17 15 14 20 24 27 23 20 20 23 25 27 26 26 28 29 30 33 36 39 41 43 43 40 37 38 37 36 38 39 40 38 39 37 38 37 35 35
16 18 21 22 24 23 20 18 22 22 24 26 23 21 20 22 25 26 27 28 28 28 29 32 35 37 39 39 39 38 39 39 40 38 37 36 36 36 35 35 34 34 34 34
20 24 25 24 25 26 19 25 27 25 23 17 25 15 23 21 22 24 26 28 29 29 30 31 33 37 38 41 40 39 39 38 38 39 37 38 36 35 36 36 34 34 32 33
21 24 25 25 25 28 26 30 28 27 24 24 23 17 23 24 22 24 26 29 30 31 33 35 36 37 39 40 41 41 39 39 39 38 39 37 37 37 36 35 33 30 29 31
26 28 28 28 28 28 30 28 28 28 27 23 24 21 22 24 25 25 28 32 34 35 33 36 37 37 38 40 41 40 38 38 39 39 38 39 40 38 35 32 30 29 30 30
25 27 30 31 26 30 27 24 20 24 23 21 24 21 25 26 27 29 31 33 35 37 37 36 36 36 38 40 40 38 38 36 38 39 37 37 36 36 34 32 30 31 30 30
22 22 30 32 30 28 28 27 25 18 19 19 23 17 24 28 30 31 32 33 34 34 36 35 35 36 39 40 40 40 38 36 36 36 35 34 37 37 34 33 33 32 32 34
25 24 31 31 31 30 27 27 30 28 28 27 21 25 28 28 28 29 30 32 33 34 34 34 35 36 39 40 40 41 39 36 36 37 38 39 39 36 35 33 33 32 34 34
30 25 29 29 32 32 29 31 25 24 22 13 11 15 17 27 28 29 29 31 33 33 34 34 35 35 38 39 41 41 40 39 39 39 38 38 36 35 33 32 32 33 35 36
28 27 25 29 29 28 29 29 28 26 26 19 17 13 27 26 27 28 29 30 32 34 34 35 36 36 37 40 40 39 40 40 39 38 36 35 35 33 32 32 33 34 34 32
33 30 19 22 31 33 31 28 27 21 20 25 25 21 27 28 28 30 30 31 33 35 35 35 36 37 39 40 39 39 39 37 37 34 33 34 33 32 32 33 34 34 34 34
33 28 16 19 28 30 30 29 30 30 30 26 25 22 26 28 27 28 31 32 34 34 34 34 36 38 39 37 36 37 37 36 34 33 32 32 34 33 33 34 34 36 36 36
35 30 23 10 15 23 21 22 26 27 27 24 24 23 24 24 26 28 31 34 34 34 34 37 39 38 36 35 35 36 36 35 33 33 32 32 33 36 36 36 34 32 30 29
35 26 29 26 25 25 26 25 24 24 27 26 26 23 25 27 28 30 34 35 34 35 37 37 37 35 34 33 34 35 34 32 34 33 31 30 30 29 28 26 25 23 21 18
35 29 32 28 28 26 26 26 25 27 28 28 28 27 28 29 33 34 34 34 34 37 37 36 34 33 28 29 34 35 29 31 34 31 29 28 28 26 23 21 20 17 16 17
35 35 32 27 29 29 25 27 25 26 28 27 25 26 30 32 33 34 35 36 37 37 36 35 33 27 29 33 36 29 28 31 32 29 27 27 27 23 20 17 15 15 16 17
36 36 34 31 30 22 26 27 27 26 27 26 26 29 33 34 34 34 38 38 38 37 33 30 28 27 30 34 31 29 28 29 28 27 27 28 24 20 17 15 15 16 16 16
37 37 32 29 25 24 25 26 27 25 25 29 32 34 35 35 33 34 38 38 38 35 33 30 29 28 30 33 30 29 28 27 26 26 27 26 22 20 15 15 16 17 17 17
35 36 34 29 26 22 25 27 30 31 25 34 37 39 38 36 33 36 38 38 35 31 30 27 24 27 32 33 30 31 29 27 25 26 28 24 22 18 16 17 17 18 17 17
31 32 30 29 28 28 29 31 32 29 32 38 38 38 39 36 37 38 37 33 28 27 26 24 22 23 28 31 31 31 27 23 22 25 25 24 21 17 17 17 18 19 18 20
26 29 29 30 27 26 30 31 33 36 38 39 39 38 37 37 37 32 27 24 23 24 23 21 21 22 25 28 30 29 22 21 24 26 25 23 20 18 17 18 19 19 19 20
27 29 27 30 30 31 33 34 37 39 39 39 39 37 36 34 28 24 22 21 22 23 21 20 22 24 24 25 29 26 21 23 26 24 23 22 20 19 19 19 20 19 18 21
32 33 33 33 33 33 36 37 40 41 40 39 38 34 30 27 23 22 21 20 22 20 20 23 22 21 23 26 30 28 27 27 26 23 22 21 20 20 21 21 20 18 19 20
33 33 32 34 36 36 36 40 41 40 39 38 33 30 25 21 20 19 18 18 18 19 21 22 22 22 21 23 30 29 28 25 21 20 20 21 22 22 22 20 18 18 20 19
35 33 35 35 38 38 39 39 40 40 37 30 27 23 21 20 20 18 16 17 18 20 23 22 22 24 23 23 25 27 24 24 23 21 21 23 24 24 23 19 18 20 19 19

GFSCGP_sfc_30mbdewp_009.txt.gz
Dewpoint
19 15 15 17 16 13 10 9 9 12 19 19 20 16 19 23 22 24 23 23 23 24 37 41 39 39 43 48 48 47 44 45 42 39 38 36 36 37 39 39 41 41 40 38
12 16 18 21 21 18 16 13 13 16 20 22 20 17 20 22 25 24 24 26 30 33 33 35 38 39 42 45 46 43 41 39 38 38 39 41 41 39 39 39 38 37 38 37
16 19 21 22 21 20 19 17 21 20 21 20 21 19 19 22 24 25 27 27 28 29 31 34 37 40 41 41 40 40 40 40 40 39 38 38 37 37 36 37 37 37 37 34
19 24 23 22 23 23 19 23 24 22 19 16 20 15 20 21 23 25 28 28 28 29 30 32 36 38 41 42 41 40 40 39 39 40 39 39 38 37 38 38 37 36 33 31
22 23 25 24 24 26 25 28 25 24 21 19 18 13 22 20 21 24 27 29 30 32 34 35 36 38 40 42 42 41 40 39 40 39 40 39 40 40 39 38 36 35 31 32
25 27 27 27 26 27 28 27 26 27 23 19 21 18 21 22 24 25 29 31 33 33 35 36 37 37 40 42 42 41 39 38 40 41 41 40 41 39 36 35 33 31 32 31
24 26 28 29 26 29 25 24 22 23 21 21 23 16 24 25 26 27 30 32 34 36 36 35 36 36 38 39 40 40 38 38 38 39 39 37 36 37 36 34 33 32 30 30
20 24 27 28 28 27 25 26 26 17 18 18 21 13 23 27 30 30 30 32 33 34 35 35 36 37 37 38 39 41 41 39 37 38 38 39 38 37 36 35 33 32 32 33
23 24 28 29 30 28 26 25 26 27 28 25 16 19 26 28 28 28 29 31 32 32 33 33 34 35 36 38 39 40 41 39 39 39 39 39 38 36 35 34 33 32 33 33
25 25 25 27 29 30 29 28 26 24 22 13 10 9 19 27 26 28 27 28 29 31 32 33 34 35 36 37 38 39 40 39 38 39 38 36 35 35 33 32 32 32 33 33
24 24 24 25 26 24 27 27 26 21 23 19 14 14 24 22 25 26 27 28 30 31 33 33 34 35 37 37 39 39 39 39 37 36 35 35 34 33 32 31 31 34 35 34
29 27 20 18 29 31 29 26 24 22 18 22 24 21 25 25 25 26 27 29 31 32 33 33 34 36 37 38 38 37 38 37 35 34 32 31 31 31 30 31 33 34 33 35
30 28 19 17 27 29 26 26 25 26 28 23 22 22 26 27 28 26 27 29 31 34 34 35 36 36 37 37 37 36 35 35 34 33 31 29 29 30 31 31 30 31 30 28
34 26 22 17 16 18 18 19 19 22 24 24 22 21 22 23 25 26 28 30 33 34 34 36 36 35 35 36 35 32 32 33 32 31 29 28 29 29 28 29 27 24 22 20
32 26 26 25 21 20 20 21 21 19 20 21 24 23 24 26 28 29 31 32 32 33 35 36 35 35 33 31 28 29 32 32 30 30 28 28 27 27 26 25 23 21 18 17
33 30 31 26 23 21 21 21 20 20 22 23 23 23 26 29 29 31 33 34 33 35 37 37 33 30 28 26 27 29 31 28 29 29 27 26 26 28 26 22 19 16 15 16
34 33 30 27 30 29 27 27 21 22 23 26 24 25 27 29 32 34 35 35 37 37 37 35 31 28 27 26 26 29 28 27 27 27 26 24 27 28 23 20 15 15 15 16
38 34 36 32 31 25 26 25 24 23 24 24 24 26 30 34 34 35 37 37 36 36 35 31 29 27 24 22 24 28 29 26 26 25 24 25 27 27 22 18 15 15 15 16
35 37 33 30 25 24 25 26 26 25 26 27 30 34 36 36 35 34 38 37 36 35 31 28 25 21 19 19 22 26 27 27 26 27 23 23 26 26 21 16 15 16 16 16
36 38 34 32 27 22 27 28 30 30 26 35 36 36 38 36 32 31 36 35 34 30 24 22 22 21 19 18 19 21 21 22 26 25 21 24 23 23 20 17 16 16 15 16
33 34 32 30 28 28 27 30 32 27 31 38 38 38 37 34 33 35 35 30 25 21 21 20 19 17 17 19 19 19 18 20 24 24 22 25 26 23 19 16 16 16 16 20
29 32 30 31 28 26 30 30 33 33 36 39 39 39 37 34 33 30 25 22 20 19 18 17 15 16 17 17 17 17 16 20 24 24 26 27 26 22 17 17 16 17 17 20
26 29 29 31 29 29 33 34 38 38 39 39 40 39 39 30 27 24 21 19 19 17 14 13 14 16 16 17 17 16 24 29 30 31 30 31 25 21 17 16 16 17 18 20
30 29 31 32 31 31 34 37 40 41 40 40 39 37 30 26 23 20 19 18 15 13 13 13 15 16 17 18 19 20 28 30 28 28 27 24 20 19 18 17 17 16 19 21
33 32 32 33 33 33 34 40 40 39 40 39 34 29 27 22 20 20 17 14 14 15 15 17 17 17 18 20 22 23 28 26 27 26 22 20 19 19 19 18 18 18 21 19
33 31 34 34 36 38 39 40 39 38 37 32 28 25 23 22 19 17 14 15 15 16 17 17 17 19 22 24 24 26 27 28 25 24 22 23 24 22 21 19 18 21 20 18

GFSCGP_sfc_30mbdewp_012.txt.gz
Dewpoint
18 16 18 18 16 13 10 8 7 14 18 16 13 16 18 21 21 23 23 24 24 35 41 41 42 42 46 47 49 50 49 45 44 44 43 43 43 42 43 43 42 41 43 42
11 16 18 17 16 15 13 11 11 15 18 15 18 14 19 22 24 24 25 27 34 35 36 39 44 48 47 46 45 44 43 42 42 42 43 43 43 42 41 44 43 43 42 40
20 19 19 19 19 17 17 15 22 20 20 19 17 18 19 22 25 26 27 29 31 33 36 38 41 43 44 44 42 42 42 42 43 43 42 41 41 41 41 41 41 42 41 39
21 21 21 20 22 23 19 25 23 20 18 15 17 13 19 22 24 26 28 29 30 31 32 36 41 43 43 43 43 42 41 40 42 42 41 41 40 41 42 44 43 42 38 39
21 23 24 23 24 23 24 26 23 22 20 18 17 17 21 22 23 26 29 30 32 34 35 37 39 41 43 44 44 42 40 40 41 42 42 42 44 44 43 42 41 39 39 37
24 25 27 26 25 24 27 26 24 24 23 21 18 19 26 23 25 27 30 32 34 34 36 36 38 40 42 43 43 42 40 39 40 42 43 40 39 40 40 40 38 37 36 36
24 25 27 26 27 28 24 24 23 26 21 22 24 18 26 26 26 28 31 33 35 36 37 36 36 37 39 40 41 41 42 41 40 39 40 42 42 41 39 38 37 36 35 36
21 25 26 27 27 24 25 24 27 21 23 22 20 14 24 28 30 30 31 32 33 35 35 35 35 36 37 38 39 41 41 41 40 41 41 43 41 39 38 38 36 36 35 36
23 24 27 27 27 25 26 24 23 26 29 23 15 24 27 28 28 28 29 29 31 32 33 33 35 36 36 37 39 41 40 41 41 41 40 40 39 39 37 35 36 35 37 36
22 25 23 24 28 29 26 25 23 26 21 16 12 14 25 27 27 30 26 27 29 30 32 34 35 36 38 39 40 42 41 40 39 39 38 37 37 37 35 35 35 36 36 35
25 24 23 24 24 23 25 24 26 22 23 20 17 16 20 22 25 26 27 27 30 31 32 34 36 37 39 40 40 41 39 39 38 37 36 35 35 34 34 34 35 35 35 35
26 25 24 19 25 26 25 24 24 24 20 24 25 20 25 25 26 29 28 28 31 34 35 35 37 38 37 37 39 38 38 37 36 35 34 32 33 32 32 33 32 32 32 33
30 28 23 20 28 27 21 23 23 27 29 24 21 21 26 28 31 30 28 29 34 34 33 35 37 37 36 36 37 36 36 34 34 33 31 31 30 30 30 30 31 31 30 29
35 25 22 20 18 18 17 17 18 19 26 26 25 23 24 26 29 30 30 31 32 33 35 36 37 36 35 34 33 33 31 33 34 31 30 30 30 29 28 29 29 27 26 23
31 26 27 25 22 21 20 19 20 19 20 19 22 20 22 27 28 32 34 34 34 35 35 36 36 35 32 31 30 29 29 32 34 32 31 30 29 28 29 30 28 25 23 20
33 33 32 27 22 23 22 23 22 21 19 19 22 23 26 30 34 34 35 35 36 36 36 35 34 32 29 29 28 27 27 30 35 34 33 31 32 29 29 30 27 23 21 20
35 33 32 27 30 31 29 28 22 22 22 23 23 26 31 33 34 34 35 36 36 35 34 34 31 30 28 24 22 22 24 29 33 33 30 33 34 33 31 29 24 20 19 20
36 35 36 28 31 22 25 25 25 24 23 24 24 29 34 34 35 34 37 36 35 34 33 32 28 25 23 22 22 21 21 21 22 26 30 36 34 32 27 26 23 20 19 20
35 38 31 30 26 25 26 27 27 27 27 27 32 35 36 35 34 34 36 34 33 32 30 24 21 22 21 20 20 20 19 19 20 19 31 34 31 27 28 24 21 20 19 20
36 39 35 31 27 22 26 28 31 30 26 37 37 36 36 34 32 32 34 32 29 24 21 19 19 18 17 18 18 18 17 17 18 28 30 32 32 30 29 27 21 19 20 21
32 34 32 31 27 30 28 30 31 26 32 38 39 38 37 36 36 33 31 26 22 20 18 18 16 15 17 17 17 17 16 17 25 31 31 34 35 33 31 24 19 20 21 23
29 31 30 30 28 26 30 30 30 35 39 39 37 39 40 39 36 27 24 21 19 18 15 13 13 14 16 17 17 17 18 22 28 31 30 30 31 30 25 21 21 20 20 24
25 32 33 32 32 33 33 34 39 40 40 41 40 40 37 38 28 24 21 20 19 14 13 14 14 16 17 18 18 20 22 25 27 27 28 29 28 25 22 19 19 19 21 22
27 27 31 32 32 31 33 35 41 41 40 40 39 36 37 27 25 22 21 19 16 14 14 16 17 16 18 19 22 24 25 28 26 26 26 26 23 21 20 20 19 20 23 23
32 31 30 32 32 33 37 40 40 40 41 39 37 31 27 24 22 20 18 16 17 16 18 18 17 18 20 21 24 26 25 27 26 26 25 25 26 25 23 20 20 22 23 19
34 30 32 34 36 37 39 40 40 38 39 38 28 26 24 22 18 16 17 18 17 18 18 17 19 21 22 25 26 26 26 28 28 27 26 26 25 25 23 22 22 22 21 20

GFSCGP_sfc_30mbdewp_015.txt.gz
Dewpoint
22 21 18 17 15 13 12 12 16 17 17 15 14 15 22 24 23 25 32 36 38 41 46 47 47 49 50 49 49 47 46 44 45 42 41 41 41 42 43 42 43 41 40 39
19 18 18 18 18 17 14 18 20 18 17 14 15 18 23 26 27 30 33 36 38 41 43 44 45 45 45 44 43 43 42 42 43 43 44 43 43 43 42 42 44 44 42 40
19 18 18 19 23 22 22 22 22 20 20 19 18 20 23 26 28 29 31 35 36 39 41 43 43 43 43 42 41 41 40 41 42 42 41 41 41 41 43 44 42 42 39 37
21 21 22 22 23 23 24 27 25 21 20 16 17 18 22 25 27 30 32 34 35 38 41 42 42 42 42 43 41 41 41 41 41 41 42 41 44 43 43 42 42 39 38 36
21 25 26 25 24 24 26 26 24 23 22 22 19 19 21 27 28 29 31 33 35 37 39 41 42 43 43 42 41 41 41 41 42 42 42 43 39 40 42 41 38 37 36 37
23 27 27 26 26 24 25 27 27 26 25 22 24 22 26 27 28 30 32 34 35 36 37 39 41 42 43 43 42 41 41 41 42 43 41 40 41 40 39 38 36 35 37 37
25 26 27 27 27 27 26 27 25 24 24 24 29 25 29 29 29 31 34 35 36 36 37 37 40 41 42 42 42 42 42 41 42 42 43 41 40 39 38 35 35 34 35 35
24 24 26 27 26 25 28 26 22 22 20 21 17 23 27 29 31 32 34 34 36 36 36 35 36 36 39 39 41 41 41 41 41 41 41 40 39 39 37 34 34 34 37 36
27 24 27 26 26 27 27 21 23 27 29 24 23 27 28 28 29 30 30 32 34 35 35 35 37 38 40 41 41 41 41 40 40 38 38 37 39 36 34 34 36 36 36 34
23 23 22 23 27 28 23 24 24 24 19 17 18 26 28 29 32 32 28 30 31 34 36 38 38 38 38 40 41 40 39 38 38 39 37 36 36 36 35 36 34 34 34 34
29 29 23 24 23 24 25 26 25 24 24 19 18 18 27 31 33 31 30 32 35 35 35 37 38 38 38 38 39 39 38 37 37 35 35 33 33 34 34 34 33 32 33 32
26 27 22 25 25 26 25 25 26 21 22 27 25 22 27 31 31 32 32 34 34 34 36 37 38 37 36 36 36 35 35 36 36 35 34 32 34 31 31 31 31 31 30 31
29 25 23 25 29 28 20 23 25 30 27 21 19 17 28 30 32 32 30 33 33 35 37 37 37 37 35 33 31 31 32 34 33 34 33 32 32 31 31 28 31 30 30 26
36 26 23 21 20 20 18 20 20 27 26 24 24 24 24 32 33 34 34 34 35 36 36 36 36 35 34 32 30 31 30 30 33 34 34 34 35 34 31 30 29 27 26 22
32 29 28 26 24 23 22 22 22 21 21 21 21 26 28 33 34 35 35 35 36 36 35 35 34 32 30 30 30 27 24 27 35 34 34 34 36 33 33 34 32 34 26 22
36 33 29 25 28 26 25 27 26 23 23 22 24 25 34 34 35 34 36 36 35 34 34 34 34 31 30 26 23 22 24 25 32 30 29 36 35 35 35 35 36 31 23 20
36 32 28 21 28 31 26 26 25 24 25 24 22 29 35 34 34 36 36 35 34 34 33 33 32 31 24 23 23 20 20 21 21 20 32 36 37 36 36 36 35 24 20 19
32 35 32 21 27 11 28 28 27 27 27 28 34 35 35 34 36 36 35 33 33 33 32 31 31 23 22 21 19 18 19 18 18 29 30 34 34 35 35 36 32 21 19 19
37 34 25 21 24 23 27 27 27 27 29 36 36 36 36 35 35 34 33 33 31 30 29 24 20 19 18 18 17 18 18 17 20 30 31 33 34 34 34 33 24 23 20 23
39 35 30 28 19 9 27 30 31 31 26 38 38 37 36 35 30 33 31 30 29 22 21 18 16 15 17 17 17 17 17 19 28 31 32 34 34 35 34 34 31 22 22 26
33 33 28 29 25 26 32 31 31 25 25 39 38 38 37 34 35 36 33 24 22 21 17 15 14 15 17 17 17 17 19 24 28 30 30 30 32 34 33 31 26 22 23 26
24 26 28 30 26 21 32 30 27 32 39 39 38 39 39 39 39 37 24 22 21 17 14 14 16 17 17 18 20 22 23 26 28 27 28 28 28 28 27 23 20 22 23 22
26 29 29 29 26 30 33 32 37 39 39 40 39 40 39 37 38 26 23 22 19 15 16 16 17 17 18 21 23 25 25 28 28 27 26 26 26 25 23 20 20 21 22 21
30 34 32 33 34 34 33 39 41 41 40 40 40 40 37 35 25 24 20 18 17 17 18 18 18 18 21 22 26 26 26 28 27 27 26 26 26 26 24 21 22 22 21 20
29 32 30 32 34 35 40 40 40 39 39 39 37 37 28 24 22 18 18 18 18 17 18 19 20 21 23 27 27 27 26 28 27 27 27 26 26 24 24 22 21 22 20 19
36 32 30 29 36 36 40 40 40 40 40 38 35 26 25 19 17 17 16 18 19 20 21 22 23 24 27 28 28 29 27 28 27 25 26 25 25 26 25 24 24 24 22 21

GFSCGP_sfc_30mbdewp_018.txt.gz
Dewpoint
24 20 16 16 16 15 14 17 16 17 17 14 16 22 24 28 35 37 42 44 44 43 44 46 47 47 48 48 49 48 49 48 50 44 43 43 43 42 43 44 43 43 40 39
20 18 18 20 23 22 19 17 17 18 18 14 19 24 28 31 34 39 41 42 42 42 42 44 45 46 47 47 46 42 42 43 43 43 45 44 44 44 44 44 41 39 38 38
19 18 19 24 23 24 26 21 21 20 21 19 23 22 28 30 33 35 38 40 42 42 42 42 43 43 42 41 40 39 40 41 42 42 41 42 43 44 43 43 39 38 37 38
20 25 25 24 23 24 24 27 24 22 19 7 18 19 24 30 32 34 37 40 42 42 43 42 42 42 41 41 41 41 41 40 41 41 41 41 42 41 42 40 38 37 38 37
24 26 25 23 23 24 25 26 24 23 22 23 20 20 24 30 31 33 36 39 41 41 41 42 42 42 42 41 41 41 41 41 42 42 42 42 39 41 40 39 36 36 37 37
25 28 26 26 27 25 25 27 29 27 26 22 26 23 25 27 29 32 35 37 39 40 41 42 42 43 42 42 41 41 41 41 42 43 42 40 41 39 37 36 34 36 36 37
26 26 27 28 27 27 26 28 23 23 23 22 29 27 28 30 31 34 35 36 36 38 39 40 41 42 42 42 42 43 42 43 43 43 41 40 39 37 35 35 34 35 36 36
24 24 26 27 25 25 26 25 22 21 18 19 26 25 28 32 35 36 36 36 36 36 37 39 39 40 41 41 42 42 40 39 40 41 39 39 39 37 36 35 35 37 35 34
25 23 28 24 26 28 26 23 26 26 28 22 25 27 28 31 32 33 33 35 35 36 38 39 39 40 40 40 40 40 39 39 39 38 37 37 39 37 36 35 37 35 34 33
26 20 23 23 29 28 21 25 23 23 16 16 20 26 26 30 31 30 31 34 36 37 37 37 37 38 40 41 40 39 38 37 38 37 36 35 36 37 36 36 35 34 33 33
31 23 22 28 24 24 24 25 26 25 24 18 18 20 26 32 32 30 33 34 35 36 38 38 37 36 36 36 34 34 35 35 37 35 35 34 33 35 36 35 34 33 33 33
29 25 23 25 25 26 25 26 25 19 20 25 23 22 31 31 31 32 34 34 36 37 37 37 37 36 34 33 31 31 32 33 35 35 35 33 33 33 33 33 33 33 32 32
29 24 21 25 28 27 22 24 30 28 26 20 16 16 31 32 33 34 34 35 36 36 35 35 35 34 33 32 31 31 29 28 30 35 33 33 34 32 32 33 32 32 31 32
36 28 22 16 22 21 18 21 27 26 22 22 21 20 24 33 33 34 35 36 36 35 35 34 34 33 31 31 30 26 25 29 32 31 30 31 34 36 35 31 34 35 35 33
31 26 28 25 26 24 23 22 22 22 23 22 22 25 29 33 34 35 36 35 35 34 34 34 33 33 31 29 26 23 23 24 27 25 30 35 35 35 34 35 36 36 34 35
36 29 26 21 29 29 20 27 27 25 23 24 24 31 34 35 36 36 36 35 34 33 33 33 32 31 31 25 21 20 20 20 22 27 33 34 35 35 35 36 36 37 36 26
33 30 23 12 28 28 22 26 25 25 26 25 22 30 34 34 35 35 35 34 33 32 32 31 31 30 23 20 18 17 18 19 21 31 32 34 34 34 35 36 37 35 32 26
32 32 28 16 19 7 26 28 27 26 32 34 34 34 34 35 36 35 34 32 32 32 31 28 25 20 20 18 17 18 18 19 26 30 31 32 33 33 34 35 35 33 27 26
34 29 24 13 18 18 26 28 27 24 26 36 35 36 35 36 34 33 32 32 31 29 24 21 18 18 17 17 17 17 19 21 30 30 31 32 33 32 34 33 33 33 30 23
36 30 20 27 11 2 17 30 31 30 25 37 37 37 36 34 31 31 33 32 26 22 19 15 14 17 16 16 18 19 21 26 28 30 31 30 33 34 33 33 31 32 23 26
33 33 25 25 19 21 25 31 31 24 18 39 38 38 36 33 33 35 36 24 22 18 15 15 16 17 17 18 21 22 24 26 28 28 29 29 29 29 29 30 28 23 26 24
25 24 28 28 24 14 30 32 27 27 38 39 38 38 37 38 38 38 28 22 19 14 16 17 17 18 19 21 23 24 25 27 28 27 27 27 26 26 24 21 23 24 23 21
23 23 22 27 22 27 33 30 32 38 38 39 38 39 39 36 36 32 23 19 17 17 17 18 18 19 21 23 25 25 25 27 28 27 27 26 26 26 24 21 22 22 22 20
31 33 31 31 30 32 33 38 39 40 40 40 40 40 38 36 32 22 19 18 18 17 18 19 21 22 23 25 27 27 27 27 27 27 26 26 25 25 25 22 23 21 20 20
28 34 31 32 33 38 39 40 40 40 40 38 39 37 36 28 19 18 17 17 19 19 21 22 23 25 25 28 28 28 29 27 27 27 26 25 25 25 24 22 22 22 21 20
33 29 28 26 31 32 35 40 40 39 39 38 37 27 20 18 17 17 18 20 21 22 23 24 26 26 28 28 28 29 29 28 27 26 25 25 25 25 24 23 22 23 23 23

GFSCGP_sfc_30mbdewp_021.txt.gz
Dewpoint
23 19 16 16 17 15 14 15 15 16 17 16 22 27 31 36 38 41 43 44 44 45 46 48 50 52 52 53 55 55 55 51 45 45 43 43 43 44 45 43 40 39 39 38
19 18 19 25 24 20 18 16 17 19 19 22 27 29 34 38 41 43 42 42 43 44 46 47 48 49 52 50 48 43 43 43 43 43 46 47 47 46 44 39 38 38 38 38
18 18 23 22 24 23 25 20 20 19 20 24 25 28 31 34 38 41 42 42 42 43 44 46 47 46 44 41 41 41 41 42 43 44 44 44 44 45 42 39 37 38 38 38
23 28 24 23 21 24 22 27 23 21 17 19 21 23 27 32 36 39 41 42 41 42 44 43 41 40 40 40 40 39 40 41 42 42 41 41 40 41 42 39 37 38 38 38
25 25 24 22 23 25 25 27 23 23 21 21 21 23 25 32 34 37 39 41 43 42 42 41 40 40 40 41 41 41 41 42 42 42 42 43 41 41 39 37 36 37 38 38
26 28 26 26 27 25 25 28 29 30 26 20 26 22 25 29 33 36 38 40 41 41 41 42 42 42 42 42 42 42 43 43 43 43 42 41 40 38 36 35 35 35 38 37
26 26 27 28 27 27 27 28 23 22 22 22 26 25 26 29 32 35 37 39 40 41 41 42 42 42 42 42 42 41 41 42 41 41 39 39 38 37 36 35 35 36 37 36
24 21 25 25 25 25 24 26 23 21 21 19 26 25 27 32 34 36 37 37 37 37 39 40 40 40 40 41 40 40 39 38 40 39 38 38 38 37 36 36 36 35 36 34
23 22 27 25 26 28 26 23 27 26 26 22 26 27 32 35 35 35 35 36 36 38 39 39 40 40 39 39 39 39 38 39 38 38 38 38 38 38 36 36 36 36 35 34
27 20 24 24 28 27 23 27 21 22 14 16 22 25 27 31 32 34 34 36 37 37 37 37 38 39 40 38 37 36 36 36 37 38 37 36 37 38 38 36 36 36 34 34
30 20 21 27 24 24 24 24 25 26 24 16 17 24 26 30 32 31 35 36 37 37 37 36 36 37 36 34 33 32 33 33 36 36 36 36 34 34 35 36 35 34 33 34
29 25 23 23 27 28 26 25 23 15 18 24 21 18 28 33 31 34 34 35 37 37 36 36 35 35 34 32 31 31 29 27 31 34 34 32 33 34 33 34 34 34 33 33
29 24 21 24 26 25 25 26 29 26 25 21 18 17 31 32 33 34 35 36 36 36 35 35 35 33 32 32 31 27 27 30 33 29 27 29 33 35 35 35 34 32 32 33
33 28 20 13 20 23 18 21 28 25 21 20 19 19 28 33 32 34 36 36 35 35 34 33 33 32 31 31 28 23 23 26 26 24 28 31 33 33 32 32 32 32 35 35
30 24 27 26 26 24 22 21 24 25 24 20 21 23 24 32 33 34 36 36 34 34 32 32 32 32 32 28 22 21 21 21 24 24 30 32 33 34 35 34 35 36 37 36
35 27 23 25 29 28 22 21 23 23 23 25 24 26 34 35 36 36 35 35 34 32 31 31 31 31 27 21 18 18 18 19 22 28 31 34 34 35 34 35 36 36 36 29
30 28 19 9 27 25 15 21 26 25 25 24 23 27 34 34 35 36 35 34 33 31 30 30 31 27 22 19 18 16 17 20 21 29 31 32 32 32 32 34 35 35 34 34
31 27 23 14 16 5 14 27 27 25 27 31 31 33 34 35 36 36 35 34 32 30 30 29 23 20 20 18 16 17 18 19 21 30 31 32 32 32 32 34 33 31 29 28
33 26 20 13 13 14 16 26 27 26 24 34 32 34 34 36 34 34 34 32 31 31 27 21 17 18 17 16 17 18 19 21 29 29 30 30 31 32 32 33 32 32 32 26
31 25 17 23 9 1 7 30 31 28 24 35 35 35 35 34 32 33 33 32 32 24 18 14 15 17 17 17 19 20 22 26 27 29 28 29 29 29 29 30 31 31 24 26
33 31 25 20 15 17 21 31 30 23 14 37 37 36 36 34 34 34 34 33 24 16 15 16 17 17 18 20 22 22 24 25 27 28 28 28 27 26 26 26 26 24 25 23
26 27 27 25 21 13 27 31 27 27 31 37 38 38 37 35 36 38 31 22 16 15 16 18 17 19 20 22 23 24 24 25 27 28 27 27 26 26 23 21 24 24 22 21
25 23 20 24 19 26 31 31 32 33 34 39 38 39 38 38 37 37 23 18 17 17 17 18 19 21 23 24 25 25 26 27 27 28 27 26 26 25 24 21 22 22 21 20
31 31 26 28 26 29 30 32 37 38 38 39 39 39 39 35 37 27 19 18 17 17 19 20 22 23 24 26 27 28 28 28 28 27 27 26 25 25 25 22 23 21 20 19
30 33 30 31 32 34 37 37 38 40 40 39 40 39 36 38 29 19 18 18 18 20 22 22 23 25 25 28 28 28 28 29 27 27 27 26 25 25 23 22 22 22 21 20
33 28 27 23 28 31 31 38 40 40 39 38 38 35 32 22 19 18 18 20 21 22 22 23 25 25 27 29 27 27 29 29 29 29 29 29 27 25 24 23 23 23 24 24

GFSCGP_sfc_30mbdewp_024.txt.gz
Dewpoint
23 17 15 16 15 12 14 14 13 16 17 27 32 34 37 40 41 42 44 44 45 47 48 51 53 55 56 57 57 57 58 56 46 46 44 43 42 45 45 40 40 40 39 38
19 17 19 25 23 19 18 16 17 20 22 28 32 33 36 40 42 42 43 45 46 48 50 50 52 53 54 55 55 54 54 50 45 46 47 47 48 46 41 39 39 38 38 38
18 20 24 24 24 20 24 18 20 19 25 27 28 29 34 38 41 42 43 43 45 48 49 50 51 51 48 44 42 43 44 43 45 47 47 45 45 43 39 37 37 38 38 37
25 27 23 22 23 24 20 26 23 20 20 19 23 21 30 36 39 40 41 43 44 45 47 45 43 40 40 40 41 41 42 42 43 42 41 42 42 42 41 38 37 37 37 38
25 25 23 22 22 26 25 27 24 23 22 20 23 22 26 36 38 39 40 41 42 44 42 40 39 40 40 41 41 41 42 42 42 43 43 42 41 39 37 36 36 36 37 38
26 28 27 26 28 25 27 28 28 29 25 18 25 21 23 32 35 38 40 41 42 42 41 41 41 41 41 42 42 42 42 43 43 42 41 40 39 37 36 36 36 37 37 39
25 26 27 28 26 27 29 26 22 22 22 20 26 25 23 30 34 37 39 40 41 41 41 41 41 42 42 42 42 42 42 41 41 40 39 39 39 38 37 36 36 35 36 37
20 19 24 25 26 24 24 27 22 20 22 22 26 25 27 32 33 37 39 39 39 40 42 42 42 41 41 40 39 39 38 39 39 39 38 38 38 37 37 36 36 36 36 36
23 22 27 25 27 28 26 21 27 25 26 21 25 27 32 35 35 36 37 37 38 39 40 40 40 40 40 39 39 38 38 38 38 38 38 38 38 38 38 38 37 36 36 35
26 19 24 24 28 27 25 28 20 21 10 10 22 25 26 32 33 35 35 36 37 38 39 39 39 39 39 38 36 35 35 35 37 39 38 36 36 35 34 36 36 36 36 34
27 21 21 26 24 25 25 24 25 25 23 13 13 21 28 32 34 34 35 37 37 37 37 38 39 38 35 33 32 32 31 30 34 36 36 33 31 32 33 34 35 35 35 34
29 25 23 21 27 30 26 25 22 12 15 23 20 17 28 31 34 34 35 37 37 37 36 35 35 34 33 31 31 29 27 29 33 32 27 28 31 34 34 33 33 34 33 34
27 25 21 21 22 24 25 28 27 24 25 21 18 13 32 33 33 34 35 36 37 36 36 35 35 33 33 32 31 26 28 31 28 25 24 28 32 32 31 31 31 31 32 32
30 26 20 10 16 22 19 24 27 23 19 19 19 18 28 31 32 34 36 36 36 34 33 33 34 31 31 31 28 24 23 25 24 22 27 30 31 32 32 32 32 33 34 34
27 22 25 26 27 24 20 20 25 23 22 18 19 21 22 30 32 34 36 36 35 34 33 32 32 32 31 29 23 21 20 21 23 21 28 31 34 34 33 33 33 35 36 36
33 24 23 25 29 27 23 21 22 24 24 25 25 23 27 33 35 35 35 35 34 33 32 31 32 31 29 24 19 18 18 18 22 22 30 33 32 31 31 32 33 35 35 32
28 26 19 12 25 22 14 19 22 23 25 22 18 22 34 34 34 35 35 35 34 33 31 29 30 28 23 19 18 16 17 19 20 23 30 31 31 31 31 32 33 33 33 33
28 23 17 12 15 5 12 26 27 24 25 26 28 28 32 33 36 36 36 35 34 32 30 31 29 21 21 18 17 17 18 19 20 28 29 30 30 31 31 31 32 32 29 29
30 23 18 11 13 12 11 19 25 26 22 30 29 32 34 35 35 35 36 35 34 32 31 28 21 19 19 17 17 18 19 21 27 27 29 30 30 29 28 28 29 31 30 29
28 24 16 19 8 2 7 25 30 27 22 28 33 33 34 34 32 33 35 34 32 31 25 18 16 17 16 17 19 19 20 23 25 27 28 28 29 27 26 26 26 30 26 25
32 30 22 17 14 15 18 30 29 19 13 32 34 34 35 33 34 34 35 33 32 24 16 15 17 17 18 20 21 21 23 24 25 27 28 28 27 26 26 23 24 24 25 23
24 24 24 23 21 13 25 31 26 26 28 33 35 35 35 35 35 35 34 30 20 15 17 18 18 19 21 23 23 23 24 25 27 27 27 27 26 26 25 23 24 25 23 21
23 25 21 23 18 24 28 31 32 32 30 35 36 37 37 36 36 36 25 19 19 16 17 18 19 21 23 25 25 25 26 28 28 28 27 27 27 26 25 23 22 22 21 20
31 30 25 26 24 27 30 30 32 35 34 37 39 38 38 37 38 29 24 24 18 17 18 20 21 22 24 25 27 28 27 27 28 27 27 27 26 26 25 24 22 22 21 20
30 31 29 29 29 31 32 35 34 35 39 38 40 40 39 37 33 29 22 18 18 19 21 22 22 24 24 26 28 27 27 29 28 27 27 27 27 29 25 22 22 22 22 21
32 27 25 22 25 28 28 32 39 39 39 40 40 38 34 34 25 23 23 19 20 21 22 22 24 25 25 28 28 28 29 29 29 29 29 29 29 29 27 24 23 24 24 24

GFSCGP_sfc_30mbdewp_027.txt.gz
Dewpoint
23 17 11 14 12 8 11 12 13 17 22 31 34 36 38 41 43 43 44 45 46 48 52 54 56 58 58 58 58 58 57 57 53 50 47 46 46 48 47 42 42 40 40 40
19 16 19 25 21 18 18 17 18 24 27 31 33 35 39 40 42 43 44 45 47 51 52 54 55 57 56 57 58 57 56 51 49 47 47 48 48 46 41 40 40 40 40 39
18 20 25 25 23 21 22 20 20 21 28 30 30 29 36 40 42 44 45 46 50 52 52 53 54 55 56 55 55 56 53 47 46 48 48 47 44 41 38 38 38 39 39 38
25 27 23 23 23 23 22 25 22 22 21 18 25 15 30 39 41 44 45 48 49 50 51 52 51 47 44 43 45 47 49 46 47 46 45 45 43 43 43 40 38 38 39 39
24 24 23 22 23 26 26 25 23 22 21 21 23 20 27 39 40 42 44 44 45 48 46 45 41 41 41 42 43 43 44 43 44 45 45 44 43 41 39 38 39 39 39 39
26 28 27 26 28 26 30 28 29 29 26 16 23 21 22 35 38 40 41 42 43 43 41 40 41 41 41 43 44 45 44 44 44 43 44 43 41 40 38 38 38 39 39 40
25 26 27 28 27 27 28 26 20 19 22 19 27 26 23 29 35 40 40 40 42 42 41 41 40 41 42 43 44 44 43 41 42 42 42 41 41 41 39 39 38 38 38 38
19 19 23 26 26 24 26 27 21 13 20 23 26 25 26 33 33 40 40 40 42 41 42 42 42 42 43 42 41 41 41 40 40 40 40 41 40 39 39 39 39 39 38 38
21 21 26 26 27 27 25 20 28 25 25 21 23 27 29 34 34 38 39 40 40 41 42 42 42 42 41 40 41 40 39 39 39 40 40 40 39 39 38 37 38 38 38 37
25 20 24 25 28 28 26 28 21 22 10 10 17 23 23 31 32 37 38 39 39 40 41 41 41 41 40 39 39 38 37 36 38 40 39 38 36 34 35 36 36 37 38 38
24 23 23 26 25 25 26 24 25 25 23 10 9 12 29 31 34 35 37 38 39 39 40 40 39 39 36 35 34 35 33 33 36 37 36 32 31 33 34 34 35 35 35 32
28 25 23 22 27 30 26 24 24 14 15 23 20 14 26 31 35 36 37 37 38 39 39 39 38 35 33 32 32 30 30 33 34 29 27 29 32 33 31 31 31 32 31 33
27 25 21 21 22 25 25 27 25 24 26 20 17 9 27 33 33 35 36 37 38 37 37 36 35 34 33 32 32 28 31 32 27 24 24 27 31 31 31 31 31 31 32 34
29 25 20 14 15 23 21 27 25 22 18 17 20 17 20 30 32 34 36 37 37 36 36 35 34 32 32 32 31 27 26 27 25 22 24 29 32 33 32 32 31 32 34 36
27 21 24 25 26 25 20 22 26 23 21 15 15 19 20 23 31 34 36 37 36 35 34 33 33 32 32 32 28 24 23 23 24 24 24 30 34 34 32 31 32 33 35 35
31 24 25 24 28 27 23 22 22 26 25 23 23 22 26 28 33 34 36 36 35 34 33 31 32 33 32 30 25 22 21 21 23 23 24 32 34 32 31 32 33 33 34 33
28 25 21 14 24 21 15 19 22 23 24 24 20 21 31 31 32 33 35 36 35 34 33 31 32 31 30 25 22 20 19 21 22 23 27 31 32 30 31 31 30 29 33 32
25 21 18 14 16 3 11 26 25 23 23 24 24 26 30 32 35 36 36 36 36 35 33 31 31 29 25 21 20 19 19 20 21 24 29 30 30 30 30 29 27 28 32 30
27 22 17 11 14 12 9 15 21 24 15 26 26 28 33 35 36 35 37 37 36 35 33 31 31 23 22 19 18 19 20 21 26 27 28 29 30 29 28 27 26 27 29 31
27 23 18 18 7 2 7 18 30 28 20 26 29 31 33 35 28 26 37 37 36 35 32 26 20 20 18 19 20 20 21 23 24 26 27 29 29 29 27 27 26 25 29 27
31 29 22 18 15 16 19 24 29 16 12 26 33 33 35 32 32 34 37 36 34 29 21 18 18 18 19 21 22 22 23 24 25 27 28 28 29 28 27 26 24 24 25 26
22 23 23 22 19 12 24 30 23 24 29 29 35 34 34 34 35 35 35 33 25 18 18 19 19 20 22 24 24 23 24 26 27 28 28 28 28 27 26 26 24 24 25 24
22 26 22 23 18 24 26 31 32 32 30 31 35 36 37 36 36 34 29 21 18 19 18 19 19 22 24 25 25 24 26 28 27 27 28 27 28 27 26 25 24 23 23 23
30 30 26 25 24 26 28 29 30 32 32 34 36 37 38 37 37 27 22 21 21 22 19 20 22 21 23 25 27 29 28 27 28 28 28 27 27 27 28 27 24 22 23 23
29 31 29 28 28 29 29 32 33 34 35 36 38 39 39 38 33 25 26 23 21 21 22 22 21 23 24 25 28 28 28 29 28 28 28 29 28 28 28 28 24 23 24 24
32 28 25 23 26 27 28 31 36 37 38 39 40 38 37 33 26 23 25 27 22 22 23 22 24 25 24 27 28 28 28 28 28 27 28 28 29 29 29 28 26 24 24 24

GFSCGP_sfc_30mbdewp_030.txt.gz
Dewpoint
25 20 14 11 13 10 9 10 10 15 27 20 19 26 30 38 40 40 41 43 44 45 50 54 55 55 55 57 58 58 58 58 56 55 51 48 47 46 47 44 44 43 42 41
21 16 22 24 18 15 12 11 17 21 26 27 27 29 33 37 40 41 41 42 44 47 51 54 55 55 56 56 57 58 57 57 56 53 50 47 46 46 44 42 43 42 41 41
18 23 26 22 19 18 20 17 19 18 26 28 27 27 31 36 40 42 44 44 46 49 51 53 54 55 56 56 57 56 56 55 52 49 49 48 48 44 41 41 40 41 41 39
24 26 24 22 21 21 18 24 22 23 19 14 24 12 29 35 37 41 43 45 48 50 52 53 54 55 55 55 56 55 52 48 48 49 46 46 42 42 44 42 41 40 40 38
24 24 23 21 24 26 24 25 23 21 19 20 20 16 26 36 35 40 45 48 50 50 50 50 49 49 48 50 52 53 50 46 46 46 45 45 44 43 41 40 39 39 38 39
26 28 27 26 28 27 29 26 26 24 22 16 17 19 11 29 32 39 44 46 48 46 46 43 42 41 42 44 47 48 45 44 45 45 46 44 43 40 37 36 33 31 32 34
25 26 27 29 26 30 29 24 15 18 17 14 25 20 12 25 33 39 42 41 45 42 40 39 40 39 41 44 45 45 43 43 44 44 41 39 37 35 31 32 31 33 32 32
19 20 24 27 27 22 24 22 14 7 12 14 26 19 21 30 32 38 41 39 42 40 39 39 39 40 42 43 44 43 42 41 41 39 37 36 35 34 33 35 36 31 29 30
18 19 26 27 28 27 25 20 28 26 27 23 17 23 27 32 32 36 39 38 39 38 39 40 41 42 43 43 43 42 39 37 36 37 35 36 37 37 34 29 29 29 31 29
26 21 25 27 28 29 27 27 22 24 18 10 10 15 13 29 31 35 38 38 37 37 39 41 41 43 43 42 42 39 35 34 36 35 37 36 34 28 26 27 27 26 26 26
26 23 25 27 25 24 26 24 24 22 23 10 6 4 26 27 31 33 37 37 37 38 39 41 42 42 41 39 36 34 32 32 33 33 34 31 26 26 26 25 25 26 27 26
28 27 25 24 27 29 27 24 21 14 16 24 22 9 23 30 33 33 36 37 38 39 40 41 41 40 37 34 33 32 30 30 31 30 27 25 24 24 24 25 25 27 27 27
29 26 23 23 24 26 25 26 23 25 26 20 21 6 24 30 32 34 35 36 38 40 40 41 40 37 34 32 31 29 30 31 28 23 22 21 23 25 24 26 27 28 28 28
29 28 24 20 19 22 22 25 23 19 19 14 16 6 17 22 26 29 34 36 38 39 39 39 38 36 33 31 31 29 30 28 24 21 19 21 24 26 28 28 29 28 28 29
31 25 26 24 25 24 21 22 24 20 19 17 8 14 8 16 20 25 32 36 37 38 38 37 36 34 32 31 31 29 27 26 23 20 21 22 26 30 29 29 28 28 29 30
32 27 28 26 27 25 23 22 21 23 21 22 18 17 19 22 26 29 34 36 37 37 37 36 35 33 30 30 30 27 25 22 21 21 22 22 27 29 28 28 27 27 27 28
32 29 25 20 24 23 20 23 21 20 23 22 18 18 22 25 28 29 32 35 35 36 36 35 33 32 30 30 28 25 22 21 21 21 21 24 28 27 26 25 25 25 26 28
31 27 27 23 19 10 13 22 22 21 21 20 21 19 22 25 31 33 33 33 36 36 36 35 33 31 30 27 24 21 19 19 21 20 22 25 26 25 24 25 26 26 26 26
29 27 22 23 17 13 5 16 18 22 15 20 20 21 26 33 34 32 35 36 36 37 37 36 33 30 26 22 21 18 19 20 19 20 22 23 25 25 24 25 26 27 25 25
28 29 27 22 17 12 16 23 29 28 17 21 27 28 29 33 27 19 34 37 37 38 37 33 30 25 22 20 19 20 19 19 19 21 22 24 25 25 24 26 27 26 25 24
32 32 28 26 25 22 21 21 30 18 17 27 31 31 33 32 26 35 36 38 38 37 33 27 22 19 19 22 23 20 19 19 19 24 25 25 24 24 25 27 26 25 24 24
26 29 28 28 24 19 24 30 24 28 31 31 31 34 35 34 38 36 37 37 36 31 23 19 22 26 27 23 22 18 15 19 24 26 25 23 24 25 25 26 26 25 24 25
26 28 28 27 24 27 28 30 32 34 33 33 34 33 37 37 36 36 35 34 28 21 19 25 27 27 24 23 21 17 18 25 26 24 24 24 26 26 26 25 25 25 24 23
30 31 29 27 24 27 29 30 30 30 31 32 33 34 35 36 37 35 31 26 22 21 26 30 26 22 21 21 22 23 25 25 25 25 25 25 26 25 25 24 25 25 24 24
31 31 30 30 28 28 29 31 32 34 36 37 37 38 39 39 38 33 27 25 27 26 24 22 22 20 19 21 23 25 26 26 25 25 25 26 26 26 24 24 25 25 25 24
31 31 31 29 31 31 31 34 37 38 38 40 40 39 39 39 33 28 29 27 26 25 24 22 22 22 22 25 25 25 26 25 25 26 26 26 26 25 25 25 25 27 25 25

GFSCGP_sfc_30mbdewp_033.txt.gz
Dewpoint
27 22 18 15 16 20 15 11 6 10 17 12 12 11 20 29 31 33 37 40 41 43 46 50 48 46 49 54 56 57 58 58 57 55 53 52 51 48 48 46 46 46 45 44
22 19 21 19 16 13 11 8 13 15 17 18 10 12 24 28 30 31 34 38 41 43 47 50 51 52 52 55 56 57 58 58 55 54 52 50 48 47 46 45 45 44 43 43
23 29 24 20 13 11 11 12 14 13 18 19 19 17 24 31 34 36 36 37 39 42 46 50 51 53 55 55 56 57 57 57 54 51 49 48 48 47 44 44 43 43 43 41
25 25 20 19 15 15 15 21 17 18 18 14 21 11 19 28 32 37 39 40 40 42 47 50 52 54 55 56 57 56 55 53 51 48 46 45 42 41 42 42 42 42 41 40
24 22 19 18 21 22 23 22 21 19 15 20 17 11 28 28 27 33 36 40 43 46 48 50 52 54 54 54 53 52 51 48 47 47 46 46 43 45 44 43 43 42 41 40
24 26 25 24 25 24 25 23 23 21 16 15 12 14 13 24 25 30 37 41 44 47 49 49 49 49 48 51 52 51 46 45 46 46 46 45 45 43 40 38 35 31 30 30
19 22 26 26 24 26 23 20 16 17 14 13 19 16 12 16 27 29 39 43 46 47 46 43 42 40 43 47 49 49 44 44 45 46 45 45 42 38 34 32 30 32 30 29
18 19 23 25 24 21 21 17 17 11 8 9 21 11 15 25 29 33 40 42 45 44 42 39 38 38 41 44 44 43 43 43 44 44 40 37 33 32 31 33 32 28 28 29
16 19 25 26 26 22 20 19 23 20 28 18 8 11 25 29 30 32 38 40 42 41 39 37 38 39 41 43 44 43 43 42 42 38 35 35 34 34 31 29 28 27 28 25
21 18 22 26 27 27 25 24 18 18 17 11 6 6 14 24 25 31 36 38 40 39 38 38 38 40 42 43 44 44 42 39 37 34 34 35 35 31 27 27 27 27 26 26
21 18 24 25 23 19 25 21 19 20 21 14 6 8 15 19 24 29 33 37 38 39 38 39 40 42 43 43 44 42 38 34 33 33 35 34 30 27 27 26 26 25 26 26
26 21 21 23 26 27 25 22 22 17 14 18 23 11 18 21 23 29 31 35 38 38 37 39 41 42 43 43 41 38 34 31 33 33 31 32 28 25 25 25 24 26 27 26
28 19 18 22 24 25 20 20 21 19 23 16 18 12 20 22 22 25 27 32 36 37 37 39 41 42 42 41 38 35 32 31 32 32 29 25 24 25 25 23 25 27 27 25
30 22 21 19 19 21 22 19 20 20 18 15 13 11 13 18 20 20 26 28 33 36 38 39 41 41 40 38 36 34 31 32 34 27 26 21 23 26 24 25 27 27 26 26
31 24 22 22 24 22 20 18 20 18 17 14 15 7 3 7 12 16 20 26 29 35 38 39 40 40 39 37 35 32 31 33 29 31 22 21 24 25 25 27 28 27 26 27
31 25 28 28 26 24 22 21 18 17 16 14 13 13 14 19 16 20 22 26 28 33 37 38 39 39 38 36 34 31 31 30 31 26 22 23 22 23 25 26 27 25 24 25
32 28 26 18 23 23 21 24 21 18 17 18 17 17 14 20 21 22 23 28 29 32 35 37 38 38 37 34 33 31 31 31 25 21 22 22 21 24 24 24 23 23 24 26
33 30 31 23 22 12 11 18 17 19 18 16 15 15 15 17 25 27 28 27 29 31 33 36 37 37 36 34 32 30 28 24 22 22 21 19 22 23 23 22 22 24 25 25
29 28 27 26 16 13 11 10 15 16 13 17 17 17 18 25 30 28 30 28 28 29 33 36 37 36 34 32 29 26 25 20 22 21 19 19 20 21 22 22 22 24 25 25
28 29 24 24 23 18 22 21 24 24 16 21 20 20 21 25 24 24 30 30 32 34 35 36 37 35 32 28 25 23 23 25 22 18 19 20 20 22 22 22 23 25 25 24
33 33 29 27 27 25 22 22 27 18 24 27 26 25 26 26 30 36 34 33 34 35 36 37 34 31 27 25 27 31 28 23 19 18 21 21 22 22 22 23 24 25 24 24
28 32 30 32 31 21 23 26 22 30 26 26 29 28 32 33 33 37 35 35 36 36 35 32 28 24 26 33 31 27 20 15 21 24 23 22 20 20 22 24 25 25 24 25
27 29 29 27 26 27 25 24 27 29 30 30 30 31 32 32 33 33 35 35 35 33 26 24 27 32 33 30 26 18 17 26 24 22 22 22 23 24 25 24 24 23 24 24
29 31 28 27 22 23 25 27 29 30 31 33 34 34 35 35 36 36 36 33 29 24 25 33 34 32 29 23 20 21 23 24 24 23 23 23 24 24 25 25 24 22 25 27
31 30 27 29 27 27 27 32 35 37 38 38 38 39 40 39 38 38 32 27 26 29 29 30 30 27 23 21 22 23 24 26 23 22 24 25 26 26 25 24 23 24 26 28
31 31 32 30 33 35 34 38 40 39 38 38 39 38 35 36 33 30 29 29 33 32 29 29 31 28 23 23 26 26 24 24 25 25 25 27 27 26 26 25 24 26 26 27

GFSCGP_sfc_30mbdewp_036.txt.gz
Dewpoint
28 24 21 21 21 22 19 17 12 11 12 12 24 20 19 23 28 35 38 40 40 40 42 44 44 44 47 56 57 58 59 59 58 57 54 53 53 51 50 49 48 48 48 46
28 19 28 27 22 21 18 15 18 12 12 11 12 10 15 21 24 30 37 39 41 42 44 49 48 46 49 57 57 59 58 58 57 56 54 54 51 50 49 49 48 47 46 45
29 26 29 22 17 18 13 12 18 16 13 10 15 7 17 22 23 25 33 37 40 42 46 49 49 51 53 57 58 59 58 58 57 55 53 51 50 49 46 47 46 46 45 44
33 29 26 20 17 14 13 23 20 16 15 13 22 16 16 22 25 26 29 33 37 40 45 49 51 52 54 58 58 59 58 57 57 53 49 48 48 46 45 46 46 45 43 42
32 33 27 16 21 24 21 23 22 15 14 21 18 20 24 24 27 30 35 36 37 39 43 47 51 53 56 58 58 58 58 56 54 49 48 49 47 47 46 46 45 45 45 43
28 34 35 27 25 24 26 23 20 19 17 22 25 24 22 25 27 31 33 37 39 41 46 48 51 54 55 57 57 58 56 50 49 48 48 47 47 44 44 43 42 39 36 35
17 21 26 26 26 22 19 17 18 24 26 17 15 15 22 27 31 42 35 36 40 45 46 48 50 52 53 54 54 51 47 46 48 47 47 48 46 41 37 35 34 34 33 32
15 22 22 23 20 29 29 13 18 21 27 22 19 14 17 25 26 30 37 41 44 46 48 48 48 47 48 50 51 49 46 45 46 47 46 44 39 36 33 37 35 32 31 32
27 26 28 25 21 21 17 17 20 21 27 20 14 6 27 26 26 28 38 41 43 44 45 44 42 43 45 47 48 47 44 44 46 45 41 38 36 35 35 36 32 31 31 28
34 31 32 25 24 23 22 21 20 16 13 14 10 9 25 24 23 28 36 39 42 43 43 40 39 41 43 45 46 46 45 44 45 40 39 37 38 36 35 30 30 29 28 28
29 32 26 25 22 13 23 20 18 15 21 19 16 13 14 17 21 26 31 39 40 42 41 39 39 40 43 45 46 46 45 43 40 37 37 37 36 33 30 30 29 27 28 28
21 21 20 22 23 24 22 23 20 22 16 19 23 21 17 18 19 26 28 34 39 41 40 39 39 41 42 44 45 45 44 40 37 36 38 36 33 33 31 29 28 28 28 29
28 22 18 17 23 25 22 18 17 21 25 22 20 18 20 19 19 20 24 29 36 39 39 39 40 41 43 44 44 44 42 37 35 35 34 33 34 28 27 29 27 28 28 28
32 23 16 19 18 22 22 22 17 18 23 21 17 12 14 16 19 18 23 25 29 36 38 38 39 41 43 43 44 42 39 35 34 33 33 30 28 28 28 27 27 29 29 28
30 19 18 17 20 23 23 20 18 16 19 19 20 14 12 12 17 16 18 22 25 27 35 36 38 42 43 43 42 40 36 34 35 34 30 30 28 26 27 27 29 30 29 28
31 27 27 26 26 24 23 20 21 19 16 15 14 13 14 17 22 21 20 20 22 25 28 36 38 40 42 42 40 38 35 35 32 33 31 28 26 24 25 27 29 29 28 27
31 32 29 26 25 22 17 22 23 21 18 17 15 19 18 16 16 21 22 23 26 28 29 34 37 39 40 41 39 37 34 32 34 30 29 25 24 23 25 25 25 25 25 28
33 33 32 26 24 13 14 18 15 17 15 14 14 17 17 24 25 24 24 26 27 29 29 30 34 38 39 39 37 35 32 34 29 26 26 25 21 23 24 25 25 25 26 28
32 33 31 26 21 17 17 13 15 15 15 18 18 19 18 20 25 27 27 28 27 28 28 31 34 37 38 36 33 32 30 26 26 25 24 21 21 24 27 25 24 26 26 27
27 31 27 27 24 16 24 21 22 21 18 24 24 23 23 23 24 31 33 31 31 31 32 33 35 37 36 32 31 27 25 26 26 26 25 23 24 25 24 24 25 26 27 27
33 33 29 29 28 28 23 23 25 20 28 27 29 28 28 30 33 36 36 34 33 34 36 36 35 32 30 31 30 31 33 33 31 26 26 28 30 26 24 24 25 25 26 27
32 34 32 34 33 24 23 25 23 32 29 29 29 30 32 33 33 34 34 35 35 34 34 31 32 33 33 33 32 32 29 24 28 28 28 26 26 24 22 25 26 27 27 27
27 31 33 32 31 30 24 25 26 29 29 31 33 33 34 35 35 35 36 36 34 28 29 32 33 33 32 32 29 26 24 26 25 27 28 26 26 25 25 26 26 27 26 26
28 31 30 28 22 24 25 27 32 35 36 36 37 38 39 39 39 38 35 30 30 32 33 33 32 31 29 27 25 26 26 28 28 28 27 25 25 26 27 27 26 26 27 26
33 30 27 27 28 30 35 38 40 39 40 39 39 37 35 37 33 29 29 30 31 31 30 30 29 29 27 27 27 25 25 28 28 25 25 26 27 28 28 27 26 26 26 27
32 31 32 34 36 37 38 37 37 36 36 35 34 32 31 31 32 32 32 31 31 32 32 32 31 29 27 24 25 27 27 25 25 26 27 28 29 29 28 28 27 27 27 26

GFSCGP_sfc_30mbdewp_039.txt.gz
Dewpoint
35 27 26 27 25 23 23 22 19 18 17 28 25 22 25 28 35 37 36 36 36 37 40 43 44 50 52 55 56 59 57 58 57 57 57 55 54 53 51 50 48 48 48 47
32 30 30 28 25 24 26 25 18 18 13 22 24 22 24 24 28 37 38 39 37 41 41 43 44 51 53 55 59 59 58 58 57 57 56 54 52 50 49 48 49 48 46 46
30 30 30 26 25 23 24 21 19 18 14 11 16 19 19 22 26 33 39 41 41 43 44 46 46 53 56 56 58 58 58 57 56 57 55 53 50 50 48 48 47 45 45 44
30 32 32 29 26 21 19 21 22 23 19 13 21 16 20 21 22 25 37 40 42 42 49 48 48 53 56 58 58 59 58 57 56 57 52 49 48 47 46 46 46 45 42 41
28 29 30 28 27 24 22 24 23 23 20 20 20 19 22 21 25 25 28 35 41 43 49 49 50 52 58 58 59 59 59 58 57 57 50 48 48 47 48 47 45 44 42 42
29 34 34 28 27 25 25 24 24 29 25 19 17 19 23 22 22 28 30 36 37 41 49 50 51 56 58 59 59 58 57 57 57 52 50 48 48 45 45 45 45 45 44 38
26 25 29 33 26 26 27 22 21 19 21 21 26 24 22 26 26 28 31 34 39 45 48 51 54 55 56 56 56 57 57 55 51 48 49 48 46 44 43 42 37 35 33 35
20 25 27 28 29 28 23 25 23 17 21 23 27 22 23 27 29 33 33 35 42 46 48 52 53 54 55 55 56 57 55 48 48 48 47 43 37 35 37 35 34 32 33 32
24 25 34 31 33 26 22 21 25 27 31 26 24 17 26 27 32 36 37 39 45 47 48 50 51 52 54 54 52 48 47 47 47 47 43 37 37 36 36 35 32 33 31 31
31 24 32 30 32 26 23 23 21 22 16 17 17 16 24 26 29 36 40 43 45 46 47 46 46 48 49 49 50 48 46 46 47 43 37 36 36 35 36 32 31 31 30 29
33 27 30 33 30 23 23 21 20 20 23 18 18 13 20 23 27 30 40 42 44 44 45 43 42 45 46 47 47 47 46 46 43 39 37 38 36 35 31 31 32 30 30 29
30 30 29 28 31 25 23 26 27 19 17 22 22 19 18 19 25 27 30 41 43 44 43 41 40 43 44 45 46 46 46 43 39 38 38 36 34 33 31 32 31 29 29 30
30 24 23 20 25 27 22 22 20 24 27 21 18 16 20 18 18 26 27 33 41 43 42 40 39 41 44 45 46 46 44 39 37 38 36 34 34 32 32 32 33 30 30 29
32 26 21 16 17 24 23 25 22 21 20 20 20 20 17 19 20 21 23 26 38 41 41 40 40 41 43 45 46 45 43 38 37 34 33 33 33 31 31 31 30 30 30 28
30 22 20 19 23 25 23 23 24 19 22 18 19 20 20 19 19 21 25 26 25 30 37 40 40 42 44 45 45 45 42 38 34 34 33 32 33 33 33 33 31 31 29 28
31 25 25 25 27 25 22 24 23 22 22 20 20 20 20 22 22 21 21 22 25 28 30 39 44 44 45 45 45 43 38 36 34 32 32 34 35 35 29 29 29 29 29 28
31 30 29 25 24 21 20 21 21 23 24 22 18 21 25 23 23 24 25 27 27 29 29 33 38 43 44 44 43 39 36 35 35 32 32 32 30 28 28 27 26 26 25 27
34 33 30 25 24 17 20 18 17 17 19 19 19 20 24 24 29 29 28 27 28 28 30 31 33 39 41 41 37 35 35 35 30 30 31 32 31 27 27 26 27 27 28 27
37 33 31 23 19 22 19 18 18 17 21 24 24 24 26 26 29 34 34 32 31 31 32 34 38 36 34 33 34 31 29 28 28 28 26 27 28 28 28 27 28 28 26 27
32 35 24 32 20 13 22 20 23 21 23 28 28 28 30 32 30 34 34 34 36 33 32 31 31 31 30 31 32 33 32 31 29 29 29 30 29 28 28 31 29 28 28 27
29 31 25 25 19 24 28 24 25 15 25 30 30 31 31 30 35 37 35 36 32 32 33 33 32 32 33 32 31 32 29 28 29 30 30 28 30 30 31 29 28 26 26 26
28 27 26 33 28 20 24 25 21 32 31 31 32 34 34 36 38 37 35 29 31 33 32 32 32 31 31 30 29 28 27 28 27 28 29 29 30 29 28 26 26 27 27 26
28 33 30 32 30 33 27 30 36 36 36 37 38 40 40 39 39 31 32 33 33 33 33 33 31 28 26 24 25 26 28 26 27 28 29 29 28 27 27 26 26 27 26 26
32 33 31 28 31 29 38 39 39 40 39 36 34 36 36 31 31 31 31 31 31 30 30 30 28 28 27 27 27 27 28 28 28 28 28 28 27 26 27 28 28 27 26 26
33 30 29 28 38 39 38 39 38 37 35 33 32 32 31 32 32 32 31 30 30 29 30 30 30 29 28 28 27 26 27 28 28 28 28 26 27 27 28 29 28 27 27 26
33 32 28 32 38 37 36 37 36 35 34 33 33 32 33 32 31 31 30 31 32 33 32 31 30 29 27 26 26 26 27 27 27 26 26 26 27 28 28 28 28 29 28 28

GFSCGP_sfc_30mbdewp_042.txt.gz
Dewpoint
35 29 27 28 26 24 25 22 21 24 26 29 28 23 27 36 44 47 47 43 45 49 51 51 50 51 52 52 56 58 56 56 56 55 54 54 54 53 53 52 50 48 49 49
31 28 31 32 27 26 25 24 23 22 21 28 26 23 25 29 39 42 44 40 41 45 46 47 48 50 51 54 57 57 56 56 56 55 55 54 54 52 51 50 48 48 48 47
26 28 31 30 27 24 24 24 23 21 20 16 25 21 21 25 28 38 39 39 39 41 43 44 48 50 52 56 58 57 57 56 56 56 55 53 51 50 49 48 48 48 47 44
29 31 31 29 28 27 22 24 25 21 22 17 19 14 20 22 23 34 39 38 38 40 43 44 50 50 53 57 58 58 57 56 56 56 55 52 49 48 48 47 47 46 45 43
24 29 28 27 27 27 24 24 24 23 23 21 20 16 19 23 21 23 36 40 40 42 44 46 51 52 54 58 58 58 58 57 55 56 54 51 49 49 47 47 46 44 42 42
27 34 31 27 28 27 27 26 27 30 26 18 22 22 19 21 20 23 27 37 41 43 45 46 52 55 56 58 58 58 58 57 57 56 53 51 49 48 47 46 45 43 44 39
26 28 31 31 27 27 26 24 20 18 18 17 27 24 22 23 25 24 29 34 38 43 49 50 54 56 57 58 58 58 58 57 57 56 52 50 49 47 47 46 45 43 37 35
22 21 27 31 29 27 27 24 19 15 16 20 28 22 24 27 28 28 30 32 40 42 49 51 54 56 57 58 58 58 57 56 55 52 50 49 46 45 44 42 40 37 35 33
23 26 33 32 32 29 25 22 26 26 30 24 25 22 25 29 31 33 36 37 44 47 51 52 54 55 56 56 57 57 57 53 50 49 44 41 41 40 37 35 36 35 34 32
26 25 29 31 31 29 26 24 21 24 15 18 18 19 23 25 28 35 36 37 45 48 50 52 53 54 55 55 54 54 54 50 49 45 41 39 39 39 37 37 35 33 32 32
31 24 24 31 25 22 24 21 21 23 22 17 18 13 19 27 31 35 36 39 45 47 48 50 51 52 53 53 50 48 48 48 46 40 39 39 40 39 37 36 33 32 32 32
30 28 22 22 28 31 29 25 24 18 16 23 20 17 23 26 29 37 39 42 45 47 47 47 49 50 50 50 48 46 46 47 43 39 37 38 38 35 34 33 32 33 32 33
31 28 23 23 25 29 27 24 26 28 26 20 18 18 22 19 22 28 34 41 44 45 45 44 45 47 48 48 48 47 46 44 40 38 37 36 34 32 33 34 34 33 31 31
29 26 22 17 19 24 24 25 27 23 20 21 21 20 21 20 19 22 27 30 41 44 44 43 41 44 46 46 47 46 44 41 40 38 36 35 34 33 33 33 32 31 31 29
27 23 22 21 23 25 24 24 25 22 22 19 17 20 19 20 21 21 23 26 35 39 41 42 41 41 44 45 47 46 43 41 39 37 36 37 35 34 34 34 32 32 30 29
31 21 24 21 27 24 23 23 23 23 22 24 22 21 24 23 24 24 24 26 28 30 39 41 41 42 44 46 46 46 43 40 38 37 36 37 36 32 30 30 31 31 30 29
29 27 25 19 24 22 20 21 21 22 24 23 20 22 25 25 25 25 28 29 29 30 32 39 43 44 46 46 47 44 39 38 36 35 36 33 31 30 31 30 29 28 27 27
31 30 28 23 22 20 23 23 22 21 21 22 23 25 28 30 32 31 30 30 30 32 36 38 40 41 42 39 39 38 37 34 33 34 33 30 30 30 31 32 30 32 29 28
35 32 28 24 21 23 22 17 18 18 23 25 26 28 29 33 34 33 36 35 35 34 32 32 32 32 33 34 33 30 29 29 29 29 30 32 31 32 33 35 35 33 31 28
34 33 29 29 21 19 21 22 24 25 23 29 29 31 29 31 30 34 35 33 32 32 32 32 32 32 32 31 31 31 30 30 31 33 34 34 35 36 35 33 31 30 30 28
29 30 28 26 22 17 24 24 26 14 17 30 31 31 31 32 35 34 33 33 32 32 32 31 30 29 30 30 30 29 30 31 32 33 35 37 34 32 31 30 29 27 27 27
25 28 28 28 20 18 30 25 20 26 33 33 34 36 39 35 31 32 33 32 32 31 31 30 30 29 29 28 28 28 30 31 33 34 31 30 29 29 28 28 27 27 27 27
26 25 25 28 25 32 32 31 34 36 36 39 39 40 39 32 32 33 33 33 32 31 29 26 25 26 27 27 28 29 29 28 28 28 28 28 28 28 28 27 26 26 27 27
32 37 32 32 35 37 39 40 40 38 36 36 37 36 33 32 32 31 31 30 30 30 29 29 28 28 27 27 28 27 28 29 28 27 27 28 28 26 27 27 27 28 27 26
32 32 31 37 38 38 38 37 34 33 33 33 33 33 32 32 31 30 30 30 30 30 30 30 29 28 27 27 26 27 27 27 26 27 27 27 26 26 26 27 28 28 28 27
33 30 28 31 37 35 37 36 35 34 33 33 32 32 32 31 30 31 31 32 32 31 30 29 28 26 26 26 27 27 28 29 28 27 27 27 27 26 26 27 27 28 28 29

GFSCGP_sfc_30mbdewp_045.txt.gz
Dewpoint
35 29 25 27 28 25 25 23 22 23 24 30 29 27 29 38 47 48 50 51 54 54 56 56 57 56 56 55 55 58 57 57 57 56 55 54 53 54 53 52 50 50 48 49
30 27 29 31 30 27 25 22 21 22 23 30 29 27 25 36 40 46 49 48 49 53 54 55 55 55 54 53 56 57 57 56 56 55 54 54 53 53 52 51 50 48 49 48
27 26 31 30 27 25 24 23 22 22 23 27 24 24 23 25 36 45 47 47 46 50 52 54 51 52 52 53 55 56 56 56 56 55 54 53 51 51 50 49 47 48 48 48
28 30 31 29 27 27 23 25 24 24 23 18 22 17 21 22 28 39 45 44 43 46 50 52 50 50 51 52 55 56 56 56 56 55 54 52 50 49 49 48 47 48 47 44
23 28 28 27 26 28 24 26 25 24 23 21 21 17 17 23 23 29 38 42 41 43 46 48 48 49 51 53 56 56 57 56 56 55 55 53 51 49 48 47 47 46 45 43
26 34 30 27 27 28 27 25 26 29 25 19 21 21 19 20 21 24 31 40 39 41 44 45 48 50 51 55 57 57 57 56 55 55 55 54 52 49 47 46 46 44 42 41
26 27 31 33 27 28 26 24 20 17 19 17 25 24 22 23 23 23 24 33 40 41 44 46 49 50 53 56 57 57 57 57 57 55 55 54 52 49 48 47 46 43 38 36
22 19 27 30 28 25 26 24 20 14 15 16 28 21 21 27 30 29 28 31 39 43 46 48 51 53 55 56 57 57 57 57 57 57 55 53 51 49 48 47 45 41 37 35
21 21 32 32 31 28 26 23 25 25 29 23 22 24 24 27 33 34 33 33 37 42 47 49 52 55 56 56 57 57 58 58 57 56 54 51 48 46 44 43 42 39 36 35
24 19 29 31 32 30 27 26 21 24 15 14 19 19 20 25 24 34 36 36 42 45 49 51 53 55 57 57 57 57 57 56 54 51 48 48 46 42 41 41 38 35 36 38
28 21 22 30 27 23 24 23 22 23 21 15 16 17 18 26 26 29 34 37 45 47 50 51 53 54 56 56 56 57 56 53 51 46 43 43 42 40 40 38 37 37 37 34
28 23 18 21 28 30 26 24 22 18 17 24 22 18 22 23 28 33 33 39 45 47 48 51 52 53 54 54 54 54 53 51 48 43 42 42 41 40 39 37 36 35 34 37
30 25 18 19 24 30 25 27 29 27 25 20 16 17 22 21 20 28 34 38 43 46 47 48 50 51 52 53 52 51 50 50 45 43 42 42 41 38 38 36 35 37 38 35
29 28 20 17 18 24 24 25 26 26 22 21 21 20 21 20 21 20 25 30 38 44 46 46 47 49 51 51 50 48 48 46 42 41 40 40 38 38 38 37 36 34 33 30
27 22 24 23 21 24 23 24 27 23 23 20 20 22 23 22 20 21 22 28 36 41 44 44 44 44 47 48 48 47 46 43 41 40 40 39 37 36 35 34 33 33 31 30
29 23 22 22 26 25 24 24 24 25 23 23 23 22 24 24 26 26 27 29 32 36 40 41 43 43 43 46 47 46 43 43 42 41 39 37 36 34 34 34 32 30 30 29
27 25 22 19 24 22 21 23 23 23 24 23 20 21 24 25 26 28 29 30 31 33 36 39 44 45 45 47 46 43 41 40 39 38 37 34 33 33 33 33 34 34 36 37
28 26 25 19 22 16 21 26 23 22 22 22 23 24 27 29 32 33 33 32 35 35 35 35 37 39 40 40 39 38 37 36 34 32 32 33 33 33 33 34 37 37 37 35
33 29 25 21 21 22 23 22 21 18 21 25 26 30 33 34 33 34 33 33 32 32 32 32 32 32 31 32 32 31 31 31 32 32 32 33 35 35 37 37 38 37 33 30
32 32 25 24 22 22 24 24 23 25 19 27 29 30 32 32 25 32 33 32 32 32 32 32 31 30 30 30 31 31 31 32 31 32 33 34 36 39 38 37 32 31 30 29
31 30 29 26 24 24 24 25 25 15 14 28 31 31 31 29 32 34 32 32 31 31 29 29 29 29 30 31 31 31 33 34 35 38 40 39 36 33 32 30 29 28 27 27
28 30 29 26 24 25 26 26 19 22 32 32 33 35 34 34 33 32 32 31 30 29 29 29 29 29 29 30 31 32 33 35 35 32 30 29 29 28 28 27 27 27 27 26
26 29 29 29 28 29 34 29 33 33 32 35 37 37 34 33 33 32 32 31 29 27 26 26 27 27 28 28 28 27 28 28 28 28 27 27 28 28 28 27 26 26 26 26
32 33 27 30 34 36 38 37 37 38 37 39 40 34 34 33 33 32 31 30 29 28 27 28 27 27 27 27 27 28 28 28 27 26 27 27 27 27 27 27 26 26 26 26
32 34 34 35 37 38 37 35 35 35 35 35 34 34 33 32 31 30 30 29 30 30 29 29 28 27 26 27 27 28 29 29 28 28 28 28 28 27 27 27 27 27 28 28
33 33 31 30 36 33 36 35 35 34 33 33 33 32 31 31 30 30 31 31 30 29 28 26 26 26 26 29 30 30 31 29 28 27 27 27 27 27 26 26 26 27 28 29

GFSCGP_sfc_30mbdewp_048.txt.gz
Dewpoint
34 29 25 26 28 25 24 23 21 24 26 29 30 30 31 46 49 50 53 53 54 55 55 57 57 57 55 55 56 56 57 57 56 56 56 56 56 55 54 52 51 50 49 47
30 28 28 29 31 29 25 23 22 23 24 26 27 28 27 39 48 48 52 53 54 55 55 56 57 57 55 55 55 56 57 56 56 57 55 55 54 54 54 52 50 49 48 48
27 26 31 31 28 25 24 23 22 22 24 27 25 23 25 27 39 46 48 51 52 53 54 55 55 56 56 55 55 56 57 56 56 56 54 53 52 52 51 50 49 48 49 48
29 29 29 30 27 26 23 25 24 23 22 19 23 17 19 23 31 38 44 48 49 50 53 54 54 55 55 54 54 56 56 56 56 55 54 52 52 50 51 50 48 48 48 47
24 28 29 27 27 27 24 26 25 25 23 22 21 18 18 23 22 27 39 46 47 47 50 53 54 53 54 54 54 56 56 56 56 55 54 52 51 51 50 48 48 48 46 44
26 33 30 27 28 28 27 26 26 28 24 19 20 19 19 19 20 22 28 41 46 45 47 50 53 52 52 53 54 55 56 56 56 55 54 53 52 51 49 48 46 46 44 43
26 27 30 32 28 28 26 23 19 17 18 17 25 24 23 23 25 25 25 32 41 43 44 48 49 49 50 52 54 55 56 56 56 55 55 54 53 52 50 48 46 44 41 39
20 18 26 30 27 24 25 23 20 15 15 15 26 20 19 26 32 33 30 27 38 40 42 45 47 49 50 53 55 56 56 56 56 56 55 55 54 53 51 49 46 43 39 37
22 21 30 31 31 27 26 23 25 24 28 24 21 23 21 27 30 34 33 33 35 39 41 44 47 49 51 54 55 56 56 56 57 57 56 55 54 53 50 49 45 40 38 37
22 18 30 30 32 30 26 27 22 23 17 15 17 19 17 21 25 33 34 34 38 41 44 45 49 52 53 54 55 56 57 56 57 57 56 54 52 51 49 46 44 40 38 37
26 19 21 30 26 24 26 24 23 23 20 15 15 16 19 20 26 25 32 36 39 44 44 48 50 54 55 55 56 56 56 57 56 54 53 52 50 48 47 46 45 42 39 41
26 22 16 18 27 29 26 24 23 20 18 24 21 17 23 20 23 28 30 36 41 46 47 49 51 53 54 55 56 56 56 56 55 51 49 48 46 46 46 44 41 40 40 37
27 21 15 16 23 29 27 27 27 26 24 21 19 19 22 22 21 23 28 34 40 45 47 49 51 52 53 54 55 55 56 54 50 48 46 46 45 44 41 39 39 37 37 38
27 25 16 14 15 22 25 25 28 26 23 23 22 21 22 22 21 21 21 24 33 42 46 47 48 50 52 52 53 52 52 50 47 46 46 44 43 41 39 38 37 37 36 35
26 20 24 22 21 23 23 25 26 25 24 22 22 22 22 23 22 22 23 30 33 38 43 45 46 46 49 50 50 48 48 46 45 44 42 42 41 39 37 35 35 36 35 32
29 23 22 22 25 25 24 24 27 25 24 24 23 22 24 25 27 27 29 34 37 39 40 43 43 43 45 48 48 46 45 43 43 42 40 38 37 36 35 33 32 32 32 34
27 25 22 20 25 23 21 23 23 23 25 24 22 23 24 25 26 28 30 33 36 37 38 40 40 42 45 46 44 43 41 41 39 38 36 35 34 33 33 33 34 36 38 40
27 24 23 20 22 18 21 26 25 24 24 24 23 24 24 27 33 33 34 35 33 33 34 35 36 37 38 38 37 37 36 35 34 34 33 33 34 35 36 37 38 39 39 38
33 26 23 20 20 21 21 22 22 20 18 24 23 28 30 34 33 32 32 32 32 32 32 31 31 31 31 32 33 33 32 33 32 32 34 36 36 37 37 38 38 39 38 35
31 29 23 23 19 17 20 24 24 22 17 26 28 31 32 33 22 31 32 32 31 31 31 30 30 31 31 32 32 31 31 32 33 34 35 37 39 40 39 38 36 32 30 29
30 28 22 22 21 24 27 24 24 17 17 27 31 32 32 29 29 33 32 31 30 29 30 30 30 30 31 32 34 34 35 35 38 39 38 34 33 32 31 30 29 28 27 27
29 28 28 26 25 25 26 25 20 22 27 29 32 33 33 33 32 31 30 29 29 28 29 29 29 30 31 32 33 33 33 33 31 30 28 28 28 28 28 27 27 27 26 26
28 30 28 29 27 30 29 26 28 29 30 32 33 35 34 33 32 31 29 28 27 27 27 28 28 28 28 28 28 28 28 28 27 27 27 28 28 28 27 27 27 27 26 26
30 32 28 29 31 33 37 37 37 36 34 37 36 34 34 33 32 30 28 27 26 27 27 27 27 27 27 28 29 29 29 28 28 28 27 27 25 25 25 26 26 26 26 26
31 32 31 31 36 37 37 36 35 36 37 36 34 34 33 32 31 29 28 28 28 28 28 27 27 27 29 30 30 29 27 26 25 24 25 25 24 24 24 24 24 24 25 26
34 31 28 24 31 29 31 35 36 36 35 34 33 32 32 31 30 29 29 29 29 27 27 26 27 29 27 25 24 25 24 23 22 23 24 24 23 23 22 22 21 21 21 22

GFSCGP_sfc_30mbdewp_051.txt.gz
Dewpoint
34 29 25 26 27 25 24 23 20 22 28 26 28 30 32 50 51 50 50 51 53 53 54 53 53 54 53 54 55 56 58 59 58 57 56 56 56 58 58 57 56 54 51 50
30 28 29 29 30 28 26 24 23 24 25 26 26 25 29 45 49 49 50 50 51 52 54 54 54 54 53 53 55 55 57 58 58 57 56 56 57 58 58 56 54 53 51 49
27 26 31 30 29 27 25 24 22 22 25 27 25 22 26 31 45 49 50 51 51 52 53 55 55 55 55 54 54 55 56 57 58 57 56 55 56 56 55 54 54 52 51 49
29 30 29 30 28 27 24 25 25 23 22 19 23 17 21 25 31 41 48 49 51 52 54 55 56 56 56 56 55 55 56 57 58 57 55 54 54 55 55 54 53 51 50 49
24 28 29 28 28 28 24 26 26 25 24 23 21 19 20 23 22 28 38 47 48 50 52 53 55 55 57 57 56 56 57 57 57 57 56 55 55 55 54 53 52 51 50 48
26 32 30 28 28 28 28 27 26 27 25 21 21 19 19 20 21 23 26 36 45 48 49 52 54 55 55 57 56 57 56 56 57 57 56 55 54 54 53 52 51 50 48 48
27 28 31 31 28 28 27 24 20 19 21 19 26 24 23 24 26 27 29 29 38 47 48 49 52 54 54 55 55 56 56 56 57 56 56 55 55 54 52 52 51 48 47 45
19 16 27 31 28 25 26 24 20 16 16 17 26 19 17 26 28 34 35 32 31 44 47 48 50 52 53 54 55 55 55 56 56 56 56 56 56 55 53 53 51 48 47 45
22 20 27 31 31 27 26 24 26 24 28 24 21 22 22 25 28 34 34 33 32 38 43 45 48 51 52 52 54 55 55 55 56 56 56 56 56 55 55 54 52 49 46 42
24 18 29 30 32 31 27 28 23 24 18 17 18 19 15 19 25 27 32 34 35 39 42 43 46 48 51 52 54 55 56 55 56 56 56 56 56 56 55 54 51 47 44 41
25 20 22 30 28 26 27 25 25 24 22 17 16 17 22 19 25 26 31 35 37 40 42 45 47 49 51 53 54 55 55 55 56 56 57 57 55 55 54 51 49 46 43 40
26 22 18 21 27 28 27 26 25 22 20 24 22 18 22 23 22 25 29 34 38 43 45 47 49 51 53 53 54 54 55 55 56 56 56 55 53 52 51 49 47 44 41 41
27 21 16 16 23 30 27 26 26 26 25 22 20 19 23 24 23 22 24 30 38 43 47 49 51 52 53 54 55 55 56 56 56 54 52 51 50 49 49 46 44 43 42 40
25 23 18 16 16 22 25 26 28 25 23 23 23 22 23 25 24 23 24 25 26 37 45 48 49 51 52 54 54 55 55 53 50 49 49 48 47 46 44 42 41 40 40 39
24 19 22 19 18 22 21 23 28 26 25 23 23 23 24 24 24 24 26 32 36 41 43 45 46 48 51 52 52 51 50 49 49 47 45 45 44 41 40 38 38 39 38 38
29 21 24 21 24 23 21 24 26 27 25 25 24 23 25 25 26 27 32 38 39 41 42 43 44 45 48 49 48 47 46 45 45 44 41 39 38 36 35 35 34 33 37 36
28 25 23 20 25 23 22 24 25 26 27 26 23 25 26 25 26 30 34 37 37 38 39 40 41 42 44 44 44 43 42 41 39 38 36 35 34 33 34 36 38 38 38 39
29 26 25 21 23 19 22 26 25 24 24 25 25 24 25 27 32 33 35 35 34 35 36 36 37 38 39 39 39 38 37 36 35 34 34 35 36 37 39 39 39 40 40 39
31 27 23 21 21 22 21 22 23 21 19 23 24 25 29 33 33 32 33 33 33 33 33 33 34 35 35 35 35 35 34 34 34 36 37 38 38 39 39 39 39 39 38 37
31 29 26 23 20 19 22 23 25 22 18 23 24 27 31 33 27 31 32 32 32 32 32 32 33 34 33 33 33 33 34 35 35 37 39 40 39 37 35 35 33 32 31 29
28 27 24 23 21 22 25 25 24 19 21 24 28 31 33 30 31 34 32 31 31 31 31 32 32 32 33 34 35 35 36 38 37 34 32 30 29 29 29 29 29 28 27 28
28 26 24 24 22 21 28 24 21 26 26 28 32 34 34 33 33 32 31 30 30 30 30 31 32 33 34 35 33 31 30 30 29 28 28 28 29 28 28 28 28 27 27 27
29 29 26 26 25 32 28 27 28 28 27 30 33 35 34 33 32 30 30 29 28 28 29 30 30 29 29 28 28 27 27 27 28 28 27 26 25 23 22 20 20 18 18 19
32 33 29 29 30 31 31 34 36 34 31 33 35 35 34 33 31 29 28 27 28 28 28 28 27 27 28 29 29 29 29 28 26 24 23 20 18 17 17 16 17 16 18 18
32 33 31 30 31 36 36 37 36 36 38 36 36 35 34 32 30 28 27 27 27 27 27 26 27 28 28 26 24 23 23 23 21 20 18 16 16 16 15 16 17 17 18 20
34 31 29 28 30 30 30 36 37 36 36 35 34 33 33 31 29 28 28 28 27 27 27 28 27 25 23 22 22 21 20 18 16 14 14 16 16 16 16 15 14 18 17 17

GFSCGP_sfc_30mbdewp_054.txt.gz
Dewpoint
31 25 21 18 23 23 21 20 16 21 27 25 23 24 25 42 46 44 47 49 51 51 52 52 52 52 51 51 52 52 53 55 57 56 54 53 51 53 55 57 59 58 57 58
29 22 25 28 28 28 25 20 17 22 26 25 21 20 26 36 43 45 44 46 47 50 51 50 51 51 50 50 52 53 53 55 57 55 54 51 49 51 55 58 59 58 56 55
22 25 30 28 27 27 25 21 19 19 23 23 22 18 24 31 40 43 46 45 45 47 50 51 49 51 52 50 52 54 55 56 57 56 55 52 53 54 56 57 58 57 56 53
24 26 28 27 26 25 20 24 24 23 21 16 22 16 18 24 31 38 42 46 46 43 47 51 52 51 50 51 51 51 52 53 56 57 54 51 49 49 53 56 58 56 55 53
23 27 28 26 26 27 22 27 25 24 21 21 20 17 16 22 21 25 34 41 45 46 45 48 52 53 53 52 52 52 52 53 55 57 57 54 51 49 52 58 57 55 54 54
22 29 28 25 28 28 28 27 26 26 23 18 18 18 15 16 19 22 24 31 40 44 47 46 49 53 54 55 55 55 54 53 55 56 58 57 55 54 55 56 56 56 54 53
23 24 27 29 25 29 27 24 20 20 19 18 23 20 17 19 23 25 27 30 30 39 45 47 47 50 53 54 57 58 57 55 55 56 57 58 58 57 56 55 55 55 53 51
19 17 23 27 24 23 25 23 21 17 18 17 23 18 16 24 26 27 33 34 33 33 39 45 47 49 51 53 57 58 57 56 56 57 58 58 58 58 57 56 55 55 52 51
17 15 24 28 29 26 26 23 25 24 28 23 18 18 18 23 25 28 30 34 31 32 37 41 44 47 50 52 55 57 56 56 55 57 58 58 58 58 57 56 56 54 52 51
21 16 26 30 31 30 27 26 22 23 19 17 16 15 11 19 17 22 24 27 35 37 37 39 42 46 49 52 53 56 57 56 56 57 58 58 58 58 57 57 56 53 50 47
21 19 26 30 28 23 27 25 25 23 22 17 15 15 20 18 20 22 28 31 34 39 40 42 42 44 47 50 52 54 55 55 55 56 57 57 57 57 57 57 56 52 48 45
22 21 19 21 27 29 26 24 25 22 22 24 24 19 19 21 24 25 28 31 36 41 44 44 46 48 48 50 51 52 53 54 54 56 57 57 57 56 56 54 52 49 45 45
26 21 18 19 24 28 23 24 23 24 26 19 21 19 24 24 25 25 25 29 34 40 43 45 47 48 50 51 52 52 54 54 55 56 56 55 53 52 51 49 47 45 43 43
27 19 18 16 15 17 22 23 23 24 21 18 20 17 20 23 24 24 26 26 28 36 44 45 48 49 51 52 54 55 56 55 54 53 52 50 50 49 48 46 45 44 43 43
26 20 20 17 16 14 15 15 20 21 21 18 20 18 21 21 24 25 27 29 31 33 41 46 47 50 52 53 54 54 54 52 50 49 48 47 46 44 44 44 44 42 41 40
29 21 24 21 20 19 16 17 17 20 19 22 22 21 25 27 27 27 29 33 36 40 42 44 46 49 50 51 50 50 50 49 47 45 43 41 41 40 40 40 39 38 37 37
31 24 23 19 23 22 23 24 21 21 25 24 20 22 24 26 27 27 32 36 39 40 42 43 45 46 47 47 47 46 45 45 43 40 39 38 37 36 37 37 37 38 37 39
32 30 28 21 25 22 20 26 23 22 23 24 25 24 24 25 29 32 36 38 38 39 40 41 42 43 43 43 43 42 41 40 38 36 36 36 37 37 39 40 40 41 41 40
35 31 28 27 23 21 23 24 25 24 22 24 24 24 24 30 32 33 35 37 38 38 38 39 40 40 41 40 40 39 38 37 37 36 37 38 39 39 39 39 39 39 37 35
34 34 31 27 23 22 21 24 27 26 21 23 23 23 25 30 27 26 34 35 35 35 37 37 38 38 39 38 38 37 37 37 37 38 38 38 38 37 35 34 33 31 29 26
32 32 30 29 27 26 27 26 26 21 21 26 25 26 30 30 29 34 34 35 34 35 36 36 36 36 36 37 37 37 37 37 37 35 33 31 30 29 29 28 27 26 26 27
30 30 30 30 29 26 28 26 22 25 32 30 31 31 33 34 35 34 34 33 33 34 34 35 36 36 36 37 37 35 33 32 31 30 29 27 27 25 26 26 25 22 20 19
30 31 30 29 27 32 30 27 29 33 29 32 32 33 34 35 34 33 32 32 32 33 33 34 34 34 32 32 31 29 29 28 28 26 25 24 22 19 17 15 14 12 14 15
32 35 32 32 29 31 33 30 33 32 31 32 33 35 37 34 33 33 32 31 31 31 31 31 31 30 29 28 28 27 27 26 25 23 20 17 13 12 11 11 10 11 16 15
28 34 32 32 33 34 35 35 33 34 35 35 34 36 35 34 33 32 31 30 30 30 30 30 29 29 27 26 25 25 24 22 19 15 12 12 13 11 10 11 13 14 16 17
34 32 33 30 31 34 31 35 37 35 36 35 35 35 35 33 32 31 30 30 29 29 29 29 28 25 23 22 20 19 17 15 12 9 11 14 14 14 11 9 10 17 17 17

GFSCGP_sfc_30mbdewp_057.txt.gz
Dewpoint
26 22 18 15 17 18 17 16 15 28 33 26 22 20 24 34 38 38 43 45 46 49 50 51 49 48 47 48 49 50 51 52 50 50 50 49 48 49 49 51 55 60 59 58
24 22 20 22 23 20 17 16 14 16 21 22 20 21 26 28 37 38 41 46 45 46 49 49 50 49 49 48 48 48 48 48 49 48 48 47 47 47 51 52 55 59 59 57
22 21 23 24 22 21 20 18 16 16 22 22 19 17 22 22 34 37 39 42 43 47 47 48 49 49 50 49 49 48 49 50 50 50 49 48 47 46 47 50 54 59 59 57
22 21 24 23 23 22 19 20 19 21 18 14 24 16 24 21 27 34 37 38 41 42 47 48 49 49 49 49 50 51 50 50 51 52 50 49 47 45 46 50 53 58 58 58
19 20 24 23 22 23 20 25 21 20 18 18 20 15 20 18 16 23 31 36 38 40 44 46 47 48 49 50 51 52 52 52 52 52 52 51 50 47 47 50 53 57 58 57
20 22 23 22 24 25 23 24 23 23 21 17 17 19 19 23 15 19 21 31 37 39 40 44 47 48 48 50 52 52 51 51 50 51 53 54 52 51 48 48 58 57 57 57
20 22 23 25 23 25 25 21 20 22 17 16 19 17 16 25 18 19 21 23 30 37 41 40 43 48 49 50 51 52 52 51 51 52 53 54 55 55 54 54 57 56 56 56
17 15 21 24 21 21 24 21 21 20 20 19 23 15 16 19 20 20 22 27 31 31 37 41 42 44 48 51 53 54 53 53 52 53 55 56 57 57 58 57 56 56 56 56
15 15 18 20 21 19 20 22 22 22 25 22 19 16 19 19 21 22 23 28 30 31 32 38 42 43 46 50 53 56 56 55 54 55 56 59 60 59 59 59 58 57 57 56
17 15 17 20 22 23 23 26 22 22 22 20 15 15 14 17 16 18 19 23 31 33 32 36 38 43 45 48 52 55 57 56 56 57 57 58 59 60 59 59 58 57 57 54
18 18 19 25 24 21 24 24 23 22 21 23 18 13 18 17 17 17 19 23 26 33 37 37 39 40 44 47 51 55 56 56 56 56 58 58 59 59 58 58 58 57 54 51
20 19 20 22 20 21 25 23 23 21 22 24 21 23 21 19 19 22 21 23 29 34 36 40 41 41 44 48 50 52 54 55 55 55 57 58 58 58 58 57 56 54 51 48
21 18 17 18 22 24 21 25 24 24 24 27 29 22 21 20 21 21 21 23 29 33 37 42 45 46 46 48 49 51 52 53 53 54 57 56 55 54 53 51 49 48 46 46
26 19 19 18 17 19 19 21 22 22 23 22 19 17 20 19 21 21 23 24 26 33 36 35 40 45 48 50 51 53 55 56 55 55 53 52 52 50 49 48 46 45 45 44
25 20 19 18 17 16 15 18 19 19 19 19 19 18 19 19 20 20 23 26 26 26 34 37 39 44 49 52 53 55 54 53 52 51 50 49 48 47 47 46 45 44 43 42
25 23 21 17 18 16 14 13 13 14 15 16 17 16 19 18 21 25 26 26 28 28 32 40 44 48 51 53 53 53 51 50 49 47 45 45 45 45 45 44 43 42 41 41
26 25 21 21 19 17 18 16 15 15 16 16 16 18 19 20 20 24 24 29 31 36 39 42 46 49 50 50 51 50 48 47 45 44 43 43 42 41 41 40 40 39 39 39
31 28 25 24 25 22 21 20 20 18 18 17 18 19 20 19 19 26 29 31 37 39 42 44 46 47 47 47 46 46 45 43 42 41 40 40 40 39 40 40 40 40 41 41
32 32 28 27 24 21 18 22 22 19 18 18 19 21 20 21 30 32 34 36 39 40 41 42 43 43 43 43 42 41 40 40 39 39 39 40 40 40 40 39 39 40 39 38
30 32 33 30 25 20 21 22 23 22 21 22 20 20 21 26 26 23 34 38 39 39 39 40 41 41 41 40 40 39 39 38 38 39 39 39 39 39 38 37 36 33 30 27
34 34 34 32 27 23 22 22 22 23 23 22 21 22 23 25 26 34 35 37 37 37 38 39 39 39 39 39 39 38 38 38 38 38 37 36 34 33 33 30 27 25 25 26
33 31 34 33 29 27 29 27 23 26 27 26 27 25 27 30 36 36 36 35 35 36 37 37 37 38 38 38 38 38 37 36 35 33 32 31 28 25 26 25 24 21 19 19
27 31 31 29 28 31 32 29 29 28 27 30 30 29 30 36 35 35 34 34 35 35 35 36 37 37 38 38 37 34 33 32 32 30 27 24 22 18 16 15 15 12 14 16
29 32 30 29 30 31 31 33 33 32 31 32 32 32 33 37 35 34 34 34 34 34 35 36 36 35 34 33 32 31 30 29 27 24 22 18 15 12 11 10 9 12 17 16
28 29 29 27 26 28 31 34 36 34 33 33 33 33 34 36 34 34 33 34 33 33 34 34 33 32 30 30 29 28 27 24 21 18 14 13 12 11 10 11 13 15 19 17
21 22 27 27 25 31 32 34 36 35 34 36 33 33 36 35 34 33 33 33 33 32 32 32 31 31 29 28 25 24 22 18 14 12 13 17 16 14 9 8 16 16 15 16

GFSCGP_sfc_30mbdewp_060.txt.gz
Dewpoint
24 22 19 19 19 18 18 16 15 26 26 25 27 21 29 34 41 36 42 41 45 49 49 48 51 50 49 51 51 51 52 54 53 51 52 53 53 54 54 52 53 59 59 59
23 23 21 20 19 21 19 12 11 17 25 26 21 18 22 38 41 35 38 43 44 46 49 48 47 48 48 50 50 51 52 52 53 53 53 53 51 52 53 52 53 58 60 60
22 21 24 19 20 20 17 16 14 17 26 23 20 17 18 25 31 32 38 44 42 47 48 49 48 48 48 48 49 51 52 52 53 53 51 51 50 50 50 52 53 59 60 60
22 22 22 22 22 19 20 19 18 16 20 14 22 17 24 24 26 30 34 41 43 45 48 49 49 49 50 50 51 51 51 51 52 51 49 48 48 48 49 51 53 58 60 59
22 21 20 22 19 21 20 23 23 21 17 17 17 22 24 23 24 26 33 35 44 45 47 49 49 50 50 51 51 50 50 50 51 51 52 52 50 49 48 50 52 59 59 59
21 21 19 19 23 21 22 21 22 22 18 18 18 20 17 23 26 24 30 34 38 43 47 48 49 50 50 51 52 52 52 52 52 52 53 54 53 52 50 51 53 58 59 58
20 19 19 21 20 23 23 21 20 24 22 20 17 15 21 28 29 26 26 28 35 41 43 46 48 49 50 50 51 53 53 52 53 53 55 55 54 56 52 52 55 57 58 58
19 18 18 22 22 21 22 21 21 20 26 26 30 19 16 26 28 23 20 21 31 36 41 42 45 47 48 50 52 52 52 52 53 53 54 56 56 56 57 57 56 57 58 58
19 18 18 22 22 21 19 23 22 22 31 29 27 26 21 21 19 20 21 24 28 30 36 42 42 47 48 50 52 54 53 53 52 52 54 56 57 58 58 58 58 58 58 58
20 18 21 18 21 21 19 18 23 22 24 22 18 14 21 18 17 16 18 25 31 31 32 34 41 44 49 51 53 54 54 53 54 55 56 57 58 59 58 60 60 59 57 56
22 22 19 17 18 17 18 19 25 25 23 21 22 23 31 23 16 16 19 22 26 32 35 35 37 43 46 50 52 56 56 56 56 56 58 58 59 60 60 59 59 58 56 54
22 21 19 19 20 21 20 22 22 24 22 26 26 24 23 24 21 22 22 21 28 31 34 38 38 39 45 47 51 55 57 57 57 57 58 59 60 60 59 58 57 55 53 51
23 21 19 18 22 22 20 22 26 24 23 25 29 27 23 23 20 21 21 22 29 32 35 39 42 41 42 46 49 55 56 56 58 58 59 58 56 55 53 52 50 49 48 48
27 22 21 21 26 22 20 20 24 28 27 26 29 28 26 22 23 21 22 23 24 31 34 40 44 45 45 47 49 52 56 56 56 56 55 53 51 50 49 48 47 47 47 45
26 25 24 21 19 20 20 19 18 17 28 29 28 20 20 20 23 23 26 26 26 27 32 34 41 46 49 51 56 55 54 53 53 52 50 49 48 48 47 46 45 45 44 43
27 24 24 23 20 19 20 21 17 17 17 18 19 19 19 19 21 19 26 27 26 25 27 34 40 46 49 55 54 53 51 50 49 48 48 48 48 47 46 45 43 42 42 42
28 26 25 23 23 20 18 19 17 16 18 17 17 18 18 18 19 22 22 26 27 28 30 34 40 48 52 54 52 51 50 49 47 46 46 46 46 45 45 43 43 42 41 41
31 28 27 26 25 20 22 23 19 17 17 16 15 16 17 17 20 24 26 26 31 36 38 40 49 52 52 52 51 49 48 47 46 45 44 43 43 41 41 40 40 41 41 41
32 32 34 28 25 24 23 22 21 19 19 19 18 17 17 19 27 31 31 32 37 40 42 45 49 49 49 49 48 46 45 43 42 41 41 41 41 41 40 41 41 40 40 40
35 34 33 31 26 23 27 26 22 23 20 22 20 21 21 25 25 24 34 36 40 42 43 45 46 45 45 44 43 42 41 41 40 40 41 41 41 40 39 39 39 39 37 30
33 35 33 32 32 29 26 26 25 21 23 26 24 24 24 23 27 33 35 39 40 41 42 43 43 42 42 41 41 40 40 39 40 40 40 40 39 38 37 35 31 28 27 32
32 31 32 32 32 30 29 25 22 26 28 29 28 27 25 35 36 36 38 39 39 38 39 40 40 40 40 40 39 39 39 39 39 38 36 35 34 31 29 28 26 24 24 24
24 30 31 34 31 33 34 30 32 34 35 34 32 30 30 38 37 37 37 37 37 37 38 39 39 39 39 39 39 38 38 36 35 33 31 28 25 25 24 22 18 17 21 21
28 32 30 31 31 34 38 37 35 35 35 34 34 33 33 38 37 37 37 36 36 37 37 37 38 39 39 39 38 36 35 34 32 29 26 23 18 15 13 12 13 20 20 18
26 27 31 32 32 31 31 32 36 35 36 36 34 34 34 38 37 36 36 35 36 36 36 37 38 38 38 37 34 33 32 31 28 24 20 16 15 14 13 16 18 21 18 20
24 22 25 29 29 28 30 29 30 32 32 35 35 35 34 38 37 36 35 35 35 35 36 37 37 36 33 32 31 30 29 26 22 17 18 20 18 15 14 15 14 19 15 18

GFSCGP_sfc_30mbdewp_063.txt.gz
Dewpoint
24 22 21 22 22 22 22 19 18 22 29 31 31 31 37 41 45 44 46 45 50 50 51 51 51 50 51 50 52 52 52 51 51 50 49 48 50 53 53 54 53 57 57 56
24 22 24 23 22 22 22 20 16 20 27 26 25 25 35 43 44 42 44 48 50 49 51 51 51 50 50 50 51 52 51 51 50 50 49 49 51 53 54 54 53 57 58 58
24 23 25 24 22 21 21 19 18 18 24 24 25 22 34 40 38 40 42 44 47 47 49 51 50 50 50 51 51 51 51 51 49 49 49 52 53 53 53 53 52 57 58 59
25 26 25 24 23 21 19 21 22 21 21 19 22 18 22 32 35 37 42 44 46 48 48 49 49 49 50 50 50 50 51 52 51 51 50 51 52 50 50 52 53 56 59 59
24 24 25 23 23 23 20 23 23 24 23 20 18 20 23 26 25 31 43 44 45 49 48 47 47 47 48 49 50 50 51 51 51 52 53 52 50 49 50 50 52 54 59 59
24 24 24 23 22 23 23 22 24 23 23 20 19 21 21 23 24 26 36 44 43 47 49 48 47 48 47 48 49 50 51 50 50 51 52 52 49 50 50 50 51 55 59 59
24 23 23 23 20 23 23 22 21 21 22 20 27 28 22 25 26 28 33 45 45 45 49 49 48 48 49 48 49 50 50 50 50 51 51 51 53 52 50 50 52 57 58 58
22 21 22 22 20 21 23 22 22 19 21 23 29 26 22 27 26 29 28 35 46 45 47 49 49 49 49 50 50 50 50 50 50 50 51 51 54 56 54 52 54 56 57 58
21 21 22 20 22 22 23 21 24 24 31 27 28 25 28 28 27 25 21 23 40 44 46 48 49 50 50 50 50 51 50 50 51 51 53 54 54 55 56 55 56 56 58 58
23 20 22 22 20 23 22 23 23 26 23 23 25 26 25 28 22 19 21 28 31 37 43 47 48 49 50 50 51 51 52 52 52 52 54 54 57 56 56 58 58 59 59 59
23 22 22 22 21 19 22 20 20 24 27 23 21 23 30 29 27 17 24 25 32 32 33 40 45 49 49 50 51 52 52 52 52 53 53 54 56 57 58 59 59 56 57 56
22 23 20 22 23 22 22 21 21 20 24 28 26 23 30 28 25 23 20 25 29 33 35 37 40 44 48 48 49 52 53 53 54 54 54 57 59 59 58 58 58 56 54 53
22 20 19 21 21 22 20 20 22 23 26 26 23 26 30 29 27 25 22 27 30 33 38 39 40 41 46 49 50 52 55 58 59 60 59 59 58 56 53 53 51 51 50 49
23 21 19 19 22 24 20 21 22 24 26 26 27 25 28 29 28 24 21 24 30 31 39 40 42 43 47 55 56 57 59 56 57 57 55 53 52 50 49 49 48 48 47 47
26 19 21 23 22 25 25 24 22 22 27 27 29 30 29 30 27 25 26 26 29 30 39 42 44 45 54 54 53 53 53 53 53 52 51 49 48 48 47 46 46 45 44 44
30 24 23 21 24 24 23 24 24 23 21 30 29 29 29 28 24 23 26 26 25 27 34 41 46 51 54 53 52 51 51 50 51 50 49 48 47 46 45 44 44 43 43 42
37 26 24 22 24 23 22 23 22 24 25 22 28 29 26 24 21 23 24 27 28 26 27 39 47 54 54 53 51 50 49 49 49 49 48 47 46 45 44 43 42 42 42 41
38 29 28 24 24 19 23 24 24 24 23 20 19 19 20 19 20 24 25 28 28 30 33 47 50 55 53 51 50 49 47 47 47 47 47 46 45 44 43 42 42 41 40 39
40 35 30 25 25 24 24 23 24 22 22 21 19 19 19 19 28 29 32 32 35 36 43 52 53 53 51 49 48 47 47 46 45 44 44 44 43 41 41 41 40 41 40 40
39 37 31 33 27 22 26 28 30 27 20 24 24 23 23 25 23 26 34 38 41 44 49 50 50 50 49 49 47 46 45 43 42 42 42 41 41 41 41 41 40 40 40 39
33 34 32 32 31 32 32 28 29 24 23 26 26 27 26 26 27 31 39 41 42 44 46 47 47 47 47 46 45 43 41 41 41 41 41 41 41 40 40 39 38 37 32 29
27 28 30 33 32 30 35 32 25 29 31 31 29 31 30 32 34 36 40 41 42 43 44 44 44 44 43 42 42 41 40 41 41 41 41 40 39 38 36 31 30 30 28 25
26 26 25 26 29 35 38 37 36 40 37 35 35 33 37 38 36 38 40 40 41 42 42 42 42 41 41 41 41 40 40 40 40 38 37 35 32 30 28 24 24 24 25 23
28 32 29 32 33 33 34 39 40 41 41 39 36 35 38 38 38 38 39 39 39 39 40 40 40 40 40 40 39 39 38 37 36 33 29 27 25 24 20 21 23 22 22 19
26 32 32 34 34 34 35 33 38 35 39 39 36 35 35 39 38 38 38 38 37 38 39 39 39 39 39 39 38 36 35 34 30 27 22 18 18 17 19 22 20 19 21 21
27 23 27 29 35 34 31 33 39 39 38 37 38 37 35 38 38 38 37 37 37 38 37 39 39 39 36 35 34 34 32 29 26 20 18 19 19 17 17 20 16 17 18 21

GFSCGP_sfc_30mbdewp_066.txt.gz
Dewpoint
25 21 18 21 22 22 22 22 21 21 25 29 29 32 35 41 42 42 41 45 50 50 51 51 51 52 51 53 53 53 52 51 51 50 50 48 45 49 50 52 53 55 55 57
25 22 22 23 23 23 22 21 20 20 25 30 26 25 29 40 41 44 44 46 50 50 50 51 50 50 50 52 52 52 52 51 50 49 49 47 46 50 52 51 52 54 56 56
25 25 25 23 23 22 22 21 21 19 20 25 24 23 30 39 42 44 44 46 50 50 50 50 50 50 50 50 52 52 52 51 51 50 49 48 49 51 50 51 51 54 57 57
27 27 26 24 23 23 22 23 22 22 22 20 23 17 27 36 36 40 41 46 49 50 50 50 49 49 49 49 51 52 51 51 51 50 48 47 47 47 47 47 49 53 56 58
27 26 25 24 24 25 23 25 22 23 23 22 21 18 19 30 33 37 39 43 48 49 50 50 50 49 50 49 50 51 51 50 50 49 48 47 48 49 51 52 52 52 55 58
27 28 26 26 26 26 25 23 24 25 24 19 21 21 19 21 25 31 39 41 46 48 50 50 50 50 50 50 50 51 50 50 49 49 48 48 49 51 52 51 51 52 54 58
24 25 25 24 22 23 23 22 18 18 19 19 22 26 26 25 24 28 40 43 44 49 48 50 49 48 49 49 49 49 49 49 50 49 49 50 51 52 51 50 50 50 53 56
19 20 24 25 23 21 22 22 20 17 18 20 29 25 24 28 29 30 42 44 45 48 48 47 48 48 48 47 48 48 48 49 49 49 49 51 52 53 52 51 51 52 53 55
22 22 24 24 24 22 23 21 24 22 31 27 25 26 27 28 28 27 32 43 43 46 49 48 47 47 47 46 47 48 48 48 48 48 49 51 52 52 53 53 53 54 56 57
23 21 24 23 23 23 22 25 22 27 21 21 24 25 25 25 23 21 24 37 41 45 44 49 49 48 48 48 48 48 49 48 47 48 49 50 51 52 55 56 55 56 58 58
23 23 22 24 22 20 21 21 22 24 28 25 22 22 28 27 23 23 23 31 33 42 45 46 49 50 49 49 50 50 50 50 49 50 50 50 52 55 56 57 58 58 59 59
24 22 20 21 24 23 21 21 22 20 23 27 25 24 28 30 29 27 24 28 33 38 44 45 47 49 50 50 50 50 52 51 51 52 53 54 57 58 58 58 58 58 57 56
28 22 20 20 22 22 22 22 23 23 24 21 21 25 30 30 29 27 25 24 30 34 36 39 42 46 49 50 50 50 52 54 55 57 57 56 57 58 58 58 57 56 55 52
35 29 21 19 19 21 20 21 22 22 22 20 24 24 27 28 26 27 29 25 29 33 36 39 41 44 48 49 49 51 54 55 56 55 57 58 58 57 56 55 53 52 51 50
38 30 25 21 21 21 23 24 21 21 23 22 25 29 29 29 29 29 29 25 30 32 37 39 44 52 53 53 53 54 56 56 54 54 56 54 53 54 52 50 49 48 48 47
40 33 28 24 23 21 19 21 25 24 23 25 26 27 30 28 29 31 29 28 25 30 35 40 45 53 53 53 54 55 56 55 54 52 50 50 49 49 48 47 47 46 45 44
37 37 34 28 26 22 22 23 25 24 25 26 26 29 29 27 29 29 28 27 26 27 31 41 46 52 52 52 52 52 52 52 51 50 49 48 48 47 46 45 45 43 43 43
35 35 35 32 26 22 24 26 25 24 23 23 25 27 29 29 29 28 27 26 26 26 30 40 47 53 53 51 51 50 50 50 50 49 48 47 46 45 44 43 42 42 42 41
38 35 31 31 25 26 27 25 24 23 23 25 23 22 21 22 25 28 31 27 29 28 32 41 50 53 51 50 49 49 49 49 49 48 47 46 45 43 42 42 41 40 39 39
38 37 30 30 29 22 25 26 28 29 24 26 25 24 24 26 22 24 31 35 36 39 49 50 52 50 50 49 48 48 47 47 47 47 46 44 43 42 41 41 40 39 39 39
32 32 30 30 30 31 34 35 31 23 24 32 31 28 28 26 26 27 34 40 43 46 50 51 51 50 49 48 47 46 45 45 44 44 42 42 42 41 41 41 41 39 35 34
29 29 29 31 29 26 36 34 29 33 35 34 36 36 33 30 34 34 37 40 43 46 48 49 49 49 47 47 46 44 43 42 42 42 41 41 41 41 40 38 35 32 30 29
26 28 30 30 24 32 36 38 41 41 39 39 38 37 38 36 34 38 40 42 44 46 46 46 46 45 44 43 43 41 41 41 41 41 40 39 38 37 34 34 31 28 26 26
25 32 29 30 26 28 33 36 32 37 36 37 40 38 38 37 36 38 40 41 42 44 44 43 43 42 42 41 41 41 41 41 39 37 35 33 32 27 26 26 27 26 25 25
23 27 26 31 32 34 36 36 35 34 35 37 38 37 37 36 39 38 39 40 41 42 41 42 42 41 40 40 39 39 38 37 34 30 27 25 23 23 22 21 22 23 23 24
29 29 31 28 33 33 34 27 29 36 32 33 36 37 38 38 37 39 39 40 39 40 40 40 40 39 38 37 36 35 34 32 27 23 23 21 21 22 17 16 17 23 24 23

GFSCGP_sfc_30mbdewp_069.txt.gz
Dewpoint
28 26 22 23 22 21 21 20 20 20 22 24 27 29 29 37 42 41 43 48 50 50 51 51 52 51 52 53 53 53 53 53 53 52 53 50 49 49 52 53 55 55 55 55
25 23 23 22 22 22 22 21 20 21 22 26 27 28 30 37 40 40 42 43 48 50 50 50 51 51 51 53 53 53 52 52 51 51 51 50 47 48 51 51 52 54 55 56
24 25 25 22 21 20 22 21 20 20 22 26 27 24 25 35 40 42 43 44 48 49 50 50 50 50 51 52 52 52 51 51 50 50 50 48 47 47 47 49 50 51 53 55
25 26 26 23 21 22 19 23 22 22 22 19 23 19 20 27 35 41 41 45 47 49 50 50 50 49 49 51 52 52 52 51 50 50 48 48 46 43 43 44 47 48 52 54
23 26 25 25 24 24 22 24 24 24 23 22 21 20 20 28 29 34 39 41 46 49 50 50 50 50 50 50 51 52 52 51 51 50 49 48 47 46 45 46 47 48 51 54
23 28 27 26 27 26 25 25 24 26 24 19 21 21 20 22 24 28 38 40 43 49 50 50 50 49 49 49 50 51 51 51 51 50 50 48 47 47 47 49 49 50 51 53
20 24 26 26 25 26 26 23 20 19 18 17 22 22 21 23 23 24 28 37 41 47 49 50 50 49 49 49 49 50 51 50 50 50 49 49 47 48 48 49 50 49 49 52
17 16 21 26 24 22 23 22 20 17 17 17 27 25 25 29 30 29 29 34 40 47 49 50 50 50 49 49 49 49 50 50 50 50 49 49 48 48 50 52 52 52 51 52
18 17 23 22 25 24 23 22 23 21 29 25 24 25 26 26 27 28 33 38 41 44 48 49 50 50 49 49 49 49 49 50 49 49 49 49 49 49 50 52 53 53 53 53
24 21 24 24 25 24 23 25 22 26 19 20 22 25 23 23 25 24 29 41 43 44 47 48 49 50 49 49 49 49 49 48 49 49 49 49 49 51 52 53 54 54 54 55
22 23 23 24 23 22 23 21 23 24 24 20 22 22 27 27 28 24 22 34 44 44 47 49 48 48 49 49 48 48 48 47 47 48 48 49 49 51 53 53 54 55 57 57
25 23 20 21 23 24 23 21 22 20 22 27 25 23 27 29 29 30 28 27 33 43 45 47 49 49 48 48 48 48 49 48 49 47 48 49 50 51 52 53 56 57 57 58
33 27 21 21 22 23 21 22 23 25 24 22 21 22 29 28 29 30 29 25 28 33 42 45 45 50 49 48 48 49 49 50 51 50 49 49 50 51 52 55 57 57 57 56
38 32 31 24 21 21 20 21 22 22 20 21 22 23 23 26 25 27 29 28 28 26 34 41 45 48 50 50 50 50 51 51 51 52 52 52 52 54 55 57 58 58 56 54
39 32 34 34 32 27 22 21 21 21 22 20 21 22 23 25 26 27 28 30 29 27 32 37 39 42 47 50 50 51 51 53 53 53 53 53 54 55 57 57 56 54 53 51
39 33 36 33 31 26 23 21 23 23 23 23 24 24 30 29 30 29 29 30 29 27 30 37 41 46 48 49 50 51 52 54 54 54 55 56 56 56 55 54 51 51 49 48
36 34 32 29 32 31 26 24 22 21 25 24 23 25 27 29 29 30 30 31 30 29 29 35 41 48 51 51 52 52 54 54 55 54 53 52 53 52 51 50 48 47 46 45
36 33 33 29 29 25 30 29 25 23 23 26 27 27 27 27 28 30 31 30 29 29 28 31 42 50 52 52 54 54 54 53 53 51 51 50 49 48 47 47 46 44 44 43
37 34 30 25 24 26 23 28 26 24 24 26 25 25 25 25 25 23 26 28 29 29 29 30 40 50 51 51 52 52 52 52 51 50 49 48 47 46 45 44 43 43 43 42
39 35 30 30 25 19 15 26 25 29 25 27 26 26 25 26 23 24 25 29 31 30 35 40 48 51 50 49 51 51 50 50 50 49 48 47 46 45 44 43 42 41 41 40
32 32 31 30 28 28 32 31 35 31 28 33 33 30 26 25 26 28 30 32 39 41 46 49 50 49 49 49 49 49 49 49 49 48 47 45 45 44 43 42 40 40 39 34
28 28 28 30 28 23 35 38 37 37 38 38 37 37 36 37 35 34 35 35 43 45 49 50 49 49 49 48 48 47 47 45 46 45 43 43 42 42 41 39 38 36 34 31
26 29 26 29 27 30 32 32 35 41 41 39 38 38 38 37 35 37 38 41 44 47 49 50 49 48 47 47 47 46 43 43 43 42 42 41 41 40 38 36 33 33 31 30
26 30 27 30 27 30 28 33 39 41 40 39 39 38 37 36 38 37 38 40 42 45 46 47 47 46 45 44 44 43 42 42 41 40 39 37 34 32 33 31 30 29 29 28
24 26 27 27 28 31 34 35 34 34 37 37 39 36 36 36 36 38 39 39 42 43 44 45 45 44 42 42 42 41 41 40 37 35 32 29 28 26 25 25 25 25 26 27
36 34 32 29 36 38 33 34 33 33 35 36 37 37 38 37 36 37 37 40 41 42 42 42 42 41 40 40 39 39 38 35 32 29 28 27 25 23 23 22 22 26 26 26

GFSCGP_sfc_30mbdewp_072.txt.gz
Dewpoint
31 29 26 25 25 19 18 19 19 20 21 20 19 22 24 31 40 41 43 47 50 51 51 51 52 52 53 54 54 55 55 55 55 53 52 54 54 55 56 55 53 51 51 49
25 26 26 26 25 22 21 19 19 20 21 22 21 22 26 32 34 39 40 42 47 50 50 50 51 50 52 52 53 54 54 54 54 54 53 53 52 52 53 54 54 54 53 53
25 25 26 23 22 22 21 19 20 18 21 23 24 24 24 26 36 40 41 42 44 48 50 49 49 49 51 52 53 53 53 53 53 53 53 52 51 51 51 51 52 54 55 55
25 25 25 23 21 21 18 22 21 20 20 18 25 20 21 22 25 35 40 42 44 47 50 50 49 48 49 52 52 52 51 52 50 50 50 49 48 49 48 49 50 51 54 55
23 25 24 25 23 22 18 22 21 21 22 22 22 20 21 23 22 23 30 39 43 47 49 50 49 49 49 51 52 52 51 51 50 49 50 49 48 47 44 45 46 47 49 52
22 29 26 24 25 24 26 24 25 26 25 21 22 21 20 21 22 23 28 33 40 45 49 50 50 50 49 50 51 51 51 50 50 50 49 48 47 47 45 44 45 47 49 50
22 23 26 27 25 26 25 23 20 20 21 20 22 21 20 22 23 24 25 27 36 43 49 50 50 49 49 49 50 51 51 51 50 50 49 48 48 47 47 46 46 46 47 49
16 16 22 26 25 23 25 24 21 17 17 18 27 21 22 28 28 30 29 28 32 41 48 50 50 49 49 49 49 50 51 50 50 50 49 49 48 48 48 48 48 49 49 49
18 18 20 23 26 24 23 23 25 21 27 24 22 25 26 26 26 26 28 31 32 40 47 49 50 49 49 49 49 49 50 50 50 50 50 49 49 48 48 49 51 51 51 52
23 19 24 24 24 25 24 25 21 24 18 18 22 24 20 22 22 27 26 32 37 41 46 49 50 50 49 49 49 49 50 50 50 50 50 50 49 49 49 49 50 52 53 53
22 23 21 24 23 22 23 22 23 24 24 18 17 20 27 22 26 28 27 24 37 42 43 47 49 50 50 50 50 49 49 50 50 50 50 49 49 49 50 50 52 53 54 53
29 23 18 18 22 24 24 23 23 21 20 27 23 20 27 27 29 29 29 30 28 40 44 46 48 49 50 49 50 50 50 50 50 49 49 49 49 49 50 50 51 52 53 55
34 30 23 21 22 24 22 22 23 26 25 21 21 21 29 27 26 28 29 29 29 30 38 45 48 49 49 49 49 49 49 50 49 49 49 49 49 49 49 49 51 52 54 55
31 33 30 27 28 33 30 26 22 22 21 21 21 22 23 27 27 26 25 28 29 27 30 39 45 48 49 48 49 49 49 49 49 49 49 48 49 49 49 50 51 54 55 56
32 28 34 35 35 33 32 31 27 22 21 20 21 21 23 24 24 24 25 28 29 29 29 31 41 44 48 50 49 49 49 49 50 49 49 48 49 49 49 51 54 55 56 56
38 27 34 30 33 32 30 31 28 25 23 22 23 22 25 25 26 26 26 27 28 29 29 29 35 41 46 49 50 50 50 50 50 50 50 50 50 51 52 54 55 56 56 55
31 33 31 24 33 29 23 28 25 26 25 24 22 24 25 26 28 28 29 30 30 30 30 30 32 38 41 46 50 50 51 52 51 51 51 51 52 52 54 55 54 52 52 50
30 34 32 27 29 19 22 32 24 28 28 27 24 26 26 26 28 30 31 30 30 31 31 31 32 37 44 49 50 51 51 52 53 52 52 53 54 54 52 51 50 49 48 48
36 34 30 26 25 22 22 16 22 26 26 22 27 28 27 26 25 24 26 29 28 29 31 31 31 37 46 50 52 53 53 53 53 53 53 53 53 50 49 48 47 45 45 44
34 34 30 29 25 17 18 24 30 29 17 33 36 33 28 26 24 26 27 28 29 31 31 31 34 45 49 51 53 53 53 53 52 52 51 50 49 48 48 46 44 44 43 41
31 31 29 29 26 26 30 36 36 28 19 38 39 38 37 30 29 30 34 34 36 41 42 45 46 46 49 51 52 51 51 51 51 50 49 48 48 47 46 44 42 41 38 36
28 27 29 29 26 23 32 38 33 36 34 35 37 40 38 37 37 37 37 39 40 43 48 49 48 48 49 50 51 50 50 49 49 48 47 46 45 44 42 41 39 37 34 32
24 27 25 28 26 31 33 30 35 36 30 30 34 36 42 37 36 37 38 40 43 46 48 49 48 47 48 48 49 48 46 47 45 44 43 42 42 40 39 38 35 34 33 31
28 31 30 29 22 24 26 32 35 37 36 36 37 41 41 38 37 37 38 39 40 44 46 47 47 46 46 46 46 44 44 44 43 42 40 39 38 36 35 35 34 33 31 29
23 27 26 25 27 31 29 32 37 38 38 41 43 42 39 37 36 37 38 39 40 42 44 46 46 45 44 44 43 43 43 42 40 37 34 33 32 30 28 28 30 31 30 30
35 30 29 25 37 36 37 39 40 40 39 37 38 39 39 39 38 38 36 39 41 42 43 44 43 42 41 41 41 41 40 38 36 33 31 31 30 28 27 27 27 28 28 27

GFSCGP_sfc_30mbdewp_075.txt.gz
Dewpoint
34 28 28 27 24 19 18 18 14 19 22 21 17 18 21 26 37 38 42 46 50 52 53 52 52 52 52 54 55 56 56 56 56 56 55 56 56 57 57 54 52 50 48 49
28 28 29 28 26 24 20 19 18 19 22 22 19 20 21 27 30 33 36 42 47 51 52 52 52 52 52 52 53 55 55 55 55 55 55 55 56 57 57 55 53 51 49 49
24 25 28 27 26 24 23 21 19 16 21 21 22 19 23 25 31 36 40 41 43 48 50 50 51 49 52 50 51 53 54 55 55 54 54 54 54 55 55 54 54 52 51 50
24 25 27 24 23 25 22 23 22 20 19 11 25 15 22 23 23 27 30 41 42 46 50 51 50 49 50 51 52 54 54 54 55 54 53 53 52 52 54 54 54 53 53 52
23 25 25 24 23 23 20 22 21 20 19 19 17 19 21 23 22 23 24 32 43 45 49 50 50 50 49 50 52 52 53 53 53 54 53 52 53 53 54 54 53 53 53 52
23 28 26 22 25 23 24 23 25 27 24 21 22 21 20 22 22 23 25 29 39 45 48 50 50 51 50 50 52 52 52 52 51 52 52 51 51 51 50 51 51 51 53 54
24 23 27 26 23 25 24 23 19 21 21 18 23 22 21 24 23 24 25 27 31 44 48 49 50 50 50 50 51 50 51 51 51 51 52 51 51 50 48 49 49 49 49 51
13 17 23 26 25 25 25 23 21 13 18 19 24 21 20 26 29 29 30 31 31 40 47 49 49 50 50 50 50 50 51 51 51 51 50 51 51 50 49 48 48 48 48 50
12 13 20 25 25 26 26 24 25 22 26 23 22 25 25 25 25 27 28 29 32 35 45 48 49 50 50 50 50 51 51 51 51 51 50 50 50 50 49 50 50 50 51 51
22 16 22 22 25 26 25 27 23 24 18 16 20 23 20 21 22 25 27 28 28 40 44 48 49 50 50 50 50 51 51 50 51 51 51 50 50 50 50 50 50 51 51 51
24 23 21 25 22 21 24 23 25 24 24 17 16 20 27 24 25 25 28 30 30 36 44 48 49 50 50 50 50 50 50 50 50 51 51 51 51 50 50 50 50 51 52 52
32 23 16 17 22 24 24 23 24 22 21 27 23 20 26 27 28 30 29 30 32 31 41 46 49 50 50 50 50 50 50 50 51 51 51 51 51 51 50 50 50 51 51 51
31 30 21 19 21 27 25 24 24 25 24 21 21 21 28 28 28 28 28 30 30 31 34 45 48 50 50 50 50 50 50 50 51 51 51 51 51 51 50 50 50 50 51 52
34 33 33 24 29 33 32 32 32 28 22 21 22 22 24 24 26 27 28 29 29 30 29 37 46 48 50 50 50 50 51 51 51 51 51 50 51 51 51 51 51 51 52 52
28 23 26 30 26 28 29 31 30 30 28 23 22 21 23 24 25 26 28 28 28 29 31 30 35 44 49 50 50 50 51 51 51 51 50 50 51 51 51 51 51 51 52 52
26 29 32 28 28 24 26 30 25 29 29 26 25 24 25 25 26 26 26 27 27 28 29 30 32 38 45 49 49 50 50 51 51 51 50 50 50 50 50 50 51 51 52 52
25 33 31 25 31 31 23 21 27 25 27 27 25 26 26 26 27 28 28 30 30 30 30 32 31 34 40 46 50 50 50 50 50 50 50 50 50 50 50 50 50 52 53 54
25 25 33 27 29 20 19 28 30 28 27 26 27 26 28 27 28 29 31 31 31 31 31 33 34 35 37 43 48 50 50 51 50 50 50 50 50 50 50 51 52 53 55 55
28 27 29 27 25 23 20 17 20 24 21 36 33 37 36 35 31 28 27 29 31 33 32 33 34 34 36 41 46 50 51 51 51 51 51 51 51 51 52 53 52 51 50 49
31 32 31 28 24 18 18 26 35 29 23 36 38 38 39 36 32 32 36 37 36 35 34 35 35 34 37 46 50 49 50 51 51 52 52 53 53 51 50 49 48 47 47 45
28 31 28 27 25 26 29 30 37 25 23 34 34 34 37 36 36 37 39 39 41 42 46 48 46 44 47 51 52 51 52 52 53 52 51 51 51 50 49 47 45 44 41 38
26 24 24 26 24 21 31 34 28 29 35 34 31 32 37 39 40 38 38 39 40 44 48 49 48 48 50 52 52 52 51 50 50 50 49 49 48 46 45 43 40 38 36 33
26 30 28 29 27 30 34 32 31 35 34 34 34 34 34 38 39 40 38 39 38 42 47 48 48 47 47 50 50 49 48 49 48 47 45 44 42 41 41 39 36 35 34 32
29 31 28 28 27 28 29 31 38 39 40 40 40 38 38 40 41 41 39 40 40 42 45 47 47 46 46 47 48 47 47 46 44 42 41 40 38 37 36 36 35 33 32 31
24 28 27 28 27 32 30 38 39 38 39 39 39 40 41 41 40 39 39 39 42 43 45 46 45 44 43 44 44 45 44 43 41 38 36 35 33 32 31 30 32 31 32 31
31 28 27 24 34 34 35 38 38 36 38 37 33 32 33 34 36 38 36 36 38 41 42 42 41 40 38 39 39 40 41 39 37 35 33 32 31 30 29 28 27 29 29 28

GFSCGP_sfc_30mbdewp_078.txt.gz
Dewpoint
26 24 22 21 21 19 17 17 15 14 15 18 15 15 14 15 24 29 33 37 41 45 49 53 53 53 52 53 54 56 56 56 57 56 57 56 56 55 54 52 49 46 46 47
27 22 20 23 24 23 20 16 15 15 18 18 13 11 12 16 21 25 25 34 39 44 49 52 53 53 52 52 53 55 56 56 56 56 55 57 56 56 54 53 50 49 49 51
22 20 22 25 26 23 21 18 17 16 17 18 15 14 9 12 23 26 31 33 36 42 48 51 52 52 52 52 52 54 56 56 56 56 55 57 57 57 54 53 51 51 50 49
20 20 23 25 23 22 17 19 20 20 18 14 18 10 10 17 19 20 23 32 36 39 46 49 51 51 52 51 52 53 55 55 55 55 55 55 55 54 54 53 52 52 51 50
21 20 17 21 23 21 19 18 20 19 18 17 16 13 11 18 20 20 21 24 34 38 44 47 50 51 51 51 52 54 55 55 55 54 54 54 54 54 55 54 53 52 52 52
25 25 22 20 24 24 23 21 21 21 19 17 18 13 14 13 18 20 20 22 30 38 42 46 49 50 50 51 52 53 53 54 55 54 54 54 54 54 54 54 53 52 51 51
20 23 24 25 19 22 21 20 18 19 19 16 18 17 16 20 21 22 23 24 29 37 42 45 48 49 50 50 51 52 52 53 54 54 54 54 54 54 54 53 53 51 51 50
12 15 22 25 22 22 22 22 18 14 16 17 22 17 18 23 25 27 28 27 29 34 41 44 47 49 50 50 51 51 51 52 53 53 54 54 54 53 54 54 53 51 51 50
6 9 19 20 24 23 25 23 23 18 22 19 18 21 23 22 21 22 26 27 28 32 39 43 46 48 50 50 51 51 50 51 52 53 53 53 54 53 52 53 53 52 51 51
21 11 14 20 22 23 23 24 23 23 20 18 17 17 17 21 20 23 26 29 29 34 36 42 45 48 49 51 51 51 51 50 51 52 53 52 52 53 52 53 53 52 52 51
19 23 24 22 22 20 23 22 22 21 21 17 16 17 22 21 22 23 26 28 30 34 40 42 45 47 49 50 51 51 50 49 50 51 52 51 51 52 53 53 53 52 52 51
27 23 19 21 23 23 23 22 22 20 19 21 20 19 22 26 29 30 30 29 29 32 38 43 45 47 48 50 50 51 51 49 49 50 52 52 52 51 53 54 53 54 53 52
28 23 14 14 17 22 21 23 23 23 22 20 22 20 24 24 27 28 26 25 25 29 32 40 45 47 48 49 50 50 52 51 50 50 52 52 52 51 51 51 52 52 51 51
28 34 30 16 23 29 29 30 30 29 24 22 21 20 22 23 23 24 24 25 26 27 28 33 42 46 48 48 49 50 51 52 52 51 51 51 52 52 52 51 50 50 50 49
29 23 29 29 29 26 27 26 27 26 28 27 24 23 22 22 23 24 25 26 27 26 27 29 34 42 46 48 49 50 51 52 52 51 51 51 51 51 52 51 51 51 51 50
27 18 21 19 22 19 19 21 22 24 22 24 27 25 26 27 26 26 26 27 27 26 27 28 29 32 41 46 49 50 50 51 52 52 52 51 51 51 51 51 51 51 52 51
24 29 25 18 23 20 20 21 21 20 26 27 23 19 26 25 23 25 27 27 27 30 30 30 31 32 34 39 46 48 50 51 52 52 52 52 52 52 51 51 51 51 51 51
23 26 30 23 29 17 18 22 24 25 22 25 24 24 32 32 32 32 28 29 30 31 31 32 32 34 35 37 41 47 48 50 51 51 51 51 51 51 51 51 51 51 51 51
26 24 26 23 17 16 16 18 20 22 19 32 31 32 34 35 34 31 36 38 37 37 36 33 33 34 35 36 38 42 46 48 49 50 50 50 51 51 51 51 51 51 52 53
26 26 25 26 17 14 20 27 31 27 17 29 33 30 29 33 33 33 36 38 38 39 41 43 46 44 40 37 37 41 44 47 48 49 49 50 50 51 51 51 52 53 54 53
25 26 25 22 23 23 25 23 32 20 22 28 29 27 26 29 32 36 37 37 38 38 42 48 48 47 47 47 46 45 44 45 48 49 51 51 51 52 53 53 51 48 45 42
24 23 25 23 22 20 30 29 24 27 29 31 32 33 36 36 35 35 38 39 38 38 42 46 48 48 49 50 50 48 47 50 52 53 53 53 53 51 50 47 44 42 39 37
23 22 23 22 21 29 35 30 34 38 37 38 38 37 38 38 36 36 39 40 38 39 42 47 48 48 48 49 50 51 51 52 52 51 49 47 46 45 44 42 39 37 36 34
25 27 28 27 24 24 29 34 37 38 38 39 37 37 40 39 40 40 39 39 39 41 44 46 47 47 45 46 46 48 48 48 46 43 41 40 39 38 37 37 36 35 34 32
22 25 23 22 23 28 27 35 37 37 38 37 36 34 34 34 36 37 38 37 37 40 42 45 45 44 43 42 41 42 43 43 41 39 37 36 34 32 31 30 32 32 33 32
23 22 23 21 34 34 33 35 37 36 36 36 34 32 31 31 31 32 32 33 33 34 34 34 34 35 35 34 34 35 37 38 36 35 33 32 32 31 29 28 27 29 30 30

GFSCGP_sfc_30mbdewp_081.txt.gz
Dewpoint
15 16 12 14 18 18 18 16 16 17 16 16 16 13 14 17 15 17 22 23 32 37 42 48 51 51 52 52 52 54 57 58 57 57 57 56 55 54 53 51 51 51 50 49
12 18 16 15 17 20 19 18 17 18 17 17 17 15 14 13 12 13 18 20 28 33 39 47 51 52 52 52 52 53 56 57 57 57 57 56 55 54 52 50 47 48 48 45
16 19 23 19 18 19 21 21 20 19 18 18 17 17 17 16 15 14 17 22 23 30 37 46 50 52 53 52 52 53 56 56 56 56 57 56 54 55 52 51 46 47 50 49
23 23 24 24 20 20 22 23 20 19 18 16 18 14 15 14 11 12 20 22 24 26 35 44 50 51 52 52 52 53 55 56 56 56 57 55 52 51 51 51 50 48 50 52
29 23 22 20 21 22 22 21 20 18 19 20 18 16 16 17 14 15 18 19 21 28 32 42 48 51 51 52 52 53 55 54 55 56 56 55 53 52 53 51 49 48 49 50
22 29 26 24 20 22 23 19 20 19 18 17 18 18 17 16 16 18 19 19 21 27 33 41 47 49 50 51 51 53 54 55 55 55 56 55 54 55 54 52 50 50 49 51
27 21 27 27 21 21 22 19 18 17 17 17 19 18 18 18 19 20 21 21 20 25 34 39 45 48 49 50 51 52 53 53 55 55 54 55 55 54 54 52 51 50 50 51
26 21 19 26 23 21 20 20 17 16 19 19 20 16 17 19 21 20 21 22 24 28 32 36 43 47 48 50 51 51 52 53 54 55 54 54 55 55 54 53 51 51 50 49
25 20 21 24 24 26 25 20 20 24 24 21 23 21 23 22 21 21 23 24 24 25 28 36 41 47 48 49 50 50 51 52 53 54 55 55 55 55 54 53 53 52 51 50
20 20 17 19 25 27 25 26 22 23 21 19 19 19 20 21 20 21 24 27 27 28 30 36 40 45 47 49 51 51 50 50 52 53 55 54 55 55 55 55 55 54 53 52
19 18 29 13 18 22 23 22 28 28 24 22 22 22 24 22 22 21 25 27 28 31 35 36 40 43 47 49 50 51 51 48 50 52 53 54 54 55 55 55 56 56 55 54
21 23 19 20 16 20 22 21 23 25 25 24 23 25 23 25 28 28 29 27 27 29 32 39 40 43 46 48 50 51 51 48 49 50 52 53 54 54 55 55 55 56 55 54
23 20 16 27 23 21 19 20 22 23 23 26 30 23 24 26 23 25 25 26 26 26 29 34 42 43 45 47 49 50 52 51 49 49 51 53 54 53 54 55 55 55 55 54
27 27 23 19 21 24 19 22 21 22 22 21 22 23 24 24 23 24 24 25 26 26 27 27 35 42 44 45 48 49 51 52 51 49 50 52 54 54 53 54 54 54 54 54
25 25 27 28 29 25 26 26 26 25 25 24 25 25 24 24 23 23 24 25 26 26 26 26 27 33 42 45 46 48 50 52 52 51 50 51 54 54 53 53 53 54 54 54
22 18 21 22 22 23 20 21 23 23 23 23 22 21 24 25 26 26 26 25 26 26 27 27 28 28 31 42 46 47 49 50 52 53 52 51 52 53 53 53 53 53 53 53
23 22 15 20 21 23 22 21 20 19 20 20 20 23 23 23 24 27 27 27 25 27 29 30 32 32 31 31 42 47 48 49 51 52 52 52 52 53 53 53 53 53 53 53
24 21 22 21 23 17 19 20 20 20 20 24 26 24 25 26 28 29 34 36 36 36 35 36 35 34 34 35 35 40 46 49 50 51 51 52 53 53 53 53 52 53 53 53
25 23 20 20 15 14 13 15 16 17 18 27 26 27 28 29 31 32 36 36 37 37 37 38 39 41 41 40 36 37 41 45 48 50 51 51 51 52 53 53 53 53 53 53
25 25 22 22 18 11 13 20 23 23 17 28 28 27 27 26 26 29 33 35 37 38 38 39 42 44 45 45 45 39 36 39 45 48 50 50 51 52 52 53 53 54 53 53
24 25 23 21 19 17 27 24 27 21 22 29 29 29 31 31 31 33 32 32 36 37 37 39 43 46 48 48 48 48 45 42 42 45 48 49 50 51 52 52 53 53 52 48
24 26 24 24 24 20 22 22 24 32 32 32 32 33 33 35 35 34 32 33 37 37 37 39 43 47 49 49 49 49 48 52 53 52 48 49 50 50 51 53 53 48 45 42
27 22 22 20 19 28 33 34 35 36 34 35 35 33 34 35 37 38 37 37 38 38 40 42 44 46 46 46 46 48 48 51 52 52 49 48 47 46 46 46 43 41 39 37
22 28 28 32 29 30 35 36 36 35 35 35 35 35 35 35 36 36 38 38 37 37 39 41 41 41 39 39 40 40 43 45 44 42 41 40 39 38 38 37 38 37 36 34
21 28 20 22 26 24 29 34 36 35 35 35 35 35 34 34 33 33 35 34 35 35 35 36 35 34 34 35 35 36 39 40 38 36 35 34 32 31 30 30 32 32 33 33
23 27 24 26 34 33 32 34 36 34 34 34 34 33 33 33 32 32 32 32 32 33 32 32 31 30 30 31 31 32 35 35 34 32 31 31 30 29 29 28 27 29 29 29

GFSCGP_sfc_30mbdewp_084.txt.gz
Dewpoint
16 15 18 19 25 24 21 19 18 17 18 18 17 15 16 18 19 22 22 24 23 31 39 45 48 51 52 53 53 57 57 57 58 58 56 55 54 54 54 54 54 54 53 54
23 16 17 17 15 20 22 20 19 21 20 19 17 16 17 17 15 16 16 18 23 27 34 45 50 51 52 53 53 57 56 57 57 57 57 55 54 54 53 53 53 53 52 53
30 28 23 21 20 15 16 21 19 19 20 20 18 17 18 19 18 18 16 15 19 23 32 46 50 52 53 53 53 56 56 57 57 57 57 55 54 53 50 50 51 52 52 51
37 34 29 30 28 28 20 21 20 21 21 20 21 17 18 19 19 20 19 17 19 22 30 44 50 52 53 53 53 53 55 56 57 57 56 54 52 50 49 48 49 50 51 50
33 32 32 31 29 33 28 24 27 27 24 21 19 18 18 18 17 16 15 16 23 25 27 40 50 51 53 54 54 54 55 56 56 57 55 54 52 49 49 47 46 48 50 51
32 32 33 35 32 29 34 32 30 27 24 21 19 19 19 19 19 17 16 19 22 25 29 34 50 50 52 53 53 53 54 55 56 57 55 54 52 50 50 48 45 46 50 51
26 28 28 26 33 29 25 28 28 26 22 20 19 18 19 20 21 19 19 20 21 24 30 35 48 50 50 53 53 54 54 54 55 56 56 54 52 51 50 49 47 47 48 49
26 25 28 29 26 29 25 23 28 23 23 21 19 17 19 21 21 20 21 21 22 24 32 36 45 49 50 52 53 53 53 54 55 56 56 56 54 52 51 51 49 48 48 48
24 26 24 28 27 32 30 25 24 25 27 30 29 20 22 21 21 20 21 23 23 26 31 34 41 48 49 51 53 52 52 53 54 54 55 55 55 54 53 52 51 49 48 48
19 23 24 25 25 28 29 30 28 30 25 27 24 21 20 21 20 21 23 27 27 26 27 31 35 48 49 51 53 53 52 52 53 54 54 55 55 55 54 54 52 50 49 48
19 21 20 26 27 29 27 31 34 33 29 30 28 26 32 27 27 26 27 28 28 31 34 33 37 47 49 50 52 53 52 52 53 55 54 54 55 56 55 55 54 52 50 50
27 25 18 20 28 23 29 28 30 31 32 30 32 31 31 31 27 29 30 28 29 29 32 37 38 42 48 49 51 52 52 50 52 54 55 54 55 55 55 55 55 54 52 50
22 22 18 20 22 22 22 29 30 31 33 33 32 29 31 28 29 26 26 26 27 28 30 34 40 40 45 48 50 51 53 52 50 53 54 55 55 55 55 55 56 56 54 53
23 25 25 27 29 36 24 22 28 29 29 32 33 33 34 33 32 29 26 27 27 28 28 28 34 42 43 46 49 51 53 53 52 51 53 54 55 55 55 55 55 56 57 56
23 25 24 22 33 33 33 33 34 25 30 28 28 29 33 34 29 26 25 26 26 25 26 27 29 32 42 45 47 49 51 54 53 51 50 52 54 55 55 55 55 55 55 56
23 21 21 19 23 22 22 28 24 33 32 27 27 25 33 33 25 26 26 26 27 29 34 35 35 35 35 38 46 47 50 52 54 53 51 51 53 54 54 54 55 55 55 55
22 22 19 18 20 23 23 24 21 19 20 20 20 23 25 24 24 26 28 36 36 36 36 37 37 37 38 38 41 47 48 50 53 53 53 52 51 52 54 54 54 54 55 55
22 22 21 20 19 21 23 23 22 23 21 20 21 34 28 27 27 33 36 36 37 37 38 38 41 42 44 44 44 43 41 49 51 52 53 53 53 52 53 54 53 53 53 54
25 23 23 20 17 17 15 15 15 14 16 28 31 33 31 28 28 38 36 36 35 37 38 38 42 45 48 48 48 48 47 40 48 50 51 53 53 53 53 53 53 54 54 54
25 26 24 23 18 13 12 14 23 18 14 30 30 32 29 29 29 33 33 31 31 34 37 37 43 47 48 49 49 49 48 47 46 47 50 52 52 53 53 53 54 54 54 54
24 25 24 23 22 19 18 25 26 19 27 33 33 33 33 32 33 35 35 33 34 36 38 42 45 47 46 46 47 49 50 49 51 53 53 52 52 52 53 53 54 54 54 53
23 26 25 23 22 20 25 24 24 33 34 34 34 33 33 32 34 36 37 38 40 39 40 43 46 44 41 41 41 43 43 45 47 49 48 47 48 50 52 53 50 49 46 42
24 23 23 22 21 24 34 35 35 35 34 34 34 33 34 35 35 35 36 36 36 36 36 37 38 39 38 37 37 37 38 42 42 41 39 39 40 40 41 45 45 45 44 41
33 28 32 29 34 38 41 37 35 34 34 34 34 34 34 34 34 34 35 35 35 35 34 35 35 34 33 33 33 33 35 39 37 36 34 33 32 31 32 33 35 36 36 35
30 34 28 30 34 39 39 38 37 34 33 33 34 33 34 33 33 33 33 32 31 32 31 32 31 31 30 31 31 32 34 35 34 33 32 31 30 29 28 27 28 30 30 33
35 33 33 32 33 36 36 35 35 34 33 33 32 32 33 32 32 32 31 29 28 28 27 27 27 27 27 27 28 29 33 33 33 31 30 30 29 28 27 26 25 29 29 28

GFSCGP_sfc_30mbdewp_090.txt.gz
Dewpoint
19 12 8 11 19 26 25 25 25 26 29 29 26 23 23 23 23 22 19 19 20 29 35 46 52 53 59 60 59 59 58 58 57 56 55 55 54 55 55 56 57 61 62 61
22 16 12 12 16 19 21 22 24 28 28 28 29 28 28 29 27 22 20 24 24 27 37 48 52 53 58 58 58 58 57 57 57 56 56 55 54 54 54 55 56 60 60 60
21 25 24 18 16 15 20 22 22 23 28 29 32 29 28 29 28 23 21 24 27 28 36 48 51 53 57 57 57 57 57 57 56 56 56 55 54 53 53 53 55 58 59 59
29 35 35 34 32 30 23 24 24 23 33 28 32 27 30 30 29 28 22 21 23 26 35 48 51 52 56 57 57 57 57 56 57 56 55 53 52 51 52 52 53 56 57 57
29 34 34 33 35 34 29 25 25 29 34 33 32 31 30 30 27 26 26 23 22 21 35 48 50 52 54 56 56 56 56 56 57 55 55 53 52 52 52 51 52 53 55 57
28 34 33 32 34 36 34 31 34 33 35 28 28 30 28 28 27 26 25 23 23 23 35 48 50 51 54 55 56 56 55 55 56 55 54 53 52 51 51 50 51 51 51 53
27 28 31 35 32 34 37 35 27 26 27 23 27 29 29 28 28 25 24 24 24 28 43 48 50 52 53 54 55 55 55 55 56 55 54 53 52 51 50 50 51 51 50 50
17 14 25 31 30 31 31 35 30 21 24 24 27 24 25 29 29 27 26 25 24 27 46 49 51 52 52 53 54 54 54 55 56 55 54 54 52 50 50 49 50 51 50 50
17 23 29 29 31 31 33 31 36 31 33 28 27 29 30 29 30 29 25 23 26 35 48 50 52 52 52 53 53 54 54 54 55 55 54 53 52 51 50 49 49 50 50 50
18 17 22 32 34 35 33 39 32 32 24 24 26 27 33 36 34 28 28 30 31 44 48 50 52 52 53 53 53 53 53 53 55 55 55 54 53 51 51 50 47 48 49 50
24 20 23 24 28 31 34 33 33 35 32 27 27 33 41 40 40 38 36 30 34 41 49 50 51 52 53 53 53 53 53 53 54 55 55 54 54 52 51 50 48 47 48 49
22 26 21 20 21 30 34 36 35 31 29 32 32 30 45 43 42 39 37 34 30 31 37 46 50 51 53 53 53 53 53 53 53 54 55 55 54 53 52 51 50 49 47 48
22 24 25 22 26 30 34 33 35 37 35 31 28 31 43 43 42 43 42 34 36 36 37 47 49 50 52 53 53 53 53 53 53 53 55 55 55 54 53 52 51 50 49 48
25 24 27 25 27 32 32 32 36 35 31 29 32 32 38 41 42 44 43 40 37 38 40 39 43 50 51 52 53 52 53 53 54 53 53 54 54 55 54 53 53 52 51 50
26 23 26 27 26 33 33 32 33 33 35 32 34 34 36 40 42 45 45 39 38 40 42 44 45 47 47 49 51 54 53 53 54 54 53 53 53 53 54 55 54 54 53 51
26 21 23 22 24 26 20 32 33 34 36 37 37 36 39 41 45 43 44 41 38 40 45 46 47 47 47 48 49 50 53 54 54 54 54 54 53 53 53 53 55 55 54 54
25 24 23 19 22 18 18 24 33 29 36 33 32 35 40 40 41 42 40 36 37 41 46 47 46 46 46 47 49 50 50 52 55 53 53 54 55 54 54 54 54 54 55 55
24 24 23 21 19 9 18 22 26 34 35 33 35 38 38 39 40 40 43 44 44 46 46 44 43 43 43 44 46 46 47 47 49 51 52 52 53 55 55 54 54 54 54 54
29 25 21 18 17 18 15 17 25 30 33 37 37 38 38 41 39 38 39 41 43 43 42 40 40 39 39 39 42 43 43 43 44 45 45 46 47 50 53 55 55 55 54 54
26 27 23 22 19 14 18 25 28 31 31 36 36 37 36 37 35 37 36 36 36 37 38 37 37 36 35 36 39 39 39 40 41 41 41 41 42 45 45 47 51 56 55 55
25 26 23 22 21 23 28 33 33 23 30 35 36 36 37 36 38 36 35 33 34 33 34 35 34 33 33 33 35 36 36 36 38 38 37 36 36 38 39 42 43 44 48 55
23 25 23 24 22 19 37 34 31 35 35 36 36 36 35 35 34 33 32 31 30 30 31 32 32 31 30 31 32 33 33 35 36 35 33 32 31 32 34 36 37 38 39 40
28 30 26 25 23 37 37 36 36 36 36 36 35 35 34 34 32 31 30 29 27 28 28 29 29 29 28 29 29 30 31 34 34 32 30 29 28 29 29 30 31 34 36 35
32 36 32 31 36 35 39 37 36 37 36 33 32 32 33 32 31 29 28 27 26 26 26 26 26 26 26 27 28 29 30 33 32 31 29 28 27 27 28 28 28 28 31 31
33 36 31 33 35 35 36 37 37 34 32 31 30 28 28 28 28 27 25 25 24 24 24 24 24 24 24 25 26 28 29 30 30 29 29 27 27 26 26 27 28 28 28 29
31 28 29 27 31 33 32 34 35 33 31 29 28 26 25 24 24 23 22 23 22 22 22 21 22 23 24 24 25 27 28 28 28 27 27 27 26 25 24 24 25 28 29 29

GFSCGP_sfc_30mbdewp_093.txt.gz
Dewpoint
20 19 16 12 21 23 25 25 25 26 27 29 28 27 29 30 31 30 30 28 24 21 22 37 53 56 58 58 58 59 58 58 58 57 55 55 55 56 56 56 57 60 61 61
22 16 15 12 13 15 18 21 21 25 28 27 28 27 28 29 31 30 30 27 26 23 32 42 53 55 58 58 58 58 58 58 56 56 55 54 54 55 55 55 56 57 60 61
22 25 24 18 14 12 13 14 19 22 24 28 28 24 24 25 28 29 30 30 28 23 32 47 52 55 58 58 58 58 57 57 56 55 55 54 54 54 53 54 55 56 59 60
24 30 32 32 29 30 24 24 24 24 25 20 32 20 22 24 28 30 31 30 28 26 37 48 51 54 57 57 58 57 57 56 55 55 54 53 53 51 52 53 54 56 58 60
29 34 33 32 32 35 30 31 29 25 30 32 30 26 21 28 28 29 30 29 28 26 32 46 50 53 56 57 57 57 56 56 55 55 54 53 53 52 52 52 53 55 57 58
29 35 33 30 34 35 35 32 31 33 32 25 26 28 24 25 27 29 29 30 29 26 25 44 49 52 55 57 56 56 55 55 54 55 54 53 52 52 52 52 52 53 55 55
27 29 32 36 33 34 36 32 25 25 24 22 26 28 27 28 28 29 29 29 28 26 25 42 49 51 55 55 55 55 54 54 55 54 54 53 52 51 51 52 52 52 52 53
21 12 27 32 30 29 34 32 26 20 22 25 25 22 26 30 30 31 31 30 29 28 29 42 49 51 54 55 55 55 54 54 54 54 54 53 52 51 51 51 52 52 52 53
17 18 27 30 31 31 32 30 36 30 31 29 28 28 31 39 40 39 36 34 31 28 27 43 49 51 53 54 54 55 54 54 53 53 54 53 53 52 50 51 52 52 52 51
19 17 26 31 34 33 34 37 30 31 24 23 25 26 31 39 41 41 40 32 32 39 42 46 50 51 53 54 54 54 54 54 53 53 54 53 53 51 51 50 50 51 51 51
24 19 21 31 30 30 33 33 33 33 31 26 25 30 42 42 42 42 43 40 37 37 49 50 51 52 52 53 54 54 54 54 54 53 52 53 53 51 51 50 49 50 50 50
21 26 23 21 23 33 35 33 35 29 29 32 32 28 45 44 43 41 43 43 40 40 46 51 52 52 52 53 53 53 53 53 55 54 53 53 54 52 51 51 49 48 49 50
23 26 22 24 29 33 33 35 35 34 34 29 28 28 42 44 42 41 41 44 41 43 49 50 52 52 52 52 53 53 53 53 53 55 54 53 54 53 52 51 50 48 48 48
25 25 23 20 25 28 30 32 34 34 29 30 30 32 38 41 40 41 41 45 43 45 47 48 50 52 53 53 53 53 53 53 53 54 55 53 54 54 53 52 51 50 49 48
26 21 25 26 28 27 31 31 32 32 33 30 32 33 37 40 42 43 44 46 45 46 45 46 47 48 49 50 51 53 54 54 54 54 53 54 55 55 54 53 52 52 51 50
26 20 23 22 24 27 25 19 20 29 33 34 36 35 37 44 45 44 44 46 44 45 44 44 45 45 46 48 48 49 50 52 54 54 54 54 54 54 54 55 53 53 52 52
25 24 22 19 21 19 11 21 23 31 32 34 32 35 38 42 43 41 45 44 46 43 42 42 42 42 42 45 45 45 46 48 51 53 54 54 54 54 54 54 54 55 54 54
24 24 24 21 19 6 12 16 35 32 36 36 36 39 40 40 40 42 45 44 42 41 40 39 39 38 38 41 43 43 43 44 44 44 45 45 47 50 53 55 54 54 54 55
28 25 21 18 16 13 16 23 26 26 28 38 39 40 40 40 40 38 39 39 39 38 37 36 36 35 35 37 40 40 39 40 40 40 40 41 41 44 45 48 50 55 54 54
29 27 23 21 17 9 19 31 34 35 28 38 40 40 40 39 35 35 37 37 35 35 35 34 33 32 32 33 36 37 37 37 37 37 36 36 36 38 39 41 43 45 48 53
25 25 23 23 20 20 23 35 35 25 27 37 39 40 40 37 37 35 33 32 32 32 32 32 31 30 30 31 33 34 35 35 35 34 32 31 31 33 33 34 36 39 42 43
21 22 23 24 22 18 35 35 29 35 36 36 36 37 36 35 33 31 29 28 29 29 29 30 30 28 28 29 31 31 32 34 34 31 29 29 29 30 30 31 32 34 35 35
24 28 28 24 23 36 37 36 37 36 33 33 33 34 33 31 30 29 27 27 27 27 26 27 27 27 26 27 28 29 30 33 32 30 28 28 28 28 29 29 29 30 31 32
33 34 31 32 35 36 37 37 35 36 34 31 30 30 31 30 28 27 25 25 24 24 24 25 25 25 25 26 27 28 29 31 31 29 27 27 27 27 28 28 28 27 28 28
30 31 28 31 32 34 34 36 35 33 32 30 29 28 26 26 25 24 23 22 22 22 22 23 23 23 24 25 26 28 28 29 28 28 27 27 26 26 26 27 27 27 28 28
30 26 25 26 30 31 30 33 35 31 29 26 25 23 22 23 22 22 22 21 20 20 21 21 22 23 23 24 25 26 27 27 27 26 26 26 25 25 25 23 23 26 27 28

GFSCGP_sfc_30mbdewp_096.txt.gz
Dewpoint
22 21 18 17 18 18 20 23 24 26 26 27 27 27 28 30 29 30 31 30 30 29 28 25 29 48 56 58 58 58 58 58 58 58 57 56 56 57 57 58 60 61 62 61
19 17 20 19 16 16 17 18 19 22 24 26 26 25 27 28 27 27 29 29 29 29 29 28 33 53 56 57 58 58 58 58 58 58 57 55 56 55 55 55 56 57 59 61
21 23 23 14 12 11 13 12 13 14 21 24 24 17 17 22 25 27 30 30 30 30 30 30 42 53 56 56 57 58 57 58 58 57 55 54 54 54 53 54 54 55 57 59
24 24 28 22 19 18 18 24 22 23 23 19 31 17 19 20 21 22 25 30 31 31 29 30 44 53 56 57 58 58 57 57 57 56 54 53 53 51 52 53 54 55 56 58
25 33 31 29 30 32 30 32 30 30 27 30 30 24 21 23 25 26 27 29 31 31 29 34 45 51 56 57 57 57 57 57 56 55 54 53 52 52 52 53 53 55 56 57
29 36 33 30 35 35 35 32 30 32 31 24 24 25 20 20 21 25 27 30 32 31 29 34 47 52 56 57 57 57 56 56 55 55 54 53 52 52 51 52 52 54 56 57
29 31 33 35 31 34 33 27 19 20 23 19 25 25 24 26 27 31 32 30 31 30 28 31 46 51 55 56 56 56 55 55 55 54 54 53 52 52 51 52 52 53 53 54
22 18 30 34 30 28 33 28 22 19 21 24 28 25 26 37 42 42 42 37 34 33 30 27 42 50 54 55 55 55 54 55 54 54 53 53 52 51 51 52 53 53 54 54
20 15 27 32 31 30 32 29 32 29 26 26 26 27 29 41 41 42 41 42 42 42 38 30 39 49 54 55 55 55 54 55 54 54 53 53 52 51 51 51 52 53 53 54
20 20 27 32 32 34 33 36 29 30 22 21 25 26 28 39 41 41 40 40 43 43 41 43 41 50 54 55 54 55 54 54 54 54 53 53 52 52 51 51 52 52 53 53
22 20 24 31 30 29 31 30 33 33 30 25 23 26 43 42 42 41 40 40 43 45 45 49 50 52 53 54 53 54 54 53 53 53 54 53 52 52 51 50 51 51 51 51
25 26 22 23 27 32 33 31 31 28 27 30 30 27 42 44 43 41 41 41 44 47 51 51 51 52 53 53 53 53 54 54 53 53 53 53 53 52 51 50 50 50 51 51
26 27 21 26 29 30 31 34 34 34 33 26 25 24 42 43 40 39 41 42 46 48 50 52 52 52 52 52 53 53 54 54 54 53 53 53 53 52 51 51 50 49 50 50
25 25 21 18 23 27 27 31 33 34 28 29 29 31 33 40 39 41 41 45 45 45 47 48 49 51 53 53 53 53 53 54 55 54 53 53 53 53 52 51 50 49 48 49
24 20 24 24 24 28 27 28 30 29 32 29 29 32 34 37 41 42 43 46 45 42 42 43 44 46 47 49 51 55 54 54 54 55 54 53 53 54 53 52 51 50 49 48
26 21 23 22 21 27 23 22 20 21 22 25 33 32 36 39 44 44 45 45 42 41 40 40 40 42 44 44 45 46 47 49 55 54 53 54 54 54 54 53 52 52 51 50
25 23 22 16 21 20 9 17 30 31 32 33 31 34 36 39 42 43 44 43 41 40 39 38 38 38 39 42 42 42 43 45 46 47 47 48 52 54 54 55 54 53 52 52
24 24 24 20 21 8 7 16 30 28 32 35 34 35 40 39 39 39 41 40 38 38 37 36 36 36 35 38 39 40 40 40 40 40 40 41 43 45 46 50 53 54 55 54
28 25 20 17 17 15 16 26 30 29 29 39 40 40 40 40 39 36 38 37 37 36 36 35 34 33 33 33 37 38 37 37 36 36 35 36 38 39 40 41 42 44 45 52
29 27 23 21 17 11 12 32 34 33 27 37 40 40 41 39 34 32 35 35 34 35 34 32 31 31 31 31 35 35 35 35 34 32 32 32 33 34 34 36 37 39 42 42
24 26 23 23 20 22 28 33 34 19 27 37 39 41 39 34 33 33 32 31 31 30 30 31 29 29 29 30 32 32 33 33 31 30 30 30 31 31 32 33 34 35 36 36
21 22 22 22 21 18 35 34 28 34 33 35 36 36 35 34 32 31 31 29 28 27 27 27 28 27 27 28 30 30 30 33 31 29 29 29 29 30 30 30 31 31 33 32
25 30 27 26 24 35 36 35 35 32 31 32 33 34 33 31 30 29 26 25 25 25 25 25 26 26 26 27 28 28 29 31 30 28 27 27 28 28 28 28 28 29 29 29
29 32 29 29 33 34 35 35 35 33 31 30 31 31 29 27 26 24 23 23 22 22 23 24 24 24 24 25 26 28 28 30 29 28 26 26 26 26 27 28 27 26 26 26
28 29 26 30 30 32 31 32 31 31 31 28 27 27 27 26 25 24 22 21 21 21 22 22 23 23 23 24 25 27 27 28 27 27 26 26 26 24 23 24 25 26 27 27
29 25 23 24 28 29 28 30 31 28 27 26 25 21 20 21 21 20 20 20 19 19 19 20 20 21 21 21 22 24 27 27 26 26 25 26 25 25 23 21 20 23 25 26

GFSCGP_sfc_30mbdewp_099.txt.gz
Dewpoint
24 21 19 19 18 17 21 23 23 25 26 26 25 25 26 28 28 29 29 30 30 31 32 32 33 34 49 56 58 58 59 59 59 59 58 58 58 59 60 60 61 62 62 61
21 20 22 20 19 18 18 17 17 21 22 23 22 22 23 26 27 27 27 27 29 30 30 31 30 33 46 53 57 58 58 58 59 59 59 58 58 58 58 59 59 61 61 62
20 24 21 19 17 17 16 15 16 15 17 23 22 19 17 18 19 21 24 27 27 28 29 31 33 36 46 52 56 57 58 58 59 59 58 56 55 55 55 56 57 57 59 61
26 25 20 16 16 16 15 16 14 18 22 18 29 18 17 20 21 22 23 24 28 29 31 32 33 37 48 52 56 57 58 58 58 58 56 55 54 53 54 55 55 56 56 58
24 28 28 24 24 19 22 30 25 27 26 28 26 22 17 18 16 24 28 32 32 30 30 31 32 35 46 53 56 57 58 58 58 57 57 55 54 54 54 54 54 55 56 56
29 36 32 29 35 34 34 31 31 32 29 22 24 20 17 21 24 31 37 41 39 34 33 34 34 38 49 55 56 57 57 57 57 56 56 54 54 53 52 53 53 54 55 56
29 32 33 35 33 35 33 26 21 20 23 16 23 24 22 26 34 40 40 41 42 44 43 38 33 45 53 55 56 57 57 56 56 56 55 54 55 53 52 53 52 53 54 56
22 23 31 34 29 30 30 26 19 12 19 23 28 23 24 40 42 41 40 41 42 44 46 44 38 46 53 55 56 56 56 56 55 55 54 55 54 53 53 53 52 53 54 54
20 19 30 32 32 31 32 27 32 26 27 23 22 26 29 41 41 41 40 41 43 46 48 48 44 42 53 55 56 56 56 55 55 54 54 55 54 53 52 52 53 54 55 55
20 24 29 31 33 35 32 34 28 29 22 20 23 25 25 35 39 41 39 40 44 47 50 49 47 41 52 54 56 56 55 54 54 54 54 54 54 53 53 53 53 54 54 55
22 23 28 31 29 30 32 31 31 30 29 24 22 25 39 39 41 42 40 42 45 46 51 51 51 52 53 54 55 55 54 54 54 54 54 54 53 53 53 53 53 53 53 54
28 25 24 26 30 32 32 31 30 25 27 28 28 22 41 40 41 42 41 45 45 45 48 52 53 53 53 53 54 54 54 53 54 54 55 54 54 53 52 52 53 53 53 53
29 26 26 28 29 30 30 33 33 33 33 27 24 22 38 35 39 40 41 45 44 44 44 47 51 52 52 53 53 53 54 53 54 54 54 54 53 53 52 52 52 52 52 53
28 26 21 20 23 27 26 30 31 31 28 26 27 26 30 32 36 38 43 45 43 42 42 42 43 45 48 52 53 54 54 54 54 54 53 53 53 53 53 52 52 51 52 52
25 21 23 24 24 28 26 25 25 22 25 25 23 25 24 31 36 43 45 42 41 40 40 40 39 42 43 44 46 49 53 55 55 54 54 53 54 54 53 53 52 51 51 51
26 22 23 19 22 25 21 21 17 20 24 25 24 23 28 35 37 44 44 41 40 39 38 38 38 37 40 42 42 43 44 51 55 55 54 54 54 54 54 53 53 52 51 51
24 23 19 13 22 20 11 16 16 27 31 31 28 31 34 37 38 41 40 39 38 37 36 36 36 35 36 40 41 40 40 41 42 42 43 45 48 49 51 54 53 53 53 52
25 23 23 18 19 3 11 18 24 23 27 34 36 38 39 37 36 36 36 36 35 35 35 34 34 34 34 37 38 39 38 38 37 37 37 39 41 42 43 44 45 46 49 53
28 25 22 17 16 15 18 30 27 27 21 36 39 39 38 39 38 32 32 32 33 34 33 33 33 33 33 34 36 36 35 34 33 33 33 34 36 36 38 39 40 41 44 43
28 27 22 22 16 10 20 30 34 34 22 35 38 40 36 37 32 29 30 31 32 32 31 30 30 30 30 33 34 34 33 32 31 31 31 32 33 33 35 36 37 38 39 36
24 26 23 23 18 20 31 33 34 12 23 35 36 37 37 32 31 30 31 30 31 30 28 29 28 28 28 30 32 32 32 31 30 30 31 31 31 31 32 33 34 35 34 33
23 22 23 22 20 17 34 32 28 32 33 34 33 33 30 30 30 29 29 28 28 28 26 26 27 26 27 28 29 30 31 30 29 29 29 29 29 29 30 31 31 31 32 30
25 29 26 27 27 34 35 33 34 33 31 31 31 31 31 29 27 27 25 23 23 23 24 24 25 25 25 26 28 28 29 30 28 28 27 27 27 28 28 28 29 28 28 28
30 29 28 27 29 28 31 31 31 30 28 28 29 30 29 27 26 25 24 22 21 22 22 23 23 23 23 24 25 27 28 29 28 27 26 25 24 25 25 26 26 27 27 26
27 27 25 28 28 30 29 29 30 28 29 27 25 25 26 25 23 22 21 21 20 19 20 20 20 20 20 21 22 24 27 27 26 26 26 25 24 22 22 24 25 25 27 26
27 24 23 23 27 27 26 29 29 26 24 24 22 20 20 20 20 19 18 18 17 17 18 18 18 19 19 19 20 22 24 25 26 25 25 25 24 23 21 20 21 23 24 24

GFSCGP_sfc_30mbdewp_102.txt.gz
Dewpoint
14 11 13 17 20 19 16 14 15 17 22 24 21 21 22 23 25 26 26 27 26 26 27 27 28 33 35 42 51 55 57 60 61 62 61 60 60 60 61 62 61 61 62 61
14 8 9 13 19 18 14 13 14 15 18 19 18 17 18 20 21 23 24 25 26 27 28 28 29 31 34 38 49 54 56 59 61 60 59 59 60 60 60 60 61 61 62 62
9 5 5 10 15 16 14 13 14 15 16 16 16 15 14 16 18 19 21 22 23 24 25 27 29 30 32 38 46 52 54 57 59 58 58 58 59 59 59 59 59 61 61 62
15 18 19 18 15 16 12 16 17 15 13 11 24 7 13 15 17 19 22 24 24 25 27 27 27 29 31 36 44 50 53 56 59 59 58 57 56 56 56 57 57 59 60 61
21 22 20 19 17 17 15 20 16 16 17 20 19 19 13 16 14 25 34 37 38 40 39 35 32 30 31 33 44 50 53 55 58 59 58 57 55 55 55 56 57 57 57 59
28 30 24 23 26 19 28 27 28 27 23 20 17 17 11 18 24 30 37 38 40 41 42 42 38 35 33 32 43 52 53 55 57 59 58 57 56 55 54 55 54 55 55 55
27 31 32 32 32 32 28 25 21 22 23 15 19 19 15 27 37 37 37 38 41 43 44 44 42 38 34 36 49 53 54 55 58 58 57 57 57 56 55 54 53 53 53 54
18 22 31 33 27 26 27 22 17 9 13 14 25 19 22 37 39 38 38 39 42 43 47 48 45 42 37 44 52 54 54 54 57 57 57 57 56 56 54 54 52 53 53 54
18 20 30 31 31 27 27 27 28 26 26 22 15 20 27 34 35 37 37 40 42 44 47 50 49 45 40 47 52 54 54 55 56 56 56 56 57 55 54 53 54 53 54 54
19 23 28 31 31 33 28 30 26 26 21 17 16 19 22 32 35 36 37 38 42 45 46 48 52 47 41 49 54 56 56 56 55 56 56 57 56 56 54 54 54 54 55 55
23 23 30 30 27 26 30 28 29 28 28 21 17 23 35 32 32 35 36 39 43 45 44 45 50 52 48 51 54 56 56 55 55 55 56 56 56 55 54 54 54 54 55 55
27 26 25 25 29 29 28 27 27 24 25 26 26 20 35 30 30 35 37 42 42 42 42 42 46 51 52 52 54 55 55 55 55 55 56 56 56 55 54 54 54 54 53 54
29 25 24 26 29 30 27 29 31 34 32 26 22 20 31 27 29 35 39 43 42 40 39 41 42 45 50 53 54 54 55 54 55 55 55 55 55 54 53 53 54 54 54 53
27 25 21 17 22 27 27 27 28 29 26 23 24 23 24 24 27 34 40 42 41 39 38 38 39 42 44 47 53 54 54 55 55 55 55 54 54 54 52 53 53 53 53 53
27 20 20 20 22 22 22 21 21 18 20 21 18 21 24 28 33 36 43 41 39 39 37 36 37 38 41 42 44 46 53 54 55 55 54 54 53 53 53 52 52 53 53 53
29 20 15 14 20 20 17 16 11 13 20 24 25 26 32 38 38 38 39 38 37 36 36 35 35 36 39 40 41 42 43 44 47 48 49 54 54 54 54 53 53 53 53 52
22 19 12 13 14 13 8 12 16 19 21 27 27 32 37 32 30 29 33 34 34 34 33 33 33 34 37 38 40 39 39 40 40 40 41 42 46 48 49 54 54 53 53 53
20 16 16 12 16 2 13 23 21 19 27 34 35 36 34 32 31 30 31 30 30 31 32 32 32 33 35 37 36 37 37 37 36 35 37 38 39 40 42 43 44 46 48 47
26 20 17 12 9 15 25 27 26 25 26 33 35 38 36 36 34 30 30 30 30 31 32 32 32 32 33 35 36 35 35 34 33 33 34 36 36 37 38 39 40 41 41 38
26 25 18 17 11 9 25 27 29 29 23 32 34 35 38 36 33 28 29 30 30 31 32 30 30 30 32 33 35 33 32 32 32 32 32 33 35 35 36 37 38 37 35 34
22 24 20 20 17 21 30 29 30 20 25 34 33 31 30 27 28 28 29 28 29 30 30 30 29 28 28 30 32 32 31 30 31 31 31 31 32 33 34 34 35 34 33 31
21 21 21 20 19 20 33 29 27 32 32 33 32 32 30 30 29 28 28 27 27 28 25 25 26 25 26 28 29 30 30 31 30 30 29 29 30 31 32 32 32 33 32 30
25 28 26 26 25 29 31 29 31 31 29 30 31 31 31 29 28 27 26 26 25 25 25 24 24 24 24 25 27 28 29 29 29 29 28 28 28 28 28 30 30 30 31 31
30 28 28 29 28 28 30 31 30 29 28 28 29 29 28 26 26 25 23 23 21 22 21 22 22 22 22 23 24 26 28 28 28 27 26 26 25 26 27 26 27 28 28 28
27 27 27 28 29 28 27 29 29 28 27 27 25 25 25 24 22 22 20 19 18 19 19 20 20 20 20 21 22 24 25 27 27 27 26 25 24 24 23 24 26 25 26 27
26 25 25 24 28 27 27 28 28 25 24 24 22 20 20 20 19 19 18 18 17 17 18 18 18 19 19 19 21 22 23 25 26 26 25 26 25 24 23 21 21 23 24 24

GFSCGP_sfc_30mbdewp_105.txt.gz
Dewpoint
11 11 6 8 18 22 20 19 18 18 19 21 22 22 21 21 21 22 23 24 24 25 26 26 26 23 25 31 41 48 54 61 62 62 60 59 60 61 61 62 61 61 60 61
4 3 4 7 12 19 19 19 17 15 14 20 20 20 18 17 18 20 22 24 25 25 26 26 26 28 29 32 38 48 52 58 61 62 59 57 61 60 60 61 60 60 58 60
-1 3 1 4 9 15 19 17 15 10 12 14 15 13 11 12 14 16 17 19 21 23 24 25 27 28 30 32 36 42 50 54 60 60 59 59 60 59 59 60 60 60 60 61
8 2 8 5 9 14 16 19 13 9 12 11 11 6 10 13 13 14 16 19 23 24 24 24 25 26 29 33 36 39 47 51 56 59 58 58 57 57 58 59 59 59 60 60
14 6 8 8 11 11 14 12 10 13 14 12 8 10 10 12 11 20 28 36 37 38 38 38 38 35 29 31 36 41 43 49 54 59 58 58 57 57 57 57 58 58 59 59
17 18 16 11 13 17 14 16 16 15 13 13 13 11 9 12 18 23 33 35 37 39 41 42 41 40 35 33 34 39 44 47 52 58 58 58 57 56 55 55 56 57 58 58
20 25 19 17 17 19 16 19 18 18 16 13 11 11 9 23 32 33 34 35 38 40 43 45 46 45 40 36 35 39 45 47 51 57 58 58 57 56 55 55 54 54 56 56
18 26 25 26 20 18 21 21 15 12 11 9 17 11 13 27 35 35 34 37 38 40 43 45 49 50 45 41 36 37 41 48 50 56 57 58 57 57 56 55 53 52 54 55
19 27 31 27 24 26 28 22 20 25 24 21 19 18 30 31 34 36 35 35 39 40 43 46 48 50 52 45 37 40 48 50 50 57 58 58 58 57 55 55 53 53 53 55
23 23 27 27 28 28 28 24 23 24 16 11 4 10 29 34 30 31 32 35 41 40 42 44 45 47 50 47 42 50 52 51 56 58 58 58 57 57 56 55 53 54 54 54
24 24 25 27 25 23 27 26 28 26 26 20 10 24 31 28 27 29 32 42 41 41 41 42 41 43 47 51 49 53 54 54 57 57 57 57 58 57 56 54 54 55 55 54
19 22 24 28 21 23 22 22 24 20 22 22 24 24 29 26 25 29 39 42 41 40 39 39 38 38 42 46 55 55 56 56 56 56 56 57 58 57 55 54 54 55 55 54
21 23 23 29 25 29 27 25 28 31 29 25 21 26 25 24 26 37 42 40 40 40 38 37 36 36 39 43 49 55 56 56 56 56 57 57 57 56 55 53 54 54 54 54
28 25 23 20 19 24 25 27 27 26 25 24 21 19 30 36 39 41 40 39 38 38 38 37 35 34 36 40 43 51 55 55 55 56 56 56 56 56 55 52 54 54 54 53
28 26 29 27 25 25 25 26 25 25 22 19 21 25 35 36 37 36 36 35 35 36 35 36 35 34 34 38 40 42 46 54 55 55 56 56 56 56 54 52 53 54 54 54
29 17 17 17 19 21 20 17 12 11 15 20 20 32 34 33 33 31 32 33 32 33 34 33 35 34 33 36 37 39 40 42 45 46 46 54 55 54 53 53 53 53 53 53
28 19 17 15 12 11 10 14 16 16 30 31 31 36 35 32 30 29 30 30 29 30 31 31 31 33 33 36 37 37 37 38 39 39 40 43 45 47 48 53 53 52 53 53
18 18 13 11 13 6 19 21 20 27 29 31 34 36 34 30 30 30 30 29 29 30 30 31 30 31 33 35 36 36 36 36 35 36 37 38 40 41 42 44 45 45 44 44
23 18 15 10 8 15 24 24 24 23 30 30 32 35 37 34 34 31 31 30 29 30 31 31 32 31 32 33 35 35 35 34 34 33 34 37 37 38 38 38 38 39 36 35
21 21 16 15 8 16 28 28 27 26 26 32 32 32 33 33 32 29 30 30 30 31 32 31 31 30 31 32 34 33 32 33 33 32 33 35 36 36 36 36 35 34 33 32
18 20 18 17 14 25 30 31 30 26 24 33 32 31 30 27 28 30 30 29 30 31 27 27 27 26 27 30 32 32 32 31 32 33 33 33 34 35 35 36 34 33 32 32
22 25 21 20 17 22 30 29 27 29 31 32 32 31 31 30 30 29 28 28 28 29 30 25 25 25 25 27 29 30 30 31 32 32 31 31 31 32 33 33 34 34 33 32
25 26 26 26 24 29 31 29 31 31 30 31 32 31 31 30 29 28 27 25 23 22 23 24 24 24 24 25 26 26 29 30 30 29 28 29 30 29 28 30 31 31 31 31
29 27 28 28 28 28 29 29 30 29 29 29 29 29 28 27 26 25 23 22 20 20 20 21 22 22 22 23 24 25 27 28 28 27 27 26 25 25 26 27 26 26 29 28
26 27 28 28 28 28 27 28 29 28 27 26 25 24 23 24 22 22 20 20 19 19 19 20 20 20 20 21 22 23 25 27 27 27 27 27 25 23 22 23 24 25 26 27
26 26 26 26 29 28 27 27 27 26 25 23 21 20 19 19 19 19 18 18 18 18 18 18 19 19 20 20 21 22 24 24 26 26 26 27 26 26 23 22 21 23 25 24

GFSCGP_sfc_30mbdewp_108.txt.gz
Dewpoint
25 14 6 7 11 18 18 17 17 19 19 19 19 18 19 22 23 20 22 22 22 24 24 25 27 28 28 28 33 53 63 64 64 64 63 62 61 61 61 61 61 62 62 63
21 16 9 5 5 10 12 17 19 23 25 21 22 22 22 23 22 22 22 23 24 25 26 27 29 32 29 29 36 46 61 64 64 63 62 62 62 62 62 62 61 62 62 62
17 15 12 3 3 4 7 13 22 23 23 18 16 18 19 20 20 19 19 20 22 26 27 28 29 31 36 35 40 41 50 63 63 63 62 61 62 61 60 61 61 61 61 60
16 15 12 3 2 2 5 13 20 20 20 12 13 10 13 14 15 15 14 16 19 20 28 28 28 29 33 38 42 41 46 56 62 62 61 59 60 59 59 60 59 60 61 60
13 20 13 2 2 1 5 15 20 19 17 14 12 11 11 13 11 13 20 34 36 37 38 38 39 39 39 39 39 45 43 50 58 62 60 59 60 60 59 59 59 59 61 61
9 16 21 1 8 4 9 17 20 18 16 13 14 12 7 9 11 20 33 34 36 40 43 44 46 47 45 41 41 40 45 47 53 61 61 59 60 59 58 59 59 59 58 60
10 22 32 6 7 10 13 15 20 20 22 18 14 10 10 25 27 30 32 37 40 42 44 44 46 48 51 52 53 42 41 44 50 59 61 60 60 59 58 58 58 58 58 58
10 24 29 19 14 9 13 16 24 13 15 15 15 16 13 26 32 33 37 38 40 42 42 43 45 47 48 50 52 53 40 40 48 56 60 60 61 59 58 58 58 57 57 58
28 27 31 27 16 19 17 18 23 25 25 24 19 28 34 31 32 35 36 38 40 40 42 42 43 44 44 47 49 52 52 40 46 53 59 59 60 59 58 58 57 56 57 56
29 29 35 30 31 24 26 25 26 29 25 24 23 28 31 36 33 33 39 40 40 40 40 40 41 40 41 44 47 50 51 41 48 54 58 59 60 59 58 58 57 55 57 56
34 32 28 27 32 31 34 31 30 28 24 25 16 31 38 36 35 39 39 39 39 39 39 38 38 38 38 41 44 47 55 51 55 59 59 59 59 59 58 57 56 57 56 56
30 32 26 26 25 26 34 33 31 25 18 24 30 30 40 40 40 40 39 39 39 38 38 37 36 36 36 39 41 44 53 57 58 58 58 58 59 58 58 57 56 56 56 55
30 29 26 28 28 28 29 25 25 30 31 24 22 30 39 37 37 37 37 37 36 36 36 37 36 35 35 37 38 40 45 56 57 57 57 58 58 59 57 56 57 56 55 55
32 28 25 27 27 26 27 28 27 24 23 22 26 33 33 35 34 35 34 34 34 34 34 34 35 35 35 36 37 38 40 45 56 57 57 57 58 58 57 56 56 55 55 55
34 31 32 34 30 24 28 26 25 25 20 20 29 32 32 33 32 32 32 32 32 32 32 32 32 34 35 35 35 36 37 40 44 50 55 57 58 58 57 56 55 55 55 55
31 27 26 29 31 30 31 17 13 26 30 32 36 32 33 31 30 30 31 31 30 30 31 31 32 32 33 35 34 36 36 37 39 40 41 45 52 55 56 55 55 55 54 54
29 22 22 14 14 18 17 19 28 27 30 31 29 33 33 30 28 28 29 29 29 30 30 30 31 31 32 35 35 35 35 36 36 36 38 39 42 44 48 53 53 53 53 54
27 20 19 14 14 20 27 29 29 29 29 30 33 34 32 29 30 30 30 29 28 29 29 30 30 31 32 33 35 35 35 34 34 35 35 36 38 38 39 41 41 41 41 41
24 22 16 12 14 23 26 29 29 30 29 31 31 31 35 32 34 29 30 30 29 30 32 31 32 32 32 32 34 34 33 33 32 32 33 35 36 36 35 34 35 35 34 33
20 23 19 17 12 19 26 27 30 29 24 32 30 30 31 33 29 26 29 30 30 31 28 28 27 27 30 32 33 32 31 31 31 31 32 33 35 34 33 32 32 33 33 32
23 25 22 18 21 25 27 29 30 24 23 32 32 31 29 27 27 29 30 30 31 32 32 26 26 26 26 28 31 31 31 30 31 32 32 32 32 33 34 33 33 33 32 32
23 26 22 25 23 20 28 27 24 28 32 33 32 31 30 30 29 30 30 28 25 25 24 24 24 24 25 26 26 29 31 32 32 31 30 30 31 31 31 32 33 33 33 32
24 27 24 25 24 30 30 30 31 31 30 30 30 30 31 29 28 27 25 22 21 21 21 22 22 22 23 24 24 25 27 31 31 30 28 27 26 27 29 28 28 30 31 30
28 27 28 28 28 28 29 29 28 29 28 27 26 26 26 25 24 23 21 20 20 20 20 21 21 21 21 22 23 25 26 28 29 29 29 27 25 23 24 26 26 25 27 27
26 27 28 27 28 27 27 28 27 27 26 24 23 21 21 21 20 20 19 19 19 19 19 20 20 20 20 21 22 24 25 26 28 27 28 29 25 23 22 23 24 24 26 26
27 26 26 25 31 28 27 27 27 26 23 21 20 19 18 18 18 19 18 18 17 17 18 18 19 20 20 20 21 24 24 25 25 27 28 29 29 26 22 21 21 22 23 24

GFSCGP_sfc_30mbdewp_111.txt.gz
Dewpoint
18 26 20 16 10 9 16 20 21 20 22 21 21 22 23 22 21 21 21 22 21 24 25 25 26 27 26 24 36 61 62 64 64 64 63 63 62 63 63 63 63 62 63 64
8 16 24 20 13 8 9 10 11 15 17 20 24 30 29 23 21 21 21 22 23 24 26 26 29 30 30 27 30 61 63 64 64 64 63 63 62 61 61 62 63 63 62 63
14 8 22 22 14 7 6 7 9 11 14 23 31 30 28 27 22 23 23 23 23 23 23 25 25 29 33 33 31 59 63 64 64 63 63 62 62 61 60 60 61 61 62 62
16 11 11 18 16 10 3 4 6 9 11 25 31 22 15 22 23 20 21 20 23 34 36 40 44 45 42 40 41 51 64 64 64 63 62 61 61 60 60 60 60 60 61 62
28 14 10 14 19 10 3 5 5 16 30 29 28 19 13 15 14 15 18 33 38 44 45 46 47 48 49 51 52 53 50 64 63 63 62 61 60 61 60 60 60 60 60 60
25 19 11 16 24 27 9 10 27 27 26 24 20 15 14 13 14 32 38 42 44 44 44 45 45 46 46 47 48 50 53 52 63 62 61 60 60 60 59 59 59 59 60 60
21 18 12 24 24 27 16 21 20 19 22 17 19 16 16 23 33 38 41 42 42 43 43 42 42 43 43 43 45 47 50 51 53 61 60 60 59 60 59 58 59 59 59 60
18 5 14 27 26 23 15 20 21 15 19 18 17 15 15 20 40 42 41 41 41 41 41 40 40 40 40 40 42 44 46 49 51 60 60 59 59 60 59 58 59 59 58 58
17 8 30 30 31 23 15 16 25 27 27 24 16 28 32 37 38 41 39 39 38 38 38 38 38 37 38 39 40 42 45 48 53 54 61 60 60 60 59 59 59 59 58 58
31 20 33 30 33 31 17 19 20 28 21 21 21 30 32 35 41 40 38 37 38 38 37 36 36 36 36 38 39 42 45 48 57 53 61 60 61 60 59 59 58 57 57 58
33 28 32 34 29 24 28 25 29 33 30 25 24 29 38 35 39 38 37 36 35 35 36 36 36 35 36 37 38 40 42 46 57 58 60 60 60 59 60 59 58 57 57 57
34 31 29 31 36 35 36 31 30 28 28 30 29 26 38 36 36 35 35 34 34 34 34 34 35 35 35 36 37 38 40 43 47 58 58 60 60 60 60 58 57 57 56 56
35 32 25 25 33 36 33 33 34 34 34 30 26 26 36 33 33 32 32 33 33 32 32 33 33 34 35 35 36 36 38 40 43 54 57 58 59 59 58 58 56 56 56 56
36 32 30 26 29 31 29 31 32 34 28 30 28 28 31 31 31 31 31 32 32 33 32 32 33 33 34 36 36 36 37 38 40 44 47 53 58 59 58 57 56 56 56 56
33 30 31 32 32 33 32 32 33 31 30 28 28 26 29 30 30 30 30 31 31 31 31 32 32 32 33 35 36 36 36 37 38 39 41 42 46 58 58 57 56 56 56 55
32 30 30 29 31 31 31 28 29 31 34 32 31 27 31 31 29 28 28 28 29 29 30 30 31 31 32 33 34 35 35 35 36 37 38 39 40 43 52 56 56 55 55 55
28 28 27 24 27 26 26 28 28 30 31 31 26 31 32 28 27 26 27 28 28 29 29 29 30 31 32 32 34 34 35 35 34 35 36 37 37 38 38 41 49 52 54 53
26 26 22 19 21 20 27 30 29 29 30 31 32 31 29 27 28 28 29 28 28 29 31 30 30 30 32 33 33 34 33 34 33 33 34 35 36 36 36 35 35 36 37 39
29 25 21 20 24 28 26 25 27 28 26 31 30 31 31 31 32 26 28 29 29 31 33 29 28 29 30 31 33 33 31 32 31 31 32 33 34 34 34 33 33 33 32 32
26 29 24 21 20 19 24 26 28 31 21 31 30 29 29 32 24 24 28 30 30 32 31 26 26 26 27 28 32 31 30 29 29 30 31 32 32 32 33 33 32 32 32 31
24 27 23 26 23 23 27 27 28 21 22 31 32 30 28 25 26 28 30 29 28 28 25 25 24 23 24 25 28 30 30 29 29 30 29 28 30 31 31 32 32 32 32 32
25 25 22 23 20 17 29 27 23 29 31 32 32 32 30 29 29 29 27 23 22 22 22 22 22 22 23 24 25 26 29 31 30 28 27 26 27 28 29 29 31 31 31 31
24 27 23 24 23 29 31 30 32 32 30 30 29 29 28 28 25 24 22 21 20 20 21 21 21 21 22 23 24 25 27 30 31 28 26 25 25 26 27 26 26 27 28 29
30 30 25 27 28 29 30 29 29 28 28 25 23 22 24 22 23 21 20 19 19 19 20 21 20 20 21 22 24 25 27 28 28 29 26 24 23 23 24 24 25 24 25 24
28 28 26 27 28 27 28 28 29 26 23 22 21 20 20 20 19 19 18 17 18 18 19 19 20 19 19 20 21 24 25 25 26 27 28 26 22 21 21 23 23 23 26 26
27 27 26 24 31 27 27 28 27 23 20 19 19 18 18 18 18 17 17 17 17 17 18 18 18 18 18 18 19 21 25 25 24 25 26 27 27 22 21 20 21 24 25 26

GFSCGP_sfc_30mbdewp_114.txt.gz
Dewpoint
12 9 9 20 17 12 11 9 9 15 20 19 21 21 22 23 23 24 25 25 24 23 24 24 25 25 26 26 32 58 62 63 65 64 64 63 63 63 63 63 63 62 63 64
22 12 11 9 19 21 14 11 8 9 14 15 17 28 32 32 31 27 23 23 24 23 23 24 25 26 29 32 35 56 61 63 64 64 64 63 63 63 63 63 63 63 62 63
25 26 18 10 9 19 20 13 9 5 6 8 15 26 30 32 31 30 28 23 23 23 24 41 47 49 50 51 51 57 61 64 64 64 64 63 62 62 62 62 62 62 62 62
29 31 28 21 13 11 26 19 11 6 7 6 30 25 28 25 21 27 26 23 32 42 46 46 47 46 46 47 50 51 57 63 64 64 63 62 61 60 61 61 61 62 62 62
20 23 26 26 12 12 22 27 15 6 4 18 22 28 26 17 15 21 33 43 43 43 43 43 43 43 43 44 46 48 50 53 63 63 63 62 61 61 60 60 60 61 61 62
27 27 26 25 18 16 22 25 23 26 24 20 23 27 17 20 31 34 42 42 41 40 39 39 39 40 40 41 43 45 46 48 51 57 63 62 61 61 60 60 59 60 60 60
23 23 24 21 15 17 24 25 17 12 19 17 22 27 21 34 40 40 39 39 39 37 37 36 36 37 38 39 40 42 44 46 48 50 56 62 62 61 60 60 59 59 59 59
22 12 15 17 13 15 19 21 13 12 17 17 19 18 20 42 41 39 38 37 37 36 36 35 35 36 36 38 39 40 42 44 48 49 52 61 61 61 60 60 60 59 59 59
22 14 24 27 31 30 24 21 21 19 25 20 17 30 36 37 38 37 36 35 35 35 35 35 35 35 36 37 38 39 41 42 46 50 57 56 61 61 60 59 59 59 59 59
28 18 27 29 33 31 32 25 20 25 15 16 22 28 27 32 32 34 34 34 34 33 33 34 34 35 36 36 37 38 40 41 44 47 56 56 60 60 60 59 59 59 59 59
33 27 21 30 28 25 23 22 26 24 27 22 23 23 30 30 31 31 33 33 33 33 33 33 34 35 36 36 37 37 38 39 42 45 53 59 60 60 60 59 59 59 58 58
34 31 24 31 36 36 34 28 28 18 23 28 27 23 31 31 31 32 32 33 33 33 33 33 34 34 35 36 36 36 38 38 40 43 48 57 59 60 60 59 59 59 58 58
35 31 25 28 32 35 32 32 29 34 32 29 25 23 32 33 31 31 31 32 32 32 33 33 33 33 34 35 35 36 37 37 38 40 43 47 49 58 59 59 58 58 58 57
37 30 28 23 26 32 32 30 33 33 27 25 25 25 28 29 28 29 30 31 31 31 31 31 32 32 33 34 35 35 36 36 37 38 40 41 43 47 58 57 57 57 57 56
33 28 30 32 33 33 31 32 33 32 31 25 25 23 25 27 27 28 28 29 29 29 30 30 30 31 32 33 34 34 34 36 36 36 37 38 40 41 45 57 57 57 57 56
31 27 31 29 32 31 28 30 31 31 30 28 26 23 28 28 27 26 27 28 28 29 29 29 29 30 31 32 32 33 33 33 35 34 35 37 38 38 39 41 52 56 56 56
27 27 28 24 30 28 21 27 28 28 30 30 25 27 28 24 24 25 26 28 28 29 28 28 29 29 30 32 33 32 32 33 32 34 33 35 35 37 37 36 37 39 41 49
27 27 25 25 26 15 26 32 29 27 29 30 29 28 26 25 26 27 27 27 28 30 27 27 28 28 29 30 32 32 31 31 30 30 32 33 34 34 35 35 34 33 34 34
29 29 24 24 23 25 23 26 26 26 25 30 28 30 28 28 28 25 28 29 29 30 26 25 25 27 27 28 30 30 29 29 28 28 29 31 32 32 33 32 33 33 32 32
28 28 28 26 19 16 23 26 28 29 20 30 29 27 26 30 21 22 28 28 26 27 25 24 23 23 25 26 28 30 30 28 27 27 28 29 30 31 31 32 32 32 32 32
25 27 22 24 21 23 26 28 30 20 21 30 30 27 26 23 24 26 28 23 24 23 23 23 22 22 22 24 26 27 29 29 28 27 27 27 28 28 29 31 31 32 32 32
25 24 21 21 16 15 29 26 24 27 30 31 31 29 27 28 27 23 22 21 21 21 21 21 21 21 22 23 24 25 26 31 30 26 25 25 26 26 27 27 28 29 29 28
23 24 23 24 22 29 30 29 32 31 28 24 25 28 29 25 22 21 20 19 20 20 20 20 19 19 20 21 22 23 26 27 29 25 23 23 23 24 25 25 25 25 26 26
28 30 24 24 28 28 29 30 27 25 25 22 22 23 23 21 19 19 18 18 18 19 19 19 18 17 18 19 20 22 25 26 27 27 23 21 21 22 23 23 24 24 24 24
27 28 26 26 27 28 30 30 25 22 21 19 19 20 20 19 18 18 17 17 18 18 18 18 17 16 17 17 18 20 22 25 24 25 26 25 21 20 20 23 24 24 27 27
27 27 26 23 28 27 28 28 23 20 19 19 18 18 18 18 17 17 16 17 17 16 16 16 15 15 15 16 17 18 20 24 24 23 24 25 26 21 20 19 20 24 25 26

GFSCGP_sfc_30mbdewp_117.txt.gz
Dewpoint
16 13 10 9 13 16 17 16 15 13 12 11 9 12 15 18 27 25 22 22 25 25 25 25 25 26 26 25 42 61 64 65 66 65 64 64 64 64 64 65 65 65 65 64
25 19 19 17 14 11 11 19 18 17 17 15 9 7 11 15 20 26 29 28 24 26 25 37 48 49 50 50 41 48 61 63 65 65 64 64 64 63 64 63 63 64 64 64
22 18 22 22 17 14 10 7 13 21 20 14 8 5 3 9 23 28 32 32 30 25 40 45 44 44 45 46 48 53 59 61 64 64 64 63 62 62 62 62 62 63 63 63
22 24 27 28 25 20 16 16 14 24 24 13 18 11 21 25 26 26 25 40 42 43 43 42 42 42 42 43 45 47 51 60 63 64 63 62 62 61 62 62 62 62 62 62
20 20 22 20 21 24 22 17 17 23 24 16 8 15 18 24 23 36 39 38 38 38 38 38 38 39 40 41 42 44 47 49 53 59 63 63 62 61 61 62 62 61 62 62
23 24 26 25 23 23 22 23 25 26 21 13 9 16 21 33 38 37 36 36 35 35 35 35 36 37 38 39 40 43 45 46 48 51 54 63 62 61 60 60 60 61 61 61
24 24 27 27 26 24 22 19 17 13 13 16 19 21 23 37 37 36 35 34 35 35 35 35 35 35 36 37 39 41 42 44 46 49 51 53 62 62 60 60 60 60 60 60
22 17 19 19 24 16 14 19 18 11 13 13 23 24 29 36 37 36 35 34 33 33 33 34 35 35 36 36 38 39 40 42 43 45 48 51 54 62 61 59 60 60 60 60
25 20 22 28 29 20 22 18 20 18 20 20 23 31 33 34 33 32 33 34 34 34 33 33 34 35 36 36 37 38 39 40 41 43 45 48 55 59 61 61 60 60 60 60
28 25 26 29 29 31 27 30 21 21 11 14 24 24 22 27 28 31 31 31 33 34 34 34 34 35 35 36 37 37 38 39 40 41 43 47 54 57 61 60 60 60 60 60
33 30 22 28 23 25 27 27 27 21 21 21 20 21 29 27 29 28 30 31 32 33 33 33 33 35 35 35 35 36 37 38 39 40 42 45 49 59 61 60 60 60 59 59
35 32 26 28 34 36 34 27 25 16 17 26 23 21 31 30 29 30 29 31 32 33 32 32 32 33 34 35 35 35 36 37 38 39 41 43 45 49 60 60 59 59 59 59
34 31 24 22 29 32 31 31 33 32 31 26 22 21 31 30 29 29 29 30 31 31 30 30 31 32 33 34 34 34 35 35 36 37 38 40 41 43 47 57 59 59 59 58
37 32 28 23 27 31 30 30 33 29 24 23 23 22 25 26 26 28 29 30 30 29 29 29 30 31 32 33 33 33 34 34 35 35 36 37 39 40 42 47 57 59 58 58
34 29 29 29 30 30 30 33 32 29 29 23 23 21 23 25 26 27 29 30 29 28 28 28 29 29 31 31 32 32 32 32 33 34 34 35 36 38 39 40 43 53 58 58
30 29 31 27 27 25 25 28 30 28 26 25 22 21 26 27 27 26 27 28 27 26 26 27 28 28 29 31 30 30 30 31 31 31 32 34 35 35 36 36 37 37 40 50
29 28 28 24 27 25 18 25 26 26 29 29 21 24 26 23 24 24 26 27 27 25 24 25 27 27 28 30 31 29 29 29 29 30 30 31 33 34 34 35 35 35 34 35
30 28 26 26 26 14 24 29 29 26 27 29 26 26 25 24 26 27 27 27 28 25 24 24 25 26 27 28 29 30 28 28 28 27 28 30 30 31 33 33 33 34 34 33
29 30 28 23 20 24 24 25 25 25 23 28 27 27 26 27 28 24 27 26 27 24 24 23 23 24 25 26 28 29 28 26 27 26 26 27 29 29 30 30 32 32 33 32
28 28 28 26 19 16 22 26 31 28 19 29 27 26 24 29 20 21 23 24 24 24 22 21 21 22 23 25 26 26 28 26 25 26 26 26 27 28 28 29 29 31 31 32
24 25 22 23 20 22 25 28 33 21 20 30 27 25 23 21 23 24 22 21 22 21 20 20 20 20 21 22 24 24 26 28 24 24 24 24 25 26 27 28 28 28 29 30
23 22 20 21 16 16 28 26 23 27 30 31 30 27 26 25 22 21 20 20 20 20 19 18 18 19 19 20 21 22 23 27 29 23 22 22 23 24 25 26 26 27 27 26
22 23 22 23 21 27 30 29 31 29 23 23 28 27 23 21 20 20 19 19 18 18 17 17 17 17 18 19 20 20 22 25 26 27 22 21 22 23 24 24 25 25 25 25
29 29 23 24 27 27 28 25 24 23 22 23 24 22 20 19 19 18 18 18 17 17 16 16 16 16 16 17 18 19 21 23 24 24 25 22 21 21 22 23 24 25 25 24
27 27 25 25 27 28 29 24 23 21 20 20 21 20 19 18 18 18 18 16 16 15 15 14 14 14 15 16 17 18 20 22 22 23 23 24 21 20 20 21 24 24 26 27
27 27 25 22 27 26 27 24 21 19 19 19 18 18 18 17 16 16 16 16 15 14 13 13 12 13 14 15 16 17 19 22 22 21 22 23 23 22 20 19 19 22 24 24

GFSCGP_sfc_30mbdewp_120.txt.gz
Dewpoint
15 14 10 11 12 12 12 13 14 14 16 17 18 16 14 15 14 10 20 23 26 25 25 31 41 45 35 34 35 61 65 66 65 65 64 63 63 63 64 64 64 64 64 64
23 15 16 17 16 12 11 10 11 12 15 15 17 20 17 15 12 9 13 13 23 28 33 44 45 45 45 46 47 47 58 65 66 65 64 64 64 64 64 65 64 65 64 64
19 15 21 20 21 20 18 16 14 11 11 13 19 21 17 13 12 8 7 27 38 40 43 42 42 42 43 43 44 46 50 61 65 65 65 63 63 62 63 63 63 64 65 64
22 24 22 24 26 24 20 19 18 16 15 16 24 18 19 14 14 37 36 36 35 35 36 37 38 39 40 40 42 44 47 53 60 65 64 63 62 62 62 63 63 64 64 64
21 21 22 21 20 25 20 23 21 21 17 19 21 20 13 16 32 34 34 35 35 35 35 35 36 37 38 39 40 42 46 48 52 57 63 63 62 62 61 62 62 63 62 63
23 24 23 23 23 24 24 23 23 22 22 17 18 17 17 30 32 33 34 34 34 34 34 35 36 36 37 38 39 41 43 45 48 51 53 59 62 61 61 61 61 61 61 61
24 23 26 27 24 26 25 22 15 13 18 15 16 12 25 29 32 33 33 34 34 34 34 35 35 36 37 37 38 39 41 42 44 46 48 51 54 58 61 60 61 61 61 61
23 16 19 24 23 19 20 21 13 11 14 19 24 20 24 31 32 33 34 35 34 34 34 35 35 35 36 36 37 38 39 40 41 43 45 47 50 54 58 61 61 61 61 61
24 23 24 27 26 23 16 17 18 15 19 18 25 27 29 30 30 30 30 32 32 33 34 34 35 35 35 35 36 37 37 38 39 40 43 45 47 51 55 59 61 60 60 56
31 24 27 28 30 29 23 28 22 21 17 13 23 21 20 24 26 28 28 29 31 32 33 33 34 35 35 35 35 36 36 37 38 39 41 43 45 47 50 56 61 60 60 60
34 30 25 28 28 24 30 27 28 26 23 20 18 19 28 25 27 26 28 29 30 31 31 32 33 34 34 34 34 35 35 36 36 38 39 41 42 44 47 56 58 60 60 60
31 33 26 25 29 32 35 27 26 21 16 23 21 18 30 28 28 28 28 30 30 31 31 31 32 32 32 33 33 33 34 34 35 36 38 39 40 42 43 46 51 60 59 59
34 31 24 20 27 33 31 32 32 29 28 25 21 19 29 29 28 29 28 29 29 30 30 30 30 30 31 31 32 32 33 33 33 34 35 37 37 39 40 42 45 53 59 59
38 30 24 19 23 30 28 31 32 27 22 21 21 19 23 25 25 27 28 28 28 28 28 28 28 29 30 30 30 30 31 32 32 33 33 34 36 36 38 39 40 42 46 57
34 28 29 29 28 28 27 29 29 27 27 20 21 19 21 23 25 26 28 27 24 24 26 27 27 27 29 30 29 29 30 30 31 31 32 32 34 35 36 37 38 39 38 40
33 28 31 27 30 26 23 25 28 27 26 23 22 19 25 26 26 25 26 26 23 22 23 24 25 26 27 28 30 27 28 28 29 29 30 31 32 33 34 34 35 36 36 37
30 30 28 21 26 19 16 23 24 25 25 26 19 22 25 23 23 23 24 26 23 22 22 23 23 24 26 27 29 29 26 27 27 28 28 29 30 31 32 32 33 34 34 35
29 30 28 24 27 14 24 29 29 24 26 26 24 24 24 23 24 25 25 24 23 22 21 22 23 23 25 26 27 28 26 24 26 26 26 27 28 28 30 31 31 32 33 32
31 30 28 21 20 23 25 25 25 25 23 27 26 25 25 27 27 21 23 24 23 22 21 21 22 22 23 23 25 26 28 23 23 24 24 25 27 27 27 28 29 30 30 30
27 31 29 23 19 16 22 24 28 30 20 27 26 24 23 27 19 19 22 22 21 20 19 19 20 20 20 21 23 24 26 26 22 22 23 24 25 26 26 27 28 29 30 29
22 24 22 22 19 21 24 28 31 21 21 27 24 23 22 21 21 21 20 19 19 19 18 18 18 18 19 20 21 22 23 25 27 23 22 23 24 25 25 26 27 27 28 28
21 21 20 23 17 16 27 28 23 27 29 28 26 26 21 21 21 20 19 18 18 17 17 17 17 17 18 19 19 20 21 24 25 26 22 22 22 24 24 25 26 26 26 26
21 22 21 22 20 27 27 28 26 25 25 27 26 23 22 20 20 19 18 17 16 16 16 15 15 16 17 17 18 19 20 22 23 23 24 21 21 22 23 23 24 24 24 24
28 27 23 23 25 26 24 24 22 23 25 27 23 21 20 18 18 18 17 16 15 14 14 14 14 14 15 16 17 19 20 21 21 21 22 23 20 20 21 22 23 22 23 22
26 26 24 24 27 27 23 22 21 21 22 21 20 20 19 18 18 17 16 15 14 12 13 12 13 13 13 14 15 17 19 20 19 20 21 21 22 20 19 20 22 22 23 24
27 26 24 20 25 25 24 22 21 20 20 19 18 17 17 17 16 16 15 15 13 10 10 11 11 11 12 12 13 15 18 19 19 19 20 20 20 20 19 18 17 19 21 21

GFSCGP_sfc_30mbdewp_123.txt.gz
Dewpoint
17 11 7 10 13 10 11 11 10 11 12 12 12 13 15 15 16 17 19 19 16 13 19 34 45 46 38 45 53 62 64 64 63 62 62 61 61 62 63 63 63 64 64 64
21 14 14 16 16 15 15 15 14 14 15 14 13 13 14 14 16 21 21 17 15 15 19 38 43 44 44 46 47 49 59 65 64 63 62 62 62 62 63 63 63 63 63 64
16 14 19 18 17 16 15 18 18 16 15 16 17 12 16 19 21 33 36 36 36 36 37 38 39 41 42 43 45 47 49 55 65 65 64 64 65 64 63 63 63 63 64 64
22 23 22 21 20 19 17 21 19 18 17 14 17 9 15 23 28 34 34 34 35 36 37 37 37 38 39 41 43 46 51 53 58 64 65 64 63 62 63 63 63 63 64 64
21 22 24 23 21 24 21 22 20 21 19 19 12 16 15 27 26 32 34 34 34 35 36 37 37 38 39 39 41 44 48 50 52 57 62 64 63 63 63 63 63 63 63 65
24 25 23 22 23 22 22 22 22 24 22 16 18 21 19 25 27 30 32 33 35 35 36 36 36 37 37 39 40 42 44 45 48 50 52 56 62 63 62 63 63 62 64 64
25 24 26 25 24 26 24 22 11 12 18 12 17 18 24 28 29 29 29 31 33 35 35 36 35 36 36 37 38 39 41 42 44 45 47 49 51 54 58 63 63 62 62 62
22 17 20 24 22 17 24 20 10 5 6 8 14 23 23 30 31 31 31 31 31 33 35 35 36 35 35 36 37 38 39 40 41 42 44 46 48 51 53 56 60 62 62 62
25 23 26 23 25 25 20 18 19 15 14 15 22 26 30 29 29 29 29 30 30 30 32 34 35 35 35 36 36 37 37 38 39 40 42 44 46 47 48 51 53 59 62 62
30 25 27 28 30 29 26 25 22 20 16 16 22 21 19 23 25 27 27 28 29 30 30 31 33 33 34 34 35 35 35 35 37 38 40 41 42 43 45 48 52 57 60 62
31 30 25 29 27 26 29 26 26 25 24 20 17 18 27 25 26 26 27 28 28 29 29 30 31 33 31 32 33 33 34 34 35 36 38 39 39 41 42 44 46 49 57 61
31 31 25 27 29 31 32 29 27 23 19 25 23 18 29 28 28 28 27 28 29 29 29 30 30 31 32 30 31 32 33 33 34 35 36 37 38 38 39 41 42 43 47 60
34 29 21 16 24 25 30 33 35 30 28 24 22 18 28 28 27 28 25 26 27 27 28 28 28 29 30 31 29 30 31 32 33 33 34 35 35 36 37 38 39 41 42 46
37 29 22 19 23 27 26 29 30 31 24 21 19 18 22 24 24 26 26 26 26 26 26 26 26 27 28 31 27 28 30 30 31 32 32 33 34 34 35 36 37 38 40 41
34 28 30 29 28 26 25 26 28 25 27 22 20 18 20 22 23 25 26 25 21 21 22 23 23 25 26 28 28 26 28 29 30 30 30 31 32 33 34 34 35 35 36 37
34 28 31 27 30 27 23 25 26 25 23 22 21 18 25 25 25 24 23 23 21 20 21 22 22 23 24 26 28 24 25 27 28 28 28 29 30 31 32 33 33 33 33 34
30 30 28 23 28 26 18 23 24 24 25 26 19 22 24 22 21 21 22 22 21 20 21 21 22 23 24 25 27 26 23 24 25 26 26 27 29 29 30 30 31 32 32 31
28 29 30 24 27 15 24 29 28 24 26 25 23 24 23 22 22 22 22 21 20 20 20 21 21 21 23 23 25 27 26 23 23 24 25 26 27 27 28 29 30 31 31 30
30 30 27 23 20 23 26 25 25 25 22 26 26 25 24 25 25 20 21 21 20 20 20 20 21 21 21 22 23 24 25 25 23 23 24 25 26 26 27 28 28 30 30 30
29 30 29 23 19 16 22 25 28 29 19 25 23 24 25 27 21 19 19 19 19 19 18 18 18 19 20 21 22 23 23 24 24 23 23 24 25 25 26 27 28 29 29 29
21 23 22 23 20 21 24 27 30 21 21 24 23 21 22 20 21 20 19 18 18 17 17 17 17 17 18 19 20 21 22 23 24 24 23 23 24 25 25 26 27 27 27 27
21 21 20 23 20 17 26 29 24 27 29 26 24 21 21 21 20 18 18 16 16 16 15 15 16 16 17 18 18 19 20 21 22 23 23 22 23 24 24 24 25 25 24 24
20 22 21 22 21 26 27 26 26 28 27 27 23 22 21 20 19 18 16 14 14 13 13 14 15 15 15 16 17 18 19 20 20 21 21 21 21 22 23 22 22 22 22 22
27 27 22 23 25 25 24 23 24 27 28 25 22 21 19 18 18 16 15 13 11 12 12 13 13 13 13 15 16 17 19 18 18 19 19 19 19 19 19 21 21 21 21 21
27 26 24 24 26 24 23 22 23 23 22 20 20 19 19 18 17 16 14 11 9 9 10 10 10 11 11 13 14 16 18 17 16 17 18 19 18 17 16 18 20 20 21 21
27 25 22 21 26 25 23 22 22 21 20 19 18 17 16 16 15 14 12 9 7 7 8 8 6 6 8 12 13 14 16 17 16 15 16 18 17 16 15 15 16 17 18 18